[[{"header":{"parameterUnit":"m.s-1","parameterCategory":1,"la1":31.0,"la2":29.5877,"lo1":-88.7671,"lo2":-86.6584,"dy":0.0162,"dx":0.0185,"nx":115,"ny":88,"refTime":"2024-08-20T12:00:00:Z","depth":0,"parameterNumber":2,"parameterNumberName":"U-component_of_WINDS"},"data":[0.0,0.0,0.0,0.0,0.0,0.0,0.0,0.0,0.0,0.0,0.0,0.0,0.0,0.0,0.0,0.0,0.0,0.0,0.0,0.0,0.0,0.0,0.0,0.0,0.0,0.0,0.0,0.0,0.0,0.0,0.0,0.0,0.0,0.0,0.0,0.0,0.0,0.0,0.0,0.0,0.0,0.0,0.0,0.0,0.0,0.0,0.0,0.0,0.0,0.0,0.0,0.0,0.0,0.0,0.0,0.0,0.0,0.0,0.0,0.0,0.0,0.0,0.0,0.0,0.0,0.0,0.0,0.0,0.0,0.0,0.0,0.0,0.0,0.0,0.0,0.0,0.0,0.0,0.0,0.0,0.0,0.0,0.0,0.0,0.0,0.0,0.0,0.0,0.0,0.0,0.0,0.0,0.0,0.0,0.0,0.0,0.0,0.0,0.0,0.0,0.0,0.0,0.0,0.0,0.0,0.0,0.0,0.0,0.0,0.0,0.0,0.0,0.0,0.0,0.0,0.0,0.0,0.0,0.0,0.0,0.0,0.0,0.0,0.0,0.0,0.0,0.0,0.0,0.0,0.0,0.0,0.0,0.0,0.0,0.0,0.0,0.0,0.0,0.0,0.0,0.0,0.0,0.0,0.0,0.0,0.0,0.0,0.0,0.0,0.0,0.0,0.0,0.0,0.0,0.0,0.0,0.0,0.0,0.0,0.0,0.0,0.0,0.0,0.0,0.0,0.0,0.0,0.0,0.0,0.0,0.0,0.0,0.0,0.0,0.0,0.0,0.0,0.0,0.0,0.0,0.0,0.0,0.0,0.0,0.0,0.0,0.0,0.0,0.0,0.0,0.0,0.0,0.0,0.0,0.0,0.0,0.0,0.0,0.0,0.0,0.0,0.0,0.0,0.0,0.0,0.0,0.0,0.0,0.0,0.0,0.0,0.0,0.0,0.0,0.0,0.0,0.0,0.0,0.0,0.0,0.0,0.0,0.0,0.0,0.0,0.0,0.0,0.0,0.0,0.0,0.0,0.0,0.0,0.0,0.0,0.0,0.0,0.0,0.0,0.0,0.0,0.0,0.0,0.0,0.0,0.0,0.0,0.0,0.0,0.0,0.0,0.0,0.0,0.0,0.0,0.0,0.0,0.0,0.0,0.0,0.0,0.0,0.0,0.0,0.0,0.0,0.0,0.0,0.0,0.0,0.0,0.0,0.0,0.0,0.0,0.0,0.0,0.0,0.0,0.0,0.0,0.0,0.0,0.0,0.0,0.0,0.0,0.0,0.0,0.0,0.0,0.0,0.0,0.0,0.0,0.0,0.0,0.0,0.0,0.0,0.0,0.0,0.0,0.0,0.0,0.0,0.0,0.0,0.0,0.0,0.0,0.0,0.0,0.0,0.0,0.0,0.0,0.0,0.0,0.0,0.0,0.0,0.0,0.0,0.0,0.0,0.0,0.0,0.0,0.0,0.0,0.0,0.0,0.0,0.0,0.0,0.0,0.0,0.0,0.0,0.0,0.0,0.0,0.0,0.0,0.0,0.0,0.0,0.0,0.0,0.0,0.0,0.0,0.0,0.0,0.0,0.0,0.0,0.0,0.0,0.0,0.0,0.0,0.0,0.0,0.0,0.0,0.0,0.0,0.0,0.0,0.0,0.0,0.0,0.0,0.0,0.0,0.0,0.0,0.0,0.0,0.0,0.0,0.0,0.0,0.0,0.0,0.0,0.0,0.0,0.0,0.0,0.0,0.0,0.0,0.0,0.0,0.0,0.0,0.0,0.0,0.0,0.0,0.0,0.0,0.0,0.0,0.0,0.0,0.0,0.0,0.0,0.0,0.0,0.0,0.0,0.0,0.0,0.0,0.0,0.0,0.0,0.0,0.0,0.0,0.0,0.0,0.0,0.0,0.0,0.0,0.0,0.0,0.0,0.0,0.0,0.0,0.0,0.0,0.0,0.0,0.0,0.0,0.0,0.0,0.0,0.0,0.0,0.0,0.0,0.0,0.0,0.0,0.0,0.0,0.0,0.0,0.0,0.0,0.0,0.0,0.0,0.0,0.0,0.0,0.0,0.0,0.0,0.0,0.0,0.0,0.0,0.0,0.0,0.0,0.0,0.0,0.0,0.0,0.0,0.0,0.0,0.0,0.0,0.0,0.0,0.0,0.0,0.0,0.0,0.0,0.0,0.0,0.0,0.0,0.0,0.0,0.0,0.0,0.0,0.0,0.0,0.0,0.0,0.0,0.0,0.0,0.0,0.0,0.0,0.0,0.0,0.0,0.0,0.0,0.0,0.0,0.0,0.0,0.0,0.0,0.0,0.0,0.0,0.0,0.0,0.0,0.0,0.0,0.0,0.0,0.0,0.0,0.0,0.0,0.0,0.0,0.0,0.0,0.0,0.0,0.0,0.0,0.0,0.0,0.0,0.0,0.0,0.0,0.0,0.0,0.0,0.0,0.0,0.0,0.0,0.0,0.0,0.0,0.0,0.0,0.0,0.0,0.0,0.0,0.0,0.0,0.0,0.0,0.0,0.0,0.0,0.0,0.0,0.0,0.0,0.0,0.0,0.0,0.0,0.0,0.0,0.0,0.0,0.0,0.0,0.0,0.0,0.0,0.0,0.0,0.0,0.0,0.0,0.0,0.0,0.0,0.0,0.0,0.0,0.0,0.0,0.0,0.0,0.0,0.0,0.0,0.0,0.0,0.0,0.0,0.0,0.0,0.0,0.0,0.0,0.0,0.0,0.0,0.0,0.0,0.0,0.0,0.0,0.0,0.0,0.0,0.0,0.0,0.0,0.0,0.0,0.0,0.0,0.0,0.0,0.0,0.0,0.0,0.0,0.0,0.0,0.0,0.0,0.0,0.0,0.0,0.0,0.0,0.0,0.0,0.0,0.0,0.0,0.0,0.0,0.0,0.0,0.0,0.0,0.0,0.0,0.0,0.0,0.0,0.0,0.0,0.0,0.0,0.0,0.0,0.0,0.0,0.0,0.0,0.0,0.0,0.0,0.0,0.0,0.0,0.0,0.0,0.0,0.0,0.0,0.0,0.0,0.0,0.0,0.0,0.0,0.0,0.0,0.0,0.0,0.0,0.0,0.0,0.0,0.0,0.0,0.0,0.0,0.0,0.0,0.0,0.0,0.0,0.0,0.0,0.0,0.0,0.0,0.0,0.0,0.0,0.0,0.0,0.0,0.0,0.0,0.0,0.0,0.0,0.0,0.0,0.0,0.0,0.0,0.0,0.0,0.0,0.0,0.0,0.0,0.0,0.0,0.0,0.0,0.0,0.0,0.0,0.0,0.0,0.0,0.0,0.0,0.0,0.0,0.0,0.0,0.0,0.0,0.0,0.0,0.0,0.0,0.0,0.0,0.0,0.0,0.0,0.0,0.0,0.0,0.0,0.0,0.0,0.0,0.0,0.0,0.0,0.0,0.0,0.0,0.0,0.0,0.0,0.0,0.0,0.0,0.0,0.0,0.0,0.0,0.0,0.0,0.0,0.0,0.0,0.0,0.0,0.0,0.0,0.0,0.0,0.0,0.0,0.0,0.0,0.0,0.0,0.0,0.0,0.0,0.0,0.0,0.0,0.0,0.0,0.0,0.0,0.0,0.0,0.0,0.0,0.0,0.0,0.0,0.0,0.0,0.0,0.0,0.0,0.0,0.0,0.0,0.0,0.0,0.0,0.0,0.0,0.0,0.0,0.0,0.0,0.0,0.0,0.0,0.0,0.0,0.0,0.0,0.0,0.0,0.0,0.0,0.0,0.0,0.0,0.0,0.0,0.0,0.0,0.0,0.0,0.0,0.0,0.0,0.0,0.0,0.0,0.0,0.0,0.0,0.0,0.0,0.0,0.0,0.0,0.0,0.0,0.0,0.0,0.0,0.0,0.0,0.0,0.0,0.0,0.0,0.0,0.0,0.0,0.0,0.0,0.0,0.0,0.0,0.0,0.0,0.0,0.0,0.0,0.0,0.0,0.0,0.0,0.0,0.0,0.0,0.0,0.0,0.0,0.0,0.0,0.0,0.0,0.0,0.0,0.0,0.0,0.0,0.0,0.0,0.0,0.0,0.0,0.0,0.0,0.0,0.0,0.0,0.0,0.0,0.0,0.0,0.0,0.0,0.0,0.0,0.0,0.0,0.0,0.0,0.0,0.0,0.0,0.0,0.0,0.0,0.0,0.0,0.0,0.0,0.0,0.0,0.0,0.0,0.0,0.0,0.0,0.0,0.0,0.0,0.0,0.0,0.0,0.0,0.0,0.0,0.0,0.0,0.0,0.0,1.5404,0.0,0.0,0.0,0.0,0.0,0.0,0.0,0.0,0.0,0.0,0.0,0.0,0.0,0.0,0.0,0.0,0.0,0.0,0.0,0.0,0.0,0.0,0.0,0.0,0.0,0.0,0.0,0.0,0.0,0.0,0.0,0.0,0.0,0.0,0.0,0.0,0.0,0.0,0.0,0.0,0.0,0.0,0.0,0.0,0.0,0.0,0.0,0.0,0.0,0.0,0.0,0.0,0.0,0.0,0.0,0.0,0.0,0.0,0.0,0.0,0.0,0.0,0.0,0.0,0.0,0.0,0.0,0.0,0.0,0.0,0.0,0.0,0.0,0.0,0.0,0.0,0.0,0.0,0.0,0.0,0.0,0.0,0.0,0.0,0.0,0.0,0.0,0.0,0.0,0.0,0.0,0.0,0.0,0.0,0.0,0.0,0.0,0.0,0.0,0.0,0.0,0.0,0.0,0.0,0.0,0.0,0.0,0.0,0.0,0.0,1.541,1.541,1.5409,1.5407,1.541,0.0,0.0,0.0,0.0,0.0,0.0,0.0,0.0,0.0,0.0,0.0,0.0,0.0,0.0,0.0,0.0,0.0,0.0,0.0,0.0,0.0,0.0,0.0,0.0,0.0,0.0,0.0,0.0,0.0,0.0,0.0,0.0,0.0,0.0,0.0,0.0,0.0,0.0,0.0,0.0,0.0,0.0,0.0,0.0,0.0,0.0,0.0,0.0,0.0,0.0,0.0,0.0,0.0,0.0,0.0,0.0,0.0,0.0,0.0,0.0,0.0,0.0,0.0,0.0,0.0,0.0,0.0,0.0,0.0,0.0,0.0,0.0,0.0,0.0,0.0,0.0,0.0,0.0,0.0,0.0,0.0,0.0,0.0,0.0,0.0,0.0,0.0,0.0,0.0,0.0,0.0,0.0,0.0,0.0,0.0,0.0,0.0,0.0,0.0,0.0,0.0,0.0,0.0,0.0,0.0,0.0,0.0,0.0,0.0,0.0,0.0,0.0,1.6289,1.6269,1.6289,0.0,0.0,0.0,0.0,0.0,0.0,0.0,0.0,0.0,0.0,0.0,0.0,0.0,0.0,0.0,0.0,0.0,0.0,0.0,0.0,0.0,0.0,0.0,0.0,0.0,0.0,0.0,0.0,0.0,0.0,0.0,0.0,0.0,0.0,0.0,0.0,0.0,0.0,0.0,0.0,0.0,0.0,0.0,0.0,0.0,0.0,0.0,0.0,0.0,0.0,0.0,0.0,0.0,0.0,0.0,0.0,0.0,0.0,0.0,0.0,0.0,0.0,0.0,0.0,0.0,0.0,0.0,0.0,0.0,0.0,0.0,0.0,0.0,0.0,0.0,0.0,0.0,0.0,0.0,0.0,0.0,0.0,0.0,0.0,0.0,0.0,0.0,0.0,0.0,0.0,0.0,0.0,0.0,0.0,0.0,0.0,0.0,0.0,0.0,0.0,0.0,0.0,0.0,0.0,0.0,0.0,0.0,0.0,0.0,0.0,1.6523,1.8848,1.8926,0.0,1.8945,0.0,0.0,0.0,0.0,0.0,0.0,0.0,0.0,0.0,0.0,0.0,0.0,0.0,0.0,0.0,0.0,0.0,0.0,0.0,0.0,0.0,0.0,0.0,0.0,0.0,0.0,0.0,0.0,0.0,0.0,0.0,0.0,0.0,0.0,0.0,0.0,0.0,0.0,0.0,0.0,0.0,0.0,0.0,0.0,0.0,0.0,0.0,0.0,0.0,0.0,0.0,0.0,0.0,0.0,0.0,0.0,0.0,0.0,0.0,0.0,0.0,0.0,0.0,0.0,0.0,0.0,0.0,0.0,0.0,0.0,0.0,0.0,0.0,0.0,0.0,0.0,0.0,0.0,0.0,0.0,0.0,0.0,0.0,0.0,0.0,0.0,0.0,0.0,0.0,0.0,0.0,0.0,0.0,0.0,0.0,0.0,0.0,0.0,0.0,0.0,0.0,0.0,0.0,0.0,0.0,0.0,0.0,0.0,0.0,0.0,0.0,1.9277,1.9297,1.9043,0.0,0.0,0.0,0.0,0.0,0.0,0.0,0.0,0.0,0.0,0.0,0.0,0.0,0.0,0.0,0.0,0.0,0.0,0.0,0.0,0.0,0.0,0.0,0.0,0.0,0.0,0.0,0.0,0.0,0.0,0.0,0.0,0.0,0.0,0.0,0.0,0.0,0.0,0.0,0.0,0.0,0.0,0.0,0.0,0.0,0.0,0.0,0.0,0.0,0.0,0.0,0.0,0.0,0.0,0.0,0.0,0.0,0.0,0.0,0.0,0.0,0.0,0.0,0.0,0.0,0.0,0.0,0.0,0.0,0.0,0.0,0.0,0.0,0.0,0.0,0.0,0.0,0.0,0.0,0.0,0.0,0.0,0.0,0.0,0.0,0.0,0.0,0.0,0.0,0.0,0.0,0.0,0.0,0.0,0.0,0.0,0.0,0.0,0.0,0.0,0.0,0.0,0.0,0.0,0.0,0.0,0.0,0.0,0.0,0.0,1.8711,0.0,2.0293,2.0371,1.9629,1.8066,0.0,0.0,0.0,0.0,0.0,0.0,0.0,0.0,0.0,0.0,0.0,0.0,0.0,0.0,0.0,0.0,0.0,0.0,0.0,0.0,0.0,0.0,0.0,0.0,0.0,0.0,0.0,0.0,0.0,0.0,0.0,0.0,0.0,0.0,0.0,0.0,0.0,0.0,0.0,0.0,0.0,0.0,0.0,0.0,0.0,0.0,0.0,0.0,0.0,0.0,0.0,0.0,0.0,0.0,0.0,0.0,0.0,0.0,0.0,0.0,0.0,0.0,0.0,0.0,0.0,0.0,0.0,0.0,0.0,0.0,0.0,0.0,0.0,0.0,0.0,0.0,0.0,0.0,0.0,0.0,0.0,0.0,0.0,0.0,0.0,0.0,0.0,0.0,0.0,0.0,0.0,0.0,0.0,0.0,0.0,0.0,0.0,0.0,0.0,0.0,0.0,0.0,0.0,0.0,0.0,0.0,0.0,0.0,0.0,2.0469,2.0469,2.2832,2.2988,2.1445,0.0,0.0,0.0,0.0,0.0,0.0,0.0,0.0,0.0,0.0,0.0,0.0,0.0,0.0,0.0,0.0,0.0,0.0,0.0,0.0,0.0,0.0,0.0,0.0,0.0,0.0,0.0,0.0,0.0,0.0,0.0,0.0,0.0,0.0,0.0,0.0,0.0,0.0,0.0,0.0,0.0,0.0,0.0,0.0,0.0,0.0,0.0,0.0,0.0,0.0,0.0,0.0,0.0,0.0,0.0,0.0,0.0,0.0,0.0,0.0,0.0,0.0,0.0,0.0,0.0,0.0,0.0,0.0,0.0,0.0,0.0,0.0,0.0,0.0,0.0,0.0,0.0,0.0,0.0,0.0,0.0,0.0,0.0,0.0,0.0,0.0,0.0,0.0,0.0,0.0,0.0,0.0,0.0,0.0,0.0,0.0,0.0,0.0,0.0,0.0,0.0,0.0,0.0,0.0,0.0,0.0,0.0,0.0,0.0,1.8125,1.8906,2.1328,2.5273,2.2441,2.0371,0.0,0.0,0.0,0.0,0.0,0.0,0.0,0.0,0.0,0.0,0.0,0.0,0.0,0.0,0.0,0.0,0.0,0.0,0.0,0.0,0.0,0.0,0.0,0.0,0.0,0.0,0.0,0.0,0.0,0.0,0.0,0.0,0.0,0.0,0.0,0.0,0.0,0.0,0.0,0.0,0.0,0.0,0.0,0.0,0.0,0.0,0.0,0.0,0.0,0.0,0.0,0.0,0.0,0.0,0.0,0.0,0.0,0.0,0.0,0.0,0.0,0.0,0.0,0.0,0.0,0.0,0.0,0.0,0.0,0.0,0.0,0.0,0.0,0.0,0.0,0.0,0.0,0.0,0.0,0.0,0.0,0.0,0.0,0.0,0.0,0.0,0.0,0.0,0.0,0.0,0.0,0.0,0.0,0.0,0.0,0.0,0.0,0.0,0.0,0.0,0.0,0.0,0.0,0.0,0.0,0.0,0.0,0.0,0.0,1.7891,0.0,2.3086,0.0,2.2383,1.9785,0.0,0.0,0.0,0.0,0.0,0.0,0.0,0.0,0.0,0.0,0.0,0.0,0.0,0.0,0.0,0.0,0.0,0.0,0.0,0.0,0.0,0.0,0.0,0.0,0.0,0.0,0.0,0.0,0.0,0.0,0.0,0.0,0.0,0.0,0.0,0.0,0.0,0.0,0.0,0.0,0.0,0.0,0.0,0.0,0.0,0.0,0.0,0.0,0.0,0.0,0.0,0.0,0.0,0.0,0.0,0.0,0.0,0.0,0.0,0.0,0.0,0.0,0.0,0.0,0.0,0.0,0.0,0.0,0.0,0.0,0.0,0.0,0.0,0.0,0.0,0.0,0.0,0.0,0.0,0.0,0.0,0.0,0.0,0.0,0.0,0.0,0.0,0.0,0.0,0.0,0.0,0.0,0.0,0.0,0.0,0.0,0.0,0.0,0.0,0.0,0.0,0.0,0.0,0.0,0.0,0.0,0.0,0.0,1.7874,2.2793,2.5352,2.5527,2.3398,2.3027,1.9844,0.0,0.0,0.0,0.0,0.0,0.0,0.0,0.0,0.0,0.0,0.0,0.0,0.0,0.0,0.0,0.0,0.0,0.0,0.0,0.0,0.0,0.0,0.0,0.0,0.0,0.0,0.0,0.0,0.0,0.0,0.0,0.0,0.0,0.0,0.0,0.0,0.0,0.0,0.0,0.0,0.0,0.0,0.0,0.0,0.0,0.0,0.0,0.0,0.0,0.0,0.0,0.0,0.0,0.0,0.0,0.0,0.0,0.0,0.0,0.0,0.0,0.0,0.0,0.0,0.0,0.0,0.0,0.0,0.0,0.0,0.0,0.0,0.0,0.0,0.0,0.0,0.0,0.0,0.0,0.0,0.0,0.0,0.0,0.0,0.0,0.0,0.0,0.0,0.0,0.0,0.0,0.0,0.0,0.0,0.0,0.0,0.0,0.0,0.0,0.0,0.0,0.0,0.0,0.0,0.0,0.0,0.0,0.0,0.0,2.1249,2.2693,2.4531,2.6445,2.2018,1.964,0.0,0.0,0.0,0.0,0.0,0.0,0.0,0.0,0.0,0.0,0.0,0.0,0.0,0.0,0.0,0.0,0.0,0.0,0.0,0.0,0.0,0.0,0.0,0.0,0.0,0.0,0.0,0.0,0.0,0.0,0.0,0.0,0.0,0.0,0.0,0.0,0.0,0.0,0.0,0.0,0.0,0.0,0.0,0.0,0.0,0.0,0.0,0.0,0.0,0.0,0.0,0.0,0.0,0.0,0.0,0.0,0.0,0.0,0.0,0.0,0.0,0.0,0.0,0.0,0.0,0.0,0.0,0.0,0.0,0.0,0.0,0.0,0.0,0.0,0.0,0.0,0.0,0.0,0.0,0.0,0.0,0.0,0.0,0.0,0.0,0.0,0.0,0.0,0.0,0.0,0.0,0.0,0.0,0.0,0.0,0.0,0.0,0.0,0.0,0.0,0.0,0.0,0.0,0.0,0.0,0.0,0.0,0.0,0.0,2.3383,2.491,2.6387,2.7773,2.3254,2.0759,2.0634,0.0,0.0,0.0,0.0,0.0,0.0,0.0,0.0,0.0,0.0,0.0,0.0,0.0,0.0,0.0,0.0,0.0,0.0,0.0,0.0,0.0,0.0,0.0,0.0,0.0,0.0,0.0,0.0,0.0,0.0,0.0,0.0,0.0,0.0,0.0,0.0,0.0,0.0,0.0,0.0,0.0,0.0,0.0,0.0,0.0,0.0,0.0,0.0,0.0,0.0,0.0,0.0,0.0,0.0,0.0,0.0,0.0,0.0,0.0,0.0,0.0,0.0,0.0,0.0,0.0,0.0,0.0,0.0,0.0,0.0,0.0,0.0,0.0,0.0,0.0,0.0,0.0,0.0,0.0,0.0,0.0,0.0,0.0,0.0,0.0,0.0,0.0,0.0,0.0,0.0,0.0,0.0,0.0,0.0,0.0,0.0,0.0,0.0,0.0,0.0,0.0,0.0,0.0,0.0,0.0,0.0,0.0,0.0,2.8392,3.1031,3.0781,2.7539,2.6269,2.3031,0.0,0.0,0.0,0.0,0.0,0.0,0.0,0.0,0.0,0.0,0.0,0.0,0.0,0.0,0.0,0.0,0.0,0.0,0.0,0.0,0.0,0.0,0.0,0.0,0.0,0.0,0.0,0.0,0.0,0.0,0.0,0.0,0.0,0.0,0.0,0.0,0.0,0.0,0.0,0.0,0.0,0.0,0.0,0.0,0.0,0.0,0.0,0.0,0.0,0.0,0.0,0.0,0.0,0.0,0.0,0.0,0.0,0.0,0.0,0.0,0.0,0.0,0.0,0.0,0.0,0.0,0.0,0.0,0.0,0.0,0.0,0.0,0.0,0.0,0.0,0.0,0.0,0.0,0.0,0.0,0.0,0.0,0.0,0.0,0.0,0.0,0.0,0.0,0.0,0.0,0.0,0.0,0.0,0.0,0.0,0.0,0.0,0.0,0.0,0.0,0.0,0.0,0.0,0.0,0.0,0.0,0.0,0.0,0.0,3.1064,3.3668,3.3965,3.1719,2.7812,2.4952,0.0,0.0,0.0,0.0,0.0,0.0,0.0,0.0,0.0,0.0,0.0,0.0,0.0,0.0,0.0,0.0,0.0,0.0,0.0,0.0,0.0,0.0,0.0,0.0,0.0,0.0,0.0,0.0,0.0,0.0,0.0,0.0,0.0,0.0,0.0,0.0,0.0,0.0,0.0,0.0,0.0,0.0,0.0,0.0,0.0,0.0,0.0,0.0,0.0,0.0,0.0,0.0,0.0,0.0,0.0,0.0,0.0,0.0,0.0,0.0,0.0,0.0,0.0,0.0,0.0,0.0,0.0,0.0,0.0,0.0,0.0,0.0,0.0,0.0,0.0,0.0,0.0,0.0,0.0,0.0,0.0,0.0,0.0,0.0,0.0,0.0,0.0,0.0,0.0,0.0,0.0,0.0,0.0,0.0,0.0,0.0,0.0,0.0,0.0,0.0,0.0,0.0,0.0,0.0,0.0,0.0,0.0,0.0,2.8876,3.2591,3.5208,3.5898,3.4531,3.0898,2.7704,0.0,0.0,0.0,0.0,0.0,0.0,0.0,0.0,0.0,0.0,0.0,0.0,0.0,0.0,0.0,0.0,0.0,0.0,0.0,0.0,0.0,0.0,0.0,0.0,0.0,0.0,0.0,0.0,0.0,0.0,0.0,0.0,0.0,0.0,0.0,0.0,0.0,0.0,0.0,0.0,0.0,0.0,0.0,0.0,0.0,0.0,0.0,0.0,0.0,0.0,0.0,0.0,0.0,0.0,0.0,0.0,0.0,0.0,0.0,0.0,0.0,0.0,0.0,0.0,0.0,0.0,0.0,0.0,0.0,0.0,0.0,0.0,0.0,0.0,0.0,0.0,0.0,0.0,0.0,0.0,0.0,0.0,0.0,0.0,0.0,0.0,0.0,0.0,0.0,0.0,0.0,0.0,0.0,0.0,0.0,0.0,0.0,0.0,0.0,0.0,0.0,0.0,0.0,0.0,0.0,0.0,0.0,0.0,3.0609,3.3496,3.6152,3.7148,3.6269,3.4394,3.0704,0.0,0.0,0.0,0.0,0.0,0.0,0.0,0.0,0.0,0.0,0.0,0.0,0.0,0.0,0.0,0.0,0.0,0.0,0.0,0.0,0.0,0.0,0.0,0.0,0.0,0.0,0.0,0.0,0.0,0.0,0.0,0.0,0.0,0.0,0.0,0.0,0.0,0.0,0.0,0.0,0.0,0.0,0.0,0.0,0.0,0.0,0.0,0.0,0.0,0.0,0.0,0.0,0.0,0.0,0.0,0.0,0.0,0.0,0.0,0.0,0.0,0.0,0.0,0.0,0.0,0.0,0.0,0.0,0.0,0.0,0.0,0.0,0.0,0.0,0.0,0.0,0.0,0.0,0.0,0.0,0.0,0.0,0.0,0.0,0.0,0.0,0.0,0.0,0.0,0.0,0.0,0.0,0.0,0.0,0.0,0.0,0.0,0.0,0.0,0.0,0.0,0.0,0.0,0.0,0.0,0.0,0.0,0.0,3.1605,3.498,3.7754,3.8828,3.8047,3.5019,3.1495,0.0,0.0,0.0,0.0,0.0,0.0,0.0,0.0,0.0,0.0,0.0,0.0,0.0,0.0,0.0,0.0,0.0,0.0,0.0,0.0,0.0,0.0,0.0,0.0,0.0,0.0,0.0,0.0,0.0,0.0,0.0,0.0,0.0,0.0,0.0,0.0,0.0,0.0,0.0,0.0,0.0,0.0,0.0,0.0,0.0,0.0,0.0,0.0,2.1936,0.0,0.0,0.0,0.0,0.0,0.0,0.0,0.0,0.0,0.0,0.0,0.0,0.0,0.0,0.0,0.0,0.0,0.0,0.0,0.0,0.0,0.0,0.0,0.0,0.0,0.0,0.0,0.0,0.0,0.0,0.0,0.0,0.0,0.0,0.0,0.0,0.0,0.0,0.0,0.0,0.0,0.0,0.0,0.0,0.0,0.0,0.0,0.0,0.0,0.0,0.0,0.0,0.0,0.0,0.0,0.0,0.0,0.0,0.0,3.2651,3.5891,3.8246,3.916,3.8457,3.5996,3.2576,0.0,0.0,0.0,0.0,0.0,0.0,0.0,0.0,0.0,0.0,0.0,0.0,0.0,0.0,0.0,0.0,0.0,0.0,0.0,0.0,0.0,0.0,0.0,0.0,0.0,0.0,0.0,0.0,0.0,0.0,0.0,0.0,0.0,0.0,0.0,0.0,0.0,0.0,0.0,0.0,0.0,0.0,0.0,0.0,0.0,0.0,0.0,0.0,0.0,0.0,0.0,0.0,0.0,0.0,0.0,0.0,0.0,0.0,0.0,0.0,0.0,0.0,0.0,0.0,0.0,0.0,0.0,0.0,0.0,0.0,0.0,0.0,0.0,0.0,0.0,0.0,0.0,0.0,0.0,0.0,0.0,0.0,0.0,0.0,0.0,0.0,0.0,0.0,0.0,0.0,0.0,0.0,0.0,0.0,0.0,0.0,0.0,0.0,0.0,0.0,0.0,0.0,0.0,0.0,0.0,0.0,0.0,2.92,3.3175,3.64,3.813,3.8783,3.8398,3.6699,3.3398,2.8412,0.0,0.0,0.0,0.0,0.0,0.0,0.0,0.0,0.0,0.0,0.0,0.0,0.0,0.0,0.0,0.0,0.0,0.0,0.0,0.0,0.0,0.0,0.0,0.0,0.0,0.0,0.0,0.0,0.0,0.0,0.0,0.0,0.0,0.0,0.0,0.0,0.0,0.0,1.9644,2.1901,0.0,0.0,0.0,0.0,0.0,0.0,0.0,0.0,2.2824,0.0,0.0,0.0,0.0,0.0,0.0,0.0,0.0,0.0,0.0,0.0,0.0,0.0,0.0,0.0,0.0,0.0,0.0,0.0,0.0,0.0,0.0,0.0,0.0,0.0,0.0,0.0,0.0,0.0,0.0,0.0,0.0,0.0,0.0,0.0,0.0,0.0,0.0,0.0,0.0,0.0,0.0,0.0,0.0,0.0,0.0,0.0,0.0,0.0,0.0,0.0,0.0,0.0,0.0,0.0,0.0,2.6764,2.8646,3.189,3.6539,3.7504,3.8089,3.832,3.6094,3.2741,2.8392,0.0,0.0,0.0,0.0,0.0,0.0,0.0,0.0,0.0,0.0,0.0,0.0,0.0,0.0,0.0,0.0,0.0,0.0,0.0,0.0,0.0,0.0,0.0,0.0,0.0,0.0,0.0,0.0,0.0,0.0,0.0,0.0,0.0,0.0,0.0,0.0,0.0,0.0,0.0,2.3253,2.4394,0.0,0.0,0.0,0.0,0.0,0.0,0.0,0.0,2.3784,0.0,0.0,0.0,0.0,0.0,0.0,0.0,0.0,0.0,0.0,0.0,0.0,0.0,0.0,0.0,0.0,0.0,0.0,0.0,0.0,0.0,0.0,0.0,0.0,0.0,0.0,0.0,0.0,0.0,0.0,0.0,0.0,0.0,0.0,0.0,0.0,0.0,0.0,0.0,0.0,0.0,0.0,0.0,0.0,0.0,0.0,0.0,0.0,0.0,0.0,0.0,0.0,0.0,0.0,0.0,2.6138,2.9142,3.2305,3.5595,3.6876,3.7464,3.7354,3.4679,3.162,0.0,0.0,0.0,0.0,0.0,0.0,0.0,0.0,0.0,0.0,0.0,0.0,0.0,0.0,0.0,0.0,0.0,0.0,0.0,0.0,0.0,0.0,0.0,0.0,0.0,0.0,0.0,0.0,0.0,0.0,0.0,0.0,0.0,0.0,0.0,0.0,0.0,0.0,0.0,0.0,2.3918,2.4709,2.5243,0.0,0.0,0.0,0.0,0.0,0.0,2.4686,2.4211,0.0,0.0,0.0,0.0,0.0,0.0,0.0,0.0,0.0,0.0,0.0,0.0,0.0,0.0,0.0,0.0,0.0,0.0,0.0,0.0,0.0,0.0,0.0,0.0,0.0,0.0,0.0,0.0,0.0,0.0,0.0,0.0,0.0,0.0,0.0,0.0,0.0,0.0,0.0,0.0,0.0,0.0,0.0,0.0,0.0,0.0,0.0,0.0,0.0,0.0,0.0,0.0,0.0,0.0,0.0,2.5056,2.9191,3.2381,3.4614,3.5974,3.6597,3.6366,3.3374,3.0481,0.0,0.0,0.0,0.0,0.0,0.0,0.0,0.0,0.0,0.0,0.0,0.0,0.0,0.0,0.0,0.0,0.0,0.0,0.0,0.0,0.0,0.0,0.0,0.0,0.0,0.0,0.0,0.0,0.0,0.0,0.0,0.0,0.0,0.0,0.0,0.0,0.0,0.0,0.0,0.0,0.0,2.5497,2.5775,2.543,0.0,0.0,0.0,0.0,2.6182,2.5899,0.0,0.0,0.0,0.0,0.0,0.0,0.0,0.0,0.0,0.0,0.0,0.0,0.0,0.0,0.0,0.0,0.0,0.0,0.0,0.0,0.0,0.0,0.0,0.0,0.0,0.0,0.0,0.0,0.0,0.0,0.0,0.0,0.0,0.0,0.0,0.0,0.0,0.0,0.0,0.0,0.0,0.0,0.0,0.0,0.0,0.0,0.0,0.0,0.0,0.0,0.0,0.0,0.0,0.0,0.0,0.0,2.4492,2.7179,3.0409,3.405,3.4456,3.5058,3.6064,3.2924,2.9716,0.0,0.0,0.0,0.0,0.0,0.0,0.0,0.0,0.0,0.0,0.0,0.0,0.0,0.0,0.0,0.0,0.0,0.0,0.0,0.0,0.0,0.0,0.0,0.0,0.0,0.0,0.0,0.0,0.0,0.0,0.0,0.0,0.0,0.0,0.0,0.0,0.0,0.0,0.0,0.0,0.0,2.7987,2.6759,2.7058,2.7435,0.0,0.0,2.769,2.8506,2.9063,0.0,0.0,0.0,0.0,0.0,0.0,0.0,0.0,0.0,0.0,0.0,0.0,0.0,0.0,0.0,0.0,0.0,0.0,0.0,0.0,0.0,0.0,0.0,0.0,0.0,0.0,0.0,0.0,0.0,0.0,0.0,0.0,0.0,0.0,0.0,0.0,0.0,0.0,0.0,0.0,0.0,0.0,0.0,0.0,0.0,0.0,0.0,0.0,0.0,0.0,0.0,0.0,0.0,0.0,0.0,2.0518,2.4452,2.7707,3.0612,3.3158,3.386,3.4218,3.4327,3.124,2.8283,0.0,0.0,0.0,0.0,0.0,0.0,0.0,0.0,0.0,0.0,0.0,0.0,0.0,0.0,0.0,0.0,0.0,0.0,0.0,0.0,0.0,0.0,0.0,0.0,0.0,0.0,0.0,0.0,0.0,0.0,0.0,0.0,0.0,0.0,0.0,0.0,0.0,0.0,0.0,0.0,0.0,0.0,2.8582,2.8879,0.0,0.0,0.0,2.935,3.0153,0.0,0.0,0.0,0.0,0.0,0.0,0.0,0.0,0.0,0.0,0.0,0.0,0.0,0.0,0.0,0.0,0.0,0.0,0.0,0.0,0.0,0.0,0.0,0.0,0.0,0.0,0.0,0.0,0.0,0.0,0.0,0.0,0.0,0.0,0.0,0.0,0.0,0.0,0.0,0.0,0.0,0.0,0.0,0.0,0.0,0.0,0.0,0.0,0.0,0.0,0.0,0.0,0.0,0.0,0.0,0.0,0.0,2.4332,2.806,3.0765,3.2446,3.3469,3.3636,3.2873,3.0051,0.0,0.0,0.0,0.0,0.0,0.0,0.0,0.0,0.0,0.0,0.0,0.0,0.0,0.0,0.0,0.0,0.0,0.0,0.0,0.0,0.0,0.0,0.0,0.0,0.0,0.0,0.0,1.0762,0.0,0.0,0.0,0.0,0.0,0.0,0.0,0.0,0.0,0.0,0.0,0.0,0.0,0.0,2.8795,2.9961,3.0578,3.114,0.0,0.0,3.1055,3.1404,3.0891,2.9553,0.0,0.0,0.0,0.0,0.0,0.0,0.0,0.0,0.0,0.0,0.0,0.0,0.0,0.0,0.0,0.0,0.0,0.0,0.0,0.0,0.0,0.0,0.0,0.0,0.0,0.0,0.0,0.0,0.0,0.0,0.0,0.0,0.0,0.0,0.0,0.0,0.0,0.0,0.0,0.0,0.0,0.0,0.0,0.0,0.0,0.0,0.0,0.0,0.0,0.0,0.0,0.0,0.0,0.0,0.0,2.3998,2.7317,3.0145,3.2413,3.3014,3.3065,3.2577,3.0257,2.7405,0.0,0.0,0.0,0.0,0.0,0.0,0.0,0.0,0.0,0.0,0.0,0.0,0.0,0.0,0.0,0.0,0.0,0.0,0.0,0.0,0.0,0.0,0.0,0.0,0.0,0.0,0.0,0.0,0.0,0.0,0.0,0.0,0.0,0.0,0.0,0.0,0.0,0.0,0.0,0.0,0.0,2.9995,3.0063,3.185,3.3203,0.0,0.0,3.2944,3.233,3.3262,3.2473,2.7538,0.0,0.0,0.0,0.0,0.0,0.0,0.0,0.0,0.0,0.0,0.0,0.0,0.0,0.0,0.0,0.0,0.0,0.0,0.0,0.0,0.0,0.0,0.0,0.0,0.0,0.0,0.0,0.0,0.0,0.0,0.0,0.0,0.0,0.0,0.0,0.0,0.0,0.0,0.0,0.0,0.0,0.0,0.0,0.0,0.0,0.0,0.0,0.0,0.0,0.0,0.0,0.0,0.0,1.9423,2.3401,2.7039,2.99,3.1882,3.2781,3.2777,3.188,3.0246,2.7634,0.0,0.0,0.0,0.0,0.0,0.0,0.0,0.0,0.0,0.0,0.0,0.0,0.0,0.0,0.0,0.0,0.0,0.0,0.0,0.0,0.0,0.0,0.0,0.0,0.0,0.0,0.0,0.0,1.5508,1.6693,1.8632,0.0,0.0,0.0,0.0,0.0,0.0,0.0,0.0,0.0,0.0,3.1781,3.2681,3.3929,0.0,0.0,3.4381,3.426,3.4758,3.3499,3.1734,2.9575,2.7402,0.0,0.0,0.0,0.0,0.0,0.0,0.0,0.0,0.0,0.0,0.0,0.0,0.0,0.0,0.0,0.0,0.0,0.0,0.0,0.0,0.0,0.0,0.0,0.0,0.0,0.0,0.0,0.0,0.0,0.0,0.0,0.0,0.0,0.0,0.0,0.0,0.0,0.0,0.0,0.0,0.0,0.0,0.0,0.0,0.0,0.0,0.0,0.0,0.0,0.0,0.0,0.0,1.8863,2.2929,2.6426,2.9248,3.1364,3.2316,3.224,3.1066,3.0006,2.7665,0.0,0.0,0.0,0.0,0.0,0.0,0.0,0.0,0.0,0.0,0.0,0.0,0.0,0.0,0.0,0.0,0.0,0.0,0.0,0.0,0.0,0.0,0.0,0.0,0.0,0.0,0.0,0.0,1.7248,1.8129,1.8556,0.0,0.0,0.0,0.0,0.0,0.0,0.0,0.0,0.0,0.0,3.3068,3.4525,3.5514,3.6011,3.5854,3.5403,3.5194,3.5476,3.3825,3.207,3.0818,0.0,0.0,0.0,0.0,0.0,0.0,0.0,0.0,0.0,0.0,0.0,0.0,0.0,0.0,0.0,0.0,0.0,0.0,0.0,0.0,0.0,0.0,0.0,0.0,0.0,0.0,0.0,0.0,0.0,0.0,0.9194,0.0,0.0,0.0,0.0,0.0,0.0,0.0,0.0,0.0,0.0,0.0,0.0,0.0,0.0,0.0,0.0,0.0,0.0,0.0,0.0,0.0,0.0,1.8488,2.2545,2.5268,2.8001,3.0813,3.1499,3.1341,3.0251,2.9455,2.7437,2.405,0.0,0.0,0.0,0.0,0.0,0.0,0.0,0.0,0.0,0.0,0.0,0.0,0.0,0.0,0.0,0.0,0.0,0.0,0.0,0.0,0.0,0.0,0.0,0.0,0.0,0.0,1.753,1.9162,1.9345,0.0,0.0,0.0,0.0,0.0,0.0,0.0,0.0,0.0,0.0,3.1987,3.3647,3.5134,3.6369,3.6974,3.6468,3.6377,3.57,3.3947,3.4601,3.4298,0.0,0.0,0.0,0.0,0.0,0.0,0.0,0.0,0.0,0.0,0.0,0.0,0.0,0.0,0.0,0.0,0.0,0.0,0.0,0.0,0.0,0.0,0.0,0.0,0.0,0.0,0.0,1.3813,1.2061,0.0,0.0,0.0,0.0,0.0,0.0,0.0,0.0,0.0,0.0,0.0,1.7258,1.7598,0.0,0.0,0.0,0.0,0.0,0.0,0.0,0.0,0.0,0.0,0.0,0.0,1.8908,2.2565,2.5172,2.771,3.022,3.0898,3.0886,3.0203,2.9685,2.7351,2.301,0.0,0.0,0.0,0.0,0.0,0.0,0.0,0.0,0.0,0.0,0.0,0.0,0.0,0.0,0.0,0.0,0.0,0.0,0.0,0.0,0.0,0.0,0.0,0.0,0.0,1.6748,0.0,0.0,0.0,0.0,0.0,0.0,0.0,0.0,0.0,0.0,0.0,3.0128,3.2004,3.4134,3.5865,3.665,3.7265,3.7611,0.0,0.0,0.0,0.0,0.0,0.0,0.0,0.0,0.0,0.0,0.0,0.0,0.0,0.0,3.092,2.6641,2.5378,2.4997,2.493,0.0,0.0,0.0,0.0,0.0,0.0,0.0,0.0,0.0,0.0,0.0,0.0,0.0,0.0,1.6533,0.0,1.4673,0.0,0.0,0.0,0.0,0.0,0.0,0.0,0.0,1.7319,1.8323,1.9457,1.9546,1.9904,0.0,2.0674,1.9655,0.0,0.0,0.0,0.0,0.0,0.0,0.0,0.0,1.9526,2.2649,2.4981,2.7232,2.9387,3.0286,3.0294,2.9505,2.8665,2.6706,2.3545,2.1769,2.0238,0.0,0.0,0.0,0.0,0.0,0.0,0.0,0.0,0.0,0.0,0.0,0.0,0.0,0.0,0.0,0.0,0.0,0.0,0.0,0.0,0.0,0.0,0.0,1.7821,0.0,0.0,0.0,0.0,0.0,0.0,0.0,0.0,0.0,2.6294,2.9661,3.2593,3.4454,3.6454,3.7854,3.8157,0.0,0.0,0.0,0.0,0.0,0.0,0.0,3.5617,3.6406,3.4168,3.2161,3.1921,3.2839,3.3291,3.239,0.0,0.0,2.9386,2.8129,2.7772,2.8076,2.867,2.9029,2.8773,2.958,3.0235,0.0,0.0,0.0,0.0,0.0,0.0,0.0,0.0,2.0084,2.0166,0.0,1.8322,0.0,0.0,0.0,0.0,0.0,1.7354,0.0,0.0,2.0206,2.0934,2.092,2.0922,2.0936,2.1063,2.2591,2.2601,2.1178,1.8482,0.0,0.0,0.0,0.0,0.0,0.0,2.0365,2.2742,2.4672,2.6594,2.8449,2.9629,2.956,2.8168,2.6535,2.5659,2.5507,2.3545,2.204,2.1228,1.8426,0.0,0.0,0.0,0.0,0.0,0.0,0.0,0.0,0.0,0.0,0.0,0.0,0.0,0.0,0.0,0.0,0.0,0.0,0.0,0.0,1.8283,0.0,0.0,0.0,0.0,0.0,0.0,0.0,0.0,0.0,0.0,2.9575,3.1374,3.3812,3.7137,0.0,0.0,0.0,0.0,3.9765,3.8814,3.8674,3.8258,3.7143,3.8031,3.842,3.7144,0.0,0.0,3.3299,3.4222,3.4637,3.2168,3.3336,3.4512,3.4429,3.2637,3.1452,3.1465,3.1024,3.0919,3.1437,3.2038,3.2709,2.3322,0.0,0.0,0.0,0.0,2.1519,2.268,2.4477,2.3719,2.3262,2.2913,2.0354,0.0,0.0,0.0,0.0,0.0,0.0,1.9513,2.0502,2.1178,2.1499,2.147,2.1473,2.1956,2.2915,2.3361,2.3629,2.3558,2.2277,2.0189,1.7496,0.0,0.0,0.0,0.0,2.2159,2.4029,2.5571,2.7016,2.8463,2.8826,2.8734,2.8089,2.6987,2.6133,2.5625,2.5,2.3833,2.2073,2.0653,0.0,0.0,0.0,0.0,0.0,0.0,0.0,0.0,0.0,0.0,0.0,0.0,0.0,0.0,0.0,0.0,0.0,0.0,0.0,1.843,1.9592,2.0679,0.0,0.0,0.0,0.0,0.0,0.0,0.0,0.0,0.0,3.3921,3.5382,3.6827,0.0,0.0,3.9294,3.9591,3.949,3.9435,3.9606,0.0,0.0,0.0,3.8622,3.8422,3.9023,3.8391,3.7109,3.5031,3.5149,3.5265,3.4457,3.4831,3.5194,3.513,3.4014,3.2991,3.2946,3.3141,3.3366,3.3604,3.4193,3.4658,2.5923,2.3674,2.2888,2.3262,2.4409,2.453,2.5475,2.6828,2.6086,2.552,2.5005,2.3184,2.1726,2.064,1.9542,0.0,0.0,0.0,2.1124,2.1835,2.2253,2.2425,2.2484,2.2706,2.3256,2.4034,2.4344,2.4616,2.497,2.4258,2.2775,2.0587,0.0,0.0,1.9753,2.1676,2.3288,2.454,2.5905,2.7082,2.8125,2.7843,2.7782,2.8073,2.7028,2.6185,2.561,2.5304,2.4408,2.2801,2.1735,1.995,0.0,0.0,0.0,0.0,0.0,0.0,0.0,0.0,0.0,0.0,0.0,1.1923,1.0573,0.0,0.0,0.0,1.5513,1.8247,2.1737,2.2876,0.0,0.0,0.0,0.0,0.0,0.0,0.0,3.1907,3.3746,3.5412,3.662,3.7952,3.8935,3.9423,3.9631,3.9834,4.013,0.0,3.9834,4.0054,4.0087,4.0087,4.007,3.9087,3.8424,3.8656,3.7968,3.6935,3.5733,3.5489,3.5489,3.5489,3.5489,3.5489,3.5489,3.4831,3.4292,3.4307,3.464,3.488,3.4876,3.522,3.5489,2.7809,2.7731,2.7311,2.715,2.727,2.7556,2.7695,2.7681,2.7411,2.7043,2.6604,2.6218,2.5262,2.3922,2.3045,0.0,2.1403,2.2686,2.3031,2.2772,2.3385,2.3626,2.3627,2.4283,2.4581,2.4594,2.5188,2.5548,2.5622,2.4936,2.4261,2.3549,2.2242,2.1363,2.0964,2.2706,2.3966,2.4702,2.6012,2.701,2.758,2.6826,2.6871,2.7938,2.6595,2.5758,2.5479,2.4818,2.4107,2.3363,2.209,2.0495,1.8562,0.0,0.0,0.0,0.0,0.0,0.0,0.0,0.0,0.0,0.0,0.0,0.0,0.0,0.0,0.0,1.9763,0.0,2.585,2.7304,0.0,0.0,0.0,3.1427,3.1749,3.3559,3.4806,3.4917,0.0,0.0,3.8187,0.0,4.0256,4.0679,4.0815,4.0832,4.0832,4.0781,4.0646,4.0054,3.9969,3.9952,3.9782,3.9166,3.827,3.7088,3.6596,3.6353,3.5668,3.5489,3.5489,3.5489,3.5489,3.5489,3.5489,3.5444,3.5489,3.5429,3.5459,3.5474,3.5459,3.5474,3.5489,2.9422,2.9408,2.93,2.8597,2.757,2.8235,2.8515,2.8493,2.8297,2.8012,2.7639,2.626,2.4938,2.3731,2.3224,2.2921,2.2833,2.2829,2.3032,2.34,2.4073,2.4088,2.3722,2.4349,2.4609,2.4535,2.469,2.5274,2.6191,2.5562,2.4852,2.4281,2.3825,2.3336,2.2909,2.429,2.5407,2.609,2.6942,2.746,2.7565,2.6826,2.6554,2.68,2.539,2.4612,2.4525,2.4232,2.3684,2.292,2.2874,2.2017,2.0124,1.8194,0.0,0.0,0.0,0.0,0.0,0.0,0.0,0.0,0.0,1.6504,1.3346,0.0,1.9319,0.0,2.312,2.6375,2.8626,2.988,0.0,0.0,3.4545,3.5109,3.6736,3.7369,3.7782,3.7925,3.8939,3.9615,3.9615,3.9868,3.9885,3.9446,3.9885,4.0273,4.0273,4.0273,4.0019,3.9351,3.9207,3.897,3.8492,3.8173,3.7767,3.6782,3.6582,3.6384,3.5604,3.5489,3.5489,3.5489,3.5489,3.5489,3.5489,3.5489,3.5489,3.5489,3.5489,3.5489,3.5489,3.5489,3.5489,3.0103,2.9999,2.9999,2.9421,2.8597,2.9224,2.9429,2.9313,2.9115,2.8801,2.831,2.6659,2.5459,2.459,2.3962,2.3593,2.3401,2.3197,2.3445,2.4073,2.4418,2.4381,2.4077,2.476,2.502,2.4934,2.4896,2.5432,2.6428,2.5742,2.5066,2.4449,2.4676,2.4627,2.4362,2.5071,2.5792,2.6556,2.7229,2.756,2.758,2.6606,2.603,2.5914,2.4876,2.3957,2.3301,2.3618,2.3292,2.2271,2.2664,2.2341,2.111,1.9386,1.8003,0.0,0.0,0.0,0.0,0.0,0.0,0.0,0.0,0.0,0.0,0.0,2.2489,2.3693,2.7239,3.0359,3.2674,3.4268,3.6113,3.8434,3.8375,3.8545,3.9456,3.9625,3.9646,3.9525,3.9513,3.9573,3.9578,3.9268,3.8937,3.8474,3.8805,3.9053,3.908,3.9056,3.8891,3.8477,3.84,3.8154,3.7367,3.7241,3.7006,3.6321,3.6091,3.5943,3.5554,3.5489,3.5489,3.5489,3.5489,3.5489,3.5489,3.5489,3.5489,3.5489,3.5489,3.5489,3.5489,3.5489,3.5374,3.0209,2.9999,2.995,2.9861,2.9712,3.0142,3.0169,2.9908,2.9748,2.9283,2.8609,2.7139,2.6217,2.5651,2.4823,2.4116,2.3595,2.3699,2.4059,2.4582,2.4655,2.4684,2.4661,2.5191,2.544,2.5351,2.5285,2.5618,2.6162,2.5563,2.4964,2.4509,2.5077,2.5453,2.5563,2.5453,2.5797,2.651,2.7152,2.7524,2.7545,2.6363,2.5636,2.5426,2.4621,2.3499,2.2134,2.2912,2.2851,2.1658,2.2102,2.2161,2.1653,2.0414,1.9414,0.0,1.7506,0.0,0.0,0.0,0.0,0.0,0.0,0.0,0.0,2.4315,2.6619,2.8574,3.1611,3.4465,3.6946,3.8992,4.0606,4.1606,4.1669,4.1346,4.0837,4.076,4.0556,4.0002,3.9229,3.8737,3.8717,3.819,3.7792,3.7681,3.7664,3.7652,3.7527,3.7744,3.7882,3.7713,3.754,3.715,3.6608,3.6473,3.629,3.5653,3.5539,3.5489,3.5489,3.5489,3.5489,3.5489,3.5489,3.5489,3.5489,3.5489,3.5489,3.5489,3.5359,3.5279,3.5424,3.5309,3.5045,3.0061,2.9965,2.9829,2.9748,2.9713,2.9799,2.9715,2.9513,2.9455,2.8915,2.8012,2.696,2.606,2.5265,2.4657,2.4116,2.3625,2.4178,2.4462,2.4627,2.5102,2.5329,2.5322,2.5359,2.5108,2.4563,2.4513,2.4567,2.4738,2.4567,2.4738,2.5175,2.5342,2.5673,2.6229,0.0,0.0,0.0,2.6616,2.6982,2.7545,2.6811,2.6141,2.5544,2.3917,0.0,2.1827,2.1755,2.1647,2.1412,2.2346,0.0,0.0,0.0,0.0,0.0,0.0,0.0,0.0,0.0,0.0,0.0,2.3874,2.4371,2.4233,2.8417,3.1556,3.2669,3.5508,3.7936,3.9491,4.0942,4.2032,4.2496,4.2504,4.2225,4.1623,4.0637,3.9765,3.9194,3.8499,3.7982,3.7951,3.7878,3.7514,3.6806,3.6845,3.66,3.5978,3.6948,3.7478,3.6967,3.643,3.594,3.5724,3.5729,3.5733,3.5504,3.5489,3.5489,3.5489,3.5489,3.5489,3.5489,3.5489,3.5489,3.5489,3.5489,3.5504,3.5504,3.4854,3.4543,3.5294,3.4823,3.4235,3.0122,0.0,2.9893,2.9748,0.0,2.9551,2.9297,2.8925,2.9045,2.8413,2.7151,2.6251,2.5459,2.4792,2.3918,2.342,2.3172,2.3496,2.377,2.4129,2.4666,2.4945,2.4928,2.526,2.5021,2.4292,2.4279,2.4279,2.4279,2.4279,2.4509,2.4851,2.5577,2.6122,2.6443,2.5797,2.5797,2.6496,2.6496,2.6878,2.7545,2.6931,2.6108,2.5151,0.0,0.0,0.0,0.0,0.0,0.0,0.0,0.0,0.0,0.0,0.0,2.2483,2.2207,2.2267,2.2762,2.3128,2.3842,2.5032,2.7225,2.831,2.7612,3.1299,3.4148,3.5449,3.7972,3.9996,4.1159,4.2249,4.2845,4.2759,4.2487,4.1919,4.0909,3.9934,3.9116,3.8346,3.7261,3.652,3.6507,3.5666,3.5142,3.4727,3.4594,3.4559,3.4312,3.5563,3.6446,3.6136,3.577,3.5489,3.5489,3.5489,3.5489,3.5489,3.5489,3.5489,3.5489,3.5489,3.5489,3.5489,3.5489,3.5489,3.5489,3.5489,3.5594,3.5813,3.5175,3.4755,3.5439,3.4433,3.3157,3.0013,2.9893,2.9861,2.9624,2.933,2.927,2.8777,2.8085,0.0,0.0,0.0,2.5512,2.4768,2.4184,2.3172,2.2572,2.2352,2.2498,2.2862,2.3434,2.3906,2.4227,2.4337,2.4781,2.4667,2.4118,2.4118,2.406,2.406,2.4118,2.4176,2.4408,2.5618,2.639,2.6443,2.5618,2.5618,2.6457,2.639,2.6707,2.756,2.7036,2.6183,2.5001,2.4866,2.394,2.2293,2.3067,2.3268,2.2747,2.321,2.3613,2.3967,2.3838,2.4143,2.5062,2.4908,2.5088,2.5749,2.5789,2.6216,2.7233,3.005,3.1581,3.1064,3.351,3.574,3.7408,3.9478,4.1121,4.2102,4.29,4.3142,4.262,4.1864,4.1,3.9917,3.8987,3.8149,3.7319,3.5983,3.4934,3.4697,3.3591,3.2626,3.2652,3.2845,3.2593,3.2806,3.3969,3.491,3.4842,3.4765,3.4898,3.494,3.4867,3.4949,3.4836,3.5035,3.5249,3.5255,3.5365,3.5489,3.5489,3.5489,3.5489,3.5504,3.5644,3.5804,3.6157,3.5456,3.4868,3.5096,3.381,3.2314,2.9221,2.9455,2.9249,2.9115,2.9021,2.8688,2.7885,2.6783,2.683,2.6702,2.6438,2.5102,2.4213,2.36,2.2995,2.2072,2.0972,2.1891,2.2485,0.0,2.3018,2.3612,2.4234,2.3708,2.3365,2.3245,2.3245,2.3245,2.3245,2.3245,2.359,2.435,2.5133,2.5892,2.6351,2.5119,2.5119,2.6457,2.5892,2.6215,2.756,2.7535,2.7081,2.6348,2.5764,2.5091,2.4268,2.4327,2.4387,2.4312,2.4882,2.5017,2.4565,2.4987,2.5122,2.4777,2.5212,2.5726,2.6406,2.6455,2.7497,2.9821,3.1541,3.2628,3.3165,3.5211,3.7053,3.8399,3.9869,4.0991,4.1777,4.2447,4.2559,4.1913,4.0799,3.9999,3.9649,3.806,3.6604,3.5716,3.4756,3.3789,3.3105,3.2676,3.2409,3.2498,3.2327,3.2522,3.2494,3.2793,3.2976,3.3048,3.3022,3.3026,3.3211,3.306,3.3157,3.2998,3.3752,3.422,3.4375,3.4887,3.535,3.5489,3.5489,3.5504,3.5439,3.5984,3.5829,3.5409,3.4781,3.4321,3.3745,3.2526,3.1768,2.8791,2.8938,2.8823,2.868,2.8524,2.771,2.6894,2.6062,2.5579,2.5389,2.526,2.4312,2.3387,2.2431,2.15,2.0278,1.8915,1.9527,1.9898,2.005,2.063,2.1424,2.2311,2.2797,2.2809,2.2506,2.3323,2.3539,2.3125,2.3125,2.3471,2.4292,2.5007,2.5563,2.5797,2.4851,2.5007,2.6457,2.5783,2.6108,2.756,2.756,2.7245,2.6602,2.6273,2.5839,2.5181,2.5166,2.5151,2.5166,2.545,2.563,2.5704,2.5974,2.6183,2.6225,2.6527,2.6807,2.7125,2.7488,2.8845,3.1423,3.2251,3.321,3.458,3.6363,3.7746,3.8668,4.0001,4.1104,4.1732,4.208,4.1817,4.0799,4.0163,3.9324,3.8156,3.6808,3.552,3.4585,3.3293,3.2291,3.1887,3.1402,3.1057,3.1057,3.1044,3.1132,3.1132,3.1101,3.1473,3.2347,3.2612,3.2618,3.2545,3.2617,3.2635,3.2581,3.2942,3.3421,3.3842,3.4454,3.4872,3.5365,3.5489,3.5279,3.4854,3.5228,3.5228,3.4867,3.4258,3.391,3.3634,3.2508,3.1369,2.8016,2.8073,2.8073,2.7843,2.7349,2.6335,2.5592,2.5013,2.4281,2.393,2.3761,2.3462,2.2586,2.1288,2.0008,1.8512,1.7104,1.7106,1.7216,1.7451,1.841,1.9391,2.0406,2.1761,2.2177,2.1779,2.2912,2.3234,2.2871,2.2823,2.3352,2.4221,2.4667,2.5063,2.5412,2.4496,2.4838,2.6336,2.5797,2.6108,2.7524,2.756,2.732,2.6856,2.6811,2.6572,2.6093,2.6048,2.6048,2.6063,2.6048,2.6288,2.6767,2.6811,2.7051,2.755,2.756,2.7649,2.7844,2.8553,3.0031,3.2396,3.2736,3.36,3.5441,3.7009,3.8061,3.8618,3.9974,4.1024,4.1268,4.1323,4.0863,3.9716,3.9013,3.8003,3.6507,3.5284,3.431,3.3355,3.2105,3.1189,3.0855,3.0291,2.9869,2.9934,2.9779,2.9779,2.9779,2.9779,3.0508,3.1415,3.1974,3.185,3.1964,3.192,3.1869,3.196,3.2173,3.25,3.3115,3.3475,3.3885,3.4507,3.4773,3.4409,3.3891,3.4303,3.4505,3.4126,3.3963,3.3949,3.3488,3.2091,3.0778,2.6202,2.6482,2.643,2.5966,2.5033,2.4397,2.362,2.2849,2.2672,2.2415,2.2058,2.2529,2.1967,2.0597,1.9194,1.7434,1.5532,1.5438,1.5515,1.5798,1.7272,1.8465,1.9316,2.0344,2.0791,2.0749,2.0991,2.1463,2.2002,2.2063,2.2774,2.4047,2.3649,2.4034,2.5063,2.393,2.431,2.639,2.5797,2.6108,2.7509,2.756,2.7595,2.755,2.747,2.7505,2.7305,2.738,2.738,2.738,2.735,2.7445,2.7505,2.752,2.75,2.756,2.7625,2.7844,2.8517,2.9618,3.093,3.2456,3.3118,3.4055,3.5446,3.6945,3.7889,3.8269,3.9718,4.0603,4.0336,4.0084,3.9665,3.8755,3.7058,3.5558,3.519,3.383,3.247,3.1523,3.1328,3.0921,3.0151,2.9907,2.9792,2.9779,2.9674,2.9584,2.9546,2.9456,2.9586,2.9973,3.0062,3.0088,3.0175,3.0099,3.0279,3.0279,3.0803,3.1382,3.1806,3.229,3.2806,3.3295,3.3115,3.3031,3.3142,3.3578,3.4038,3.3426,3.3476,3.3862,3.2101,3.0481,2.9839,2.3733,2.3816,2.3427,2.2793,2.2162,2.1882,2.1389,2.0748,2.0713,2.0828,2.0944,2.0539,1.9961,1.9321,1.7481,1.5593,1.4005,1.3562,1.3518,1.3728,1.474,1.5958,1.7368,1.8476,1.928,1.9846,2.0325,2.0772,2.1146,2.1628,2.2494,2.3471,2.3258,2.3412,2.3917,2.3412,2.4047,2.5797,2.5563,2.6108,2.7408,2.756,2.756,2.756,2.756,2.756,2.756,2.756,2.756,2.756,2.756,2.756,2.756,2.756,2.756,2.764,2.8001,2.8665,2.9639,3.0211,3.1125,3.2494,3.284,3.3559,3.4856,3.5983,3.676,3.7327,3.8702,3.9631,3.9362,3.8907,3.8132,3.6911,3.5748,3.4786,3.3693,3.2552,3.1567,3.1178,3.0708,3.0292,2.9934,2.9779,2.9779,2.9661,2.929,2.8795,2.8766,2.8247,2.8195,2.8524,2.8294,2.8542,2.9456,2.9779,2.9779,2.9856,3.0114,3.048,3.1143,3.1441,3.1946,3.2423,3.2451,3.2327,3.2327,3.2786,3.3211,3.2571,3.2087,3.2123,3.0429,2.9145,2.8767,2.1481,2.1375,2.0711,2.021,1.986,1.961,1.932,1.9007,1.8955,1.929,1.9661,1.8754,1.8183,1.7737,1.5889,1.4246,1.3026,1.221,1.1942,1.2102,1.2892,1.4138,1.573,1.6945,1.8055,1.8895,1.9542,2.0002,2.0302,2.1101,2.2002,2.2628,2.2567,2.2689,2.3005,2.2944,2.3564,2.4951,2.5287,2.6,2.7137,2.7524,2.756,2.756,2.756,2.756,2.756,2.756,2.756,2.756,2.756,2.756,2.756,2.756,2.7649,2.7955,2.865,2.9531,3.0432,3.0654,3.1309,3.2431,3.2586,3.3159,3.4434,3.5284,3.596,3.6683,3.7423,3.789,3.8137,3.7528,3.6414,3.4996,3.4215,3.3196,3.228,3.114,3.0439,3.0637,3.0252,2.9779,2.9767,2.9512,2.9245,2.9127,2.8354,2.761,2.7577,2.7087,2.6873,2.7514,2.7232,2.7844,2.9365,2.9365,2.9456,2.9779,2.9856,3.0114,3.0716,3.0777,3.0839,3.1254,3.1683,3.173,3.1237,3.1654,3.1839,3.1393,3.082,3.0101,2.9054,2.79,2.7212,1.9611,1.951,1.8943,1.8706,1.8613,1.8055,1.7763,1.7709,1.7654,1.772,1.7829,1.772,1.7291,1.6599,1.511,1.3768,1.2894,1.1689,1.1152,1.1272,1.2575,1.3793,1.4831,1.6079,1.7194,1.8124,1.8261,1.8724,1.9431,2.0204,2.1112,2.1877,2.1227,2.1542,2.2689,2.2384,2.2786,2.4208,2.5007,2.5783,2.6549,2.7255,2.756,2.756,2.756,2.756,2.756,2.756,2.756,2.756,2.756,2.756,2.756,2.759,2.7904,2.8577,2.9678,3.0438,3.0582,3.1063,3.1709,3.2422,3.2516,3.3138,3.4333,3.5074,3.5755,3.6557,3.5907,3.5845,3.6143,3.5692,3.4867,3.3667,3.1442,3.0563,3.1066,2.9384,2.8912,2.9474,2.9654,2.9484,2.9599,2.8864,2.8317,2.8041,2.7209,2.6563,2.6474,2.6444,2.634,2.6591,2.7174,2.8359,2.9378,2.9365,2.9106,2.9275,2.9534,2.9869,2.9792,2.9856,2.9998,2.9908,3.0037,3.0049,2.9899,2.9858,2.9797,2.9409,2.8829,2.8014,2.7745,2.6597,2.6167,1.7313,1.6926,1.7136,1.7258,1.7203,1.6968,1.6922,1.6877,1.6358,1.6472,1.6866,1.6922,1.6978,1.7146,1.6048,1.4613,1.2981,1.1977,1.1277,1.0948,1.2029,1.3255,1.4455,1.5626,1.678,1.7852,1.8008,1.8462,1.9233,1.9628,2.0526,2.1565,2.1049,2.1227,2.2063,2.2075,2.2457,2.3454,2.4697,2.5728,2.6457,2.7203,2.756,2.756,2.756,2.756,2.756,2.756,2.756,2.756,2.756,2.756,2.7604,2.7993,2.8712,2.9714,3.0248,3.0683,3.1106,3.139,3.1582,3.1853,3.191,3.2421,3.3612,3.4163,3.447,3.4801,3.4677,3.4216,3.3321,3.3328,3.2848,3.122,3.0126,2.9077,2.8342,2.7498,2.729,2.7729,2.8232,2.8499,2.8001,2.7866,2.7813,2.7082,2.6085,2.5541,2.5256,2.4843,2.4638,2.5126,2.5126,2.5546,2.7464,2.8779,2.9275,2.9015,2.9106,2.9599,2.9767,2.9586,2.9561,2.8846,2.87,2.8551,2.8524,2.8444,2.8343,2.7817,2.7076,2.6816,2.6451,2.574,2.5518,1.5874,1.5584,1.6197,1.6492,1.6492,1.6492,1.6492,1.6425,1.569,1.569,1.6151,1.6652,1.7124,1.7522,1.7489,1.6381,1.4381,1.3176,1.212,1.1505,1.2236,1.334,1.4609,1.5489,1.6636,1.7794,1.8008,1.8337,1.8787,1.8911,1.9824,2.1302,2.059,2.0899,2.2002,2.2063,2.2286,2.3157,2.4355,2.5398,2.6108,2.6878,2.7476,2.7874,2.7904,2.7835,2.759,2.756,2.756,2.756,2.756,2.7664,2.7934,2.8532,2.937,3.0383,3.0728,3.1027,3.1435,3.1467,3.1409,3.1146,3.1132,3.1574,3.2518,3.2616,3.2878,3.3293,3.3165,3.2421,3.1154,3.0961,3.0583,2.9144,2.8455,2.7669,2.6625,2.6213,2.6166,2.6622,2.7172,2.714,2.671,2.6864,2.6611,2.6052,2.5007,2.4297,2.4102,2.372,2.3299,2.4049,2.4104,2.4361,2.5579,2.688,2.8327,2.8395,2.8445,2.8987,2.916,2.9069,2.8676,2.7879,2.7394,2.7261,2.7094,2.7067,2.6812,2.6246,2.5992,2.5628,2.5366,2.5093,2.5053,1.5468,1.5526,1.6197,1.6492,1.6492,1.6492,1.6492,1.6482,1.5748,1.5517,1.5843,1.6912,1.7423,1.7739,1.8672,1.8625,1.6972,1.51,1.3716,1.2964,1.3214,1.4069,1.5303,1.5801,1.6711,1.794,1.8008,1.8008,1.8134,1.8202,1.8977,2.0139,1.9814,2.0515,2.2944,2.2187,2.2249,2.304,2.393,2.4738,2.5398,2.6229,2.7179,2.8278,2.8502,2.8248,2.7649,2.7664,2.7724,2.7715,2.773,2.7949,2.8652,2.925,2.9903,3.0533,3.1106,3.1422,3.1409,3.1409,3.1043,3.045,3.0254,3.0477,3.1012,3.1068,3.1501,3.2272,3.1787,3.0753,2.9628,2.8699,2.8096,2.7835,2.64,2.5692,2.588,2.5378,2.5199,2.6014,2.6357,2.6457,2.6224,2.5738,2.5168,2.4724,2.3963,2.3368,2.3378,2.3164,2.3144,2.3377,2.3684,2.4094,2.4454,2.4976,2.649,2.7626,2.7818,2.8077,2.7965,2.7832,2.7301,2.6584,2.5986,2.573,2.5424,2.5441,2.5295,2.4896,2.4735,2.4775,2.4694,2.4612,2.4521,1.5864,1.5526,1.6197,1.6492,1.6492,1.6492,1.6765,1.7079,1.5968,1.5728,1.6182,1.662,1.707,1.7705,1.8567,1.8773,1.8205,1.6993,1.5524,1.4049,1.39,1.4373,1.5169,1.6067,1.6949,1.7852,1.8008,1.8008,1.8008,1.8008,1.8596,1.9431,1.9431,2.0009,2.1416,2.1678,2.2075,2.2372,2.3636,2.4681,2.5398,2.6122,2.6943,2.7853,2.8338,2.8487,2.8308,2.8712,2.8712,2.8293,2.8727,2.925,2.9789,3.0128,3.0518,3.1091,3.139,3.1205,3.076,3.0628,3.0329,2.9628,2.9366,2.9917,3.0632,3.0705,3.0956,3.1429,3.0689,2.9621,2.8512,2.6875,2.603,2.5826,2.5178,2.4542,2.4392,2.3963,2.38,2.4176,2.4823,2.4951,2.4509,2.4188,2.4451,2.3861,2.3377,2.3135,2.3144,2.3144,2.3144,2.3212,2.3521,2.3674,2.3851,2.4191,2.5211,2.6251,2.6623,2.6939,2.6852,2.6423,2.5877,2.5455,2.4871,2.4444,2.4135,2.3964,2.3997,2.4038,2.4137,2.4228,2.4349,2.4214,2.4072,1.6093,1.5526,1.6197,1.6492,1.6492,1.6492,1.6754,1.6968,1.5911,1.5661,1.6079,1.6404,1.6903,1.7639,1.8342,1.8667,1.8614,1.7904,1.6613,1.5139,1.4718,1.4911,1.542,1.6446,1.7207,1.7705,1.7939,1.8008,1.8008,1.8008,1.8462,1.9177,1.9628,2.0268,2.1101,2.1865,2.2322,2.2494,2.3339,2.4221,2.4951,2.5728,2.6543,2.752,2.8263,2.8712,2.8951,2.937,2.928,2.8742,2.8801,2.934,3.0313,3.0333,3.0573,3.13,3.1467,3.1146,3.0441,3.0341,2.9766,2.8798,2.8492,2.8702,2.9333,2.9411,2.9305,2.958,2.8919,2.7987,2.6829,2.5711,2.4661,2.4214,2.418,2.3877,2.3222,2.3144,2.3135,2.3339,2.3817,2.373,2.356,2.3507,2.391,2.327,2.3144,2.3144,2.3144,2.3144,2.3144,2.3144,2.3212,2.3299,2.3232,2.3553,2.4058,2.4639,2.5207,2.5595,2.5749,2.5094,2.4533,2.4268,2.3851,2.3734,2.3475,2.3368,2.335,2.3487,2.3595,2.3573,2.3664,2.3698,2.3599,1.6036,1.5526,1.6083,1.6322,1.6379,1.6368,1.6425,1.6436,1.5748,1.5459,1.568,1.6151,1.6768,1.7466,1.8009,1.83,1.8372,1.7696,1.7025,1.6224,1.571,1.5516,1.6062,1.6758,1.7178,1.7461,1.7773,1.7959,1.8008,1.8008,1.8395,1.911,1.9879,2.091,2.1553,2.2567,2.2896,2.3005,2.3125,2.359,2.4337,2.5104,2.6076,2.7382,2.8157,2.8839,2.925,2.9385,2.922,2.8667,2.8203,2.8742,2.9983,2.9967,3.0293,3.126,3.1394,3.0821,3.0323,2.987,2.9254,2.7855,2.763,2.7598,2.7621,2.731,2.7206,2.7645,2.6978,2.6003,2.5209,2.4714,2.4139,2.3367,2.3299,2.3222,2.3135,2.3144,2.3144,2.3144,2.3144,2.3144,2.3144,2.3193,2.3202,2.3135,2.3144,2.3144,2.3144,2.3144,2.3144,2.3144,2.3144,2.3144,2.3144,2.3242,2.365,2.38,2.4198,2.4441,2.4703,2.4155,2.373,2.3398,2.3261,2.3154,2.3057,2.3047,2.3057,2.3232,2.3242,2.3154,2.3174,2.3239,2.3207,1.6042,1.541,1.4982,1.5157,1.5633,1.569,1.6036,1.6379,1.569,1.5661,1.6022,1.5843,1.6099,1.6759,1.698,1.7335,1.7412,1.7036,1.6733,1.6425,1.5758,1.5664,1.6066,1.6351,1.6768,1.7285,1.75,1.7705,1.7988,1.7998,1.8144,1.8337,1.9299,2.0074,2.0899,2.1803,2.2506,2.3005,2.3065,2.3471,2.4261,2.5013,2.5855,2.6755,2.7943,2.8598,2.8869,2.8861,2.9071,2.928,2.8682,2.8966,3.0212,3.0179,3.0199,3.0483,3.0565,2.9936,2.8768,2.8484,2.7907,2.696,2.6918,2.6955,2.7289,2.6481,2.6482,2.6752,2.5867,2.4836,2.463,2.4074,2.3444,2.3212,2.3144,2.3144,2.3144,2.3144,2.3144,2.3144,2.3144,2.3144,2.3144,2.3144,2.3144,2.3144,2.3144,2.3144,2.3144,2.3144,2.3144,2.3144,2.3144,2.3144,2.3144,2.3144,2.3144,2.3242,2.3404,2.3547,2.3634,2.3474,2.3271,2.3144,2.3154,2.3144,2.3047,2.3047,2.3047,2.2715,2.2698,2.2484,2.2921,2.3095,2.3026,1.6317,1.5352,1.4874,1.4991,1.541,1.542,1.5642,1.5921,1.5642,1.5613,1.5871,1.5613,1.5429,1.5543,1.5891,1.5833,1.5678,1.5593,1.5371,1.5012,1.4855,1.5193,1.5722,1.6007,1.64,1.6816,1.7217,1.75,1.7744,1.791,1.7998,1.8202,1.8844,1.9562,2.0074,2.0921,2.1753,2.2445,2.2628,2.298,2.378,2.4838,2.5549,2.6261,2.7358,2.8162,2.821,2.8173,2.8472,2.8808,2.8329,2.8302,2.9395,2.9261,2.9232,2.9392,2.96,2.916,2.8056,2.7696,2.7338,2.6714,2.6521,2.6382,2.6233,2.5611,2.5472,2.524,2.4214,2.3823,2.3886,2.3444,2.3135,2.3144,2.3144,2.3144,2.3144,2.3144,2.3144,2.3144,2.3144,2.3144,2.3144,2.3144,2.3144,2.3144,2.3144,2.3144,2.3144,2.3144,2.3144,2.3144,2.3144,2.3144,2.3144,2.3144,2.3144,2.3135,2.3135,2.3144,2.2931,2.2931,2.3057,2.3057,2.3057,2.296,2.2696,2.2353,2.1857,2.1633,2.1752,2.1923,2.2155,2.2372,2.2362,1.6472,1.5283,1.5158,1.5168,1.5244,1.5273,1.5186,1.5254,1.5195,1.5205,1.5262,1.5303,1.4916,1.4209,1.4925,1.4501,1.3243,1.3957,1.3726,1.3666,1.3914,1.4675,1.5204,1.5532,1.5885,1.6208,1.6924,1.7113,1.7278,1.7666,1.7861,1.7986,1.8665,1.9135,1.9475,2.015,2.091,2.1628,2.2013,2.2322,2.3163,2.4315,2.5265,2.5729,2.693,2.7533,2.7548,2.7497,2.7735,2.8353,2.7147,2.731,2.808,2.7581,2.7513,2.8033,2.8428,2.8327,2.7735,2.7459,2.7297,2.6577,2.6383,2.6013,2.5207,2.451,2.3864,2.3673,2.2825,2.2834,2.3114,2.3135,2.3135,2.3144,2.3144,2.3144,2.3144,2.3144,2.3144,2.3144,2.3144,2.3144,2.3144,2.3144,2.3144,2.3144,2.3144,2.3144,2.3144,2.3144,2.3144,2.3144,2.3144,2.3144,2.3144,2.3144,2.3144,2.3135,2.3135,2.3038,2.2513,2.261,2.2853,2.2862,2.2356,2.2013,2.1713,2.1302,2.0633,2.0464,2.0497,2.0625,2.0828,2.0988,2.1121,1.4606,1.436,1.3672,1.3792,1.4305,1.435,1.436,1.4379,1.4379,1.4428,1.4447,1.4766,1.444,1.378,1.415,1.3914,1.3045,1.3235,1.313,1.3183,1.3846,1.4213,1.446,1.4639,1.5185,1.5773,1.5595,1.5958,1.6635,1.7031,1.7187,1.7546,1.7784,1.8329,1.917,1.9378,2.0009,2.0846,2.1491,2.1877,2.2432,2.3726,2.4816,2.5453,2.6759,2.7137,2.6826,2.6721,2.6794,2.6799,2.6707,2.6816,2.7295,2.689,2.6672,2.6985,2.7216,2.7196,2.6883,2.6786,2.6714,2.644,2.5804,2.5217,2.4933,2.3383,2.2809,2.261,2.2392,2.2314,2.2911,2.3047,2.3125,2.3115,2.3144,2.3144,2.3144,2.3144,2.3144,2.3028,2.3038,2.3047,2.3047,2.3047,2.3047,2.3135,2.3135,2.3144,2.3144,2.3144,2.3144,2.3144,2.3144,2.3144,2.3144,2.3144,2.3144,2.2921,2.2814,2.2677,2.2249,2.1514,2.1578,2.1453,2.1273,2.0971,2.0701,2.0226,1.9645,1.9446,1.9265,1.9472,1.9579,1.972,1.987,1.4653,1.4077,1.3638,1.3692,1.4077,1.4087,1.4087,1.4087,1.4087,1.4087,1.4063,1.4122,1.3747,1.3271,1.3397,1.3169,1.2862,1.2882,1.2581,1.2336,1.3,1.3606,1.3614,1.3795,1.4339,1.5532,1.5683,1.5894,1.6272,1.6621,1.6885,1.7051,1.708,1.7556,1.8289,1.8436,1.8979,1.9846,2.0462,2.1037,2.1975,2.3008,2.4347,2.5199,2.6179,2.6322,2.6014,2.6336,2.6283,2.6068,2.596,2.6141,2.6259,2.5728,2.5435,2.5546,2.5781,2.5978,2.602,2.6095,2.6015,2.5779,2.5217,2.448,2.3806,2.2467,2.2039,2.1974,2.1828,2.189,2.2737,2.2804,2.2833,2.3105,2.3135,2.3135,2.3047,2.3144,2.2804,2.2581,2.2698,2.2581,2.2581,2.2532,2.295,2.294,2.3047,2.3047,2.3144,2.3144,2.3144,2.3144,2.3144,2.3144,2.3144,2.3144,2.3144,2.2795,2.2349,2.2073,2.1649,2.0755,1.9869,2.0099,2.0344,1.9884,1.9604,1.9036,1.8326,1.7699,1.7554,1.8033,1.8357,1.8551,1.8629,1.5097,1.3893,1.3945,1.3883,1.3893,1.3863,1.3896,1.3916,1.3936,1.3786,1.3859,1.3336,1.3167,1.2813,1.2623,1.2381,1.2137,1.2617,1.2202,1.1345,1.2243,1.3053,1.3243,1.3373,1.3923,1.5274,1.5434,1.5747,1.5994,1.6318,1.6445,1.6592,1.6631,1.6929,1.7243,1.7458,1.8001,1.8827,1.9378,2.002,2.1302,2.2322,2.3595,2.4886,2.5439,2.5453,2.5398,2.5618,2.5783,2.53,2.5133,2.5119,2.5016,2.4439,2.3927,2.4064,2.4595,2.4893,2.511,2.5271,2.5159,2.472,2.4469,2.3745,2.2478,2.1897,2.1537,2.1342,2.1279,2.1607,2.2303,2.2407,2.259,2.2872,2.2999,2.2989,2.2862,2.2784,2.224,2.1817,2.1919,2.2023,2.1667,2.1459,2.224,2.2746,2.2853,2.296,2.296,2.3047,2.3047,2.3135,2.3144,2.3144,2.3144,2.2403,2.2492,2.2171,2.1785,2.1051,2.0692,2.0209,1.9496,1.9479,1.9546,1.8972,1.8395,1.7885,1.7066,1.6015,1.6103,1.6842,1.7182,1.7356,1.7384,1.3779,1.3096,1.3086,1.3086,1.3105,1.3096,1.3145,1.3086,1.3164,1.3096,1.3164,1.3295,1.2973,1.2538,1.2104,1.1373,1.0995,1.1823,1.2039,1.1262,1.1913,1.2647,1.3545,1.3373,1.3965,1.4815,1.5056,1.5093,1.5449,1.5605,1.5918,1.6113,1.6172,1.6396,1.6826,1.7168,1.738,1.7931,1.8547,1.9337,1.9986,2.1385,2.2882,2.4332,2.4865,2.4894,2.4567,2.4567,2.461,2.4452,2.3813,2.393,2.4189,2.3731,2.3546,2.3844,2.4052,2.4128,2.4075,2.4249,2.3954,2.3356,2.2999,2.2616,2.1886,2.1375,2.1003,2.0889,2.1045,2.1384,2.1899,2.2002,2.2155,2.2428,2.2515,2.2284,2.1794,2.1695,2.1444,2.0864,2.1139,2.1235,2.0594,2.0425,2.098,2.1471,2.1569,2.2138,2.2618,2.2784,2.296,2.3047,2.3144,2.3144,2.3144,2.2041,2.148,2.1194,2.0596,1.9546,1.9271,1.9377,1.9225,1.8674,1.8172,1.7505,1.7037,1.6669,1.6386,1.5825,1.5825,1.592,1.5933,1.6137,1.594,1.3742,1.2929,1.2891,1.2891,1.2891,1.2891,1.2891,1.2891,1.2891,1.2891,1.2832,1.271,1.2654,1.2401,1.1839,1.1051,1.0865,1.1963,1.1936,1.1167,1.1751,1.2611,1.3631,1.3545,1.4323,1.505,1.505,1.4932,1.5352,1.543,1.5537,1.5654,1.5732,1.5947,1.6318,1.6562,1.6846,1.716,1.769,1.8253,1.8786,2.0511,2.2236,2.3395,2.3989,2.3975,2.3872,2.4176,2.406,2.3767,2.3708,2.3708,2.3603,2.3437,2.3236,2.3495,2.3538,2.3406,2.3232,2.3423,2.3248,2.2319,2.1988,2.1714,2.1375,2.0857,2.0644,2.0625,2.0684,2.1075,2.15,2.1507,2.1742,2.2103,2.2124,2.1646,2.1039,2.0882,2.03,1.9673,1.982,1.9676,1.9103,1.9196,1.9778,2.0116,2.0288,2.1132,2.1989,2.2157,2.2217,2.2435,2.2366,2.2143,2.2036,2.1078,2.0378,2.0073,1.9455,1.8395,1.7878,1.8031,1.7751,1.7239,1.6662,1.6574,1.6292,1.6197,1.592,1.5825,1.5825,1.5724,1.5121,1.4727,1.474,1.3884,1.2891,1.2891,1.2891,1.2891,1.2891,1.2774,1.2715,1.2822,1.2774,1.2618,1.2295,1.2421,1.2497,1.191,1.1193,1.0877,1.2066,1.1503,1.1083,1.1603,1.2476,1.3067,1.3768,1.4392,1.451,1.5284,1.542,1.542,1.542,1.542,1.5469,1.5439,1.5557,1.5898,1.6174,1.6299,1.6494,1.6719,1.7169,1.8382,1.9954,2.1584,2.2761,2.3017,2.3185,2.3245,2.3662,2.3649,2.3484,2.3531,2.3708,2.3245,2.3125,2.304,2.287,2.2834,2.259,2.2162,2.2266,2.1954,2.0959,2.1321,2.1136,2.0934,2.0722,2.0576,2.0576,2.0596,2.0518,2.0635,2.0701,2.0798,2.0796,2.0843,2.0689,1.9815,1.9129,1.8474,1.8208,1.838,1.8149,1.7606,1.7665,1.8133,1.8872,1.9131,1.977,2.061,2.0872,2.1105,2.1459,2.1505,2.1013,2.0585,1.987,1.9322,1.9034,1.8249,1.7196,1.6828,1.6655,1.6372,1.6379,1.6567,1.648,1.6109,1.5825,1.5825,1.5825,1.5825,1.5432,1.474,1.4172,1.3908,1.3505,1.2891,1.2891,1.2891,1.2891,1.2891,1.2501,1.2129,1.2666,1.2501,1.2187,1.251,1.2774,1.2646,1.2085,1.1387,1.1009,1.0769,1.0965,1.1036,1.1368,1.1924,1.2697,1.3714,1.3886,1.4091,1.4963,1.5352,1.542,1.542,1.542,1.542,1.542,1.5459,1.5586,1.583,1.6135,1.6201,1.6504,1.7206,1.8354,1.9459,2.0638,2.1798,2.2506,2.2907,2.2919,2.3185,2.3125,2.3185,2.3185,2.3185,2.3125,2.3125,2.2662,2.2274,2.186,2.1346,2.0322,2.0443,2.0493,1.998,2.0064,2.0299,2.0517,2.0576,2.0576,2.0576,2.0566,2.0052,1.9453,1.9316,1.9034,1.8851,1.8878,1.8404,1.7618,1.7913,1.7183,1.6541,1.6661,1.6501,1.6161,1.6331,1.6574,1.7326,1.8064,1.8696,1.933,1.9786,2.009,2.0543,2.0318,1.9804,1.9342,1.8636,1.8164,1.7934,1.7238,1.6365,1.6271,1.6089,1.6001,1.6015,1.6197,1.6292,1.6015,1.5825,1.5825,1.5825,1.5825,1.5146,1.4172,1.3709,1.3443,1.3152,1.2891,1.2891,1.2891,1.2891,1.2891,1.2715,1.2559,1.2725,1.2715,1.251,1.2725,1.2891,1.2774,1.2138,1.1674,1.12,1.0434,1.0303,1.0808,1.094,1.1341,1.2314,1.3376,1.3763,1.4136,1.4809,1.5352,1.542,1.542,1.542,1.542,1.542,1.542,1.542,1.5596,1.5664,1.5752,1.5968,1.6658,1.7693,1.8358,1.921,2.068,2.1158,2.1691,2.2237,2.2445,2.2702,2.2944,2.3125,2.2823,2.2567,2.2323,2.1885,2.0505,2.0403,2.0074,1.9491,1.9682,1.9432,1.9229,1.9512,2.0107,2.0449,2.0557,2.0215,1.9706,1.9673,1.9136,1.8293,1.8048,1.7861,1.7671,1.7335,1.6916,1.6446,1.645,1.6227,1.5499,1.4933,1.5197,1.5411,1.5698,1.5967,1.6404,1.6915,1.7426,1.835,1.9196,1.9472,1.9718,1.9182,1.8504,1.8006,1.7457,1.6986,1.6706,1.6706,1.6001,1.5913,1.5825,1.5825,1.5825,1.592,1.592,1.5825,1.5825,1.5825,1.5825,1.5825,1.5051,1.428,1.3811,1.3562,1.2891,1.2891,1.2891,1.2891,1.2891,1.2891,1.2774,1.2608,1.2832,1.2774,1.2715,1.2774,1.2891,1.2725,1.2187,1.1765,1.1715,1.0568,1.0157,1.0234,1.0609,1.1059,1.1765,1.2811,1.3782,1.4261,1.483,1.51,1.5148,1.5294,1.542,1.542,1.542,1.542,1.542,1.5449,1.5478,1.5488,1.5498,1.6078,1.6915,1.7332,1.8207,1.91,1.9717,2.0278,2.121,2.1663,2.2092,2.2175,2.2628,2.231,2.1753,2.153,2.0934,1.9872,1.9576,1.9351,1.9085,1.9076,1.9042,1.9031,1.9277,1.9922,2.0256,2.0256,1.9923,1.9155,1.8647,1.8047,1.7225,1.6887,1.6624,1.6412,1.6246,1.5846,1.5582,1.5558,1.5433,1.4929,1.4629,1.4818,1.5073,1.5337,1.5524,1.5645,1.5927,1.6298,1.7059,1.8172,1.8226,1.821,1.7902,1.7268,1.7015,1.6469,1.594,1.5825,1.5825,1.5825,1.5825,1.5825,1.5825,1.5825,1.5825,1.5825,1.5825,1.5825,1.5825,1.5825,1.5635,1.507,1.44,1.4016,1.3817,1.2891,1.2891,1.2891,1.2891,1.2881,1.2891,1.251,1.203,1.2608,1.251,1.2236,1.2559,1.2891,1.2725,1.2187,1.1814,1.1765,1.1057,1.0411,1.0329,1.0809,1.0854,1.1315,1.2108,1.3008,1.3151,1.41,1.4554,1.4548,1.4946,1.5245,1.541,1.5245,1.5332,1.5352,1.5284,1.5108,1.505,1.505,1.535,1.6158,1.6716,1.7431,1.8123,1.8852,1.9573,2.0036,2.0584,2.0967,2.0934,2.1443,2.1413,2.0751,2.0583,1.9949,1.9328,1.9055,1.8828,1.8494,1.8408,1.835,1.8633,1.9072,1.9506,1.986,1.9037,1.8719,1.8674,1.7931,1.6984,1.6226,1.5718,1.5484,1.5278,1.5132,1.4943,1.4741,1.4594,1.4443,1.4267,1.4269,1.4509,1.4583,1.4925,1.5197,1.5331,1.5544,1.5826,1.5961,1.6713,1.6473,1.6445,1.6358,1.6116,1.6116,1.5825,1.5825,1.5825,1.5825,1.5825,1.5825,1.5825,1.5825,1.5825,1.5825,1.5825,1.5825,1.5825,1.5825,1.5825,1.5635,1.5166,1.4682,1.4196,1.4052,1.2891,1.2891,1.2891,1.2891,1.2881,1.2393,1.208,1.1864,1.208,1.2403,1.2452,1.2774,1.2891,1.2715,1.2187,1.1814,1.1665,1.0618,1.0167,0.9792,0.9851,1.0158,1.0696,1.1542,1.2422,1.3014,1.3914,1.4022,1.3662,1.4251,1.3839,1.3922,1.4697,1.5313,1.5352,1.4787,1.4442,1.4085,1.4025,1.4261,1.4906,1.5229,1.589,1.686,1.7022,1.7856,1.8595,1.9028,1.9415,1.9794,2.0167,1.9896,1.953,1.9425,1.9114,1.8645,1.8603,1.8365,1.8134,1.8027,1.8203,1.8475,1.8818,1.9092,1.9496,1.9058,1.8179,1.7672,1.7046,1.6253,1.4691,1.4573,1.4573,1.425,1.4075,1.4055,1.4088,1.4088,1.4095,1.4128,1.4142,1.4208,1.4334,1.4401,1.4771,1.5107,1.5259,1.5431,1.5524,1.5685,1.5718,1.5772,1.5778,1.5812,1.5818,1.5818,1.5825,1.5825,1.5825,1.5825,1.5825,1.5825,1.5825,1.5825,1.5825,1.5825,1.5825,1.5825,1.5825,1.5825,1.573,1.5642,1.5057,1.4382,1.453,1.2715,1.2881,1.2666,1.2715,1.2832,1.2344,1.2129,1.208,1.1922,1.208,1.2608,1.2774,1.2891,1.2725,1.2452,1.2166,1.1918,1.1091,1.032,0.988,0.9577,0.971,1.0304,1.0965,1.1555,1.2724,1.3103,1.3004,1.2893,1.3485,1.3214,1.3108,1.3716,1.4383,1.4344,1.41,1.3545,1.3122,1.307,1.3191,1.3863,1.4181,1.4533,1.554,1.585,1.6437,1.7286,1.7846,1.8144,1.8434,1.8703,1.8617,1.8291,1.8035,1.7916,1.7846,1.7832,1.7861,1.7969,1.8037,1.8135,1.8359,1.8418,1.8684,1.8909,1.8798,1.7714,1.6573,1.6183,1.5397,1.3655,1.3788,1.396,1.3768,1.3868,1.3888,1.4035,1.4088,1.4088,1.4102,1.4108,1.4115,1.4135,1.4103,1.4316,1.4751,1.5021,1.5161,1.5297,1.5398,1.5471,1.5544,1.5617,1.5664,1.5805,1.5805,1.5805,1.5825,1.5825,1.5825,1.5825,1.5825,1.5825,1.5825,1.5825,1.5825,1.5825,1.5825,1.5825,1.5825,1.573,1.5737,1.5635,1.5153,1.5343,1.2286,1.2774,1.2178,1.2295,1.2832,1.2881,1.2764,1.2461,1.203,1.1922,1.2129,1.2618,1.2881,1.2822,1.2559,1.2459,1.2457,1.1769,1.0914,1.0064,0.9562,0.9762,0.9925,1.026,1.0749,1.1345,1.1763,1.2014,1.2041,1.2546,1.2436,1.2104,1.2325,1.2919,1.2664,1.2955,1.2984,1.2931,1.2793,1.2826,1.3122,1.3537,1.395,1.4414,1.4809,1.5444,1.6068,1.6637,1.6889,1.7063,1.7551,1.7472,1.7066,1.6918,1.7017,1.7334,1.7393,1.7588,1.793,1.7969,1.794,1.8018,1.8174,1.8281,1.8325,1.7872,1.7062,1.6071,1.5494,1.4509,1.3659,1.3233,1.3454,1.352,1.3614,1.3734,1.3881,1.3549,1.3445,1.3334,1.3724,1.3997,1.3919,1.3959,1.3992,1.4249,1.4787,1.4922,1.4959,1.513,1.5239,1.5299,1.5385,1.5558,1.5604,1.5765,1.5792,1.5812,1.5825,1.5825,1.5825,1.5825,1.5825,1.5825,1.5825,1.5825,1.5825,1.5825,1.5825,1.5825,1.5825,1.5825,1.5825,1.5825,1.5825,1.2666,1.2881,1.2608,1.2403,1.2187,1.2178,1.194,1.1584,1.1724,1.208,1.2393,1.2403,1.2501,1.251,1.2058,1.2054,1.2494,1.1032,1.0056,1.0415,0.9614,0.9865,1.002,0.9976,1.0236,1.0816,1.1028,1.0765,1.0545,1.132,1.0804,1.0333,1.0693,1.0867,1.136,1.167,1.1676,1.1199,1.1269,1.16,1.2135,1.2504,1.2931,1.3373,1.3734,1.4234,1.4861,1.5398,1.5592,1.5817,1.6377,1.6347,1.6292,1.6289,1.6504,1.6836,1.6963,1.7158,1.7243,1.7159,1.7139,1.7494,1.7872,1.7861,1.8075,1.7937,1.6944,1.5931,1.5263,1.4273,1.3404,1.3245,1.3267,1.33,1.3394,1.352,1.3477,1.2876,1.2504,1.2295,1.2457,1.2151,1.1992,1.2431,1.2697,1.3243,1.3717,1.4453,1.4616,1.4877,1.5084,1.5097,1.5184,1.5332,1.5478,1.5531,1.5591,1.571,1.5724,1.5825,1.5825,1.5825,1.5825,1.5825,1.5825,1.5825,1.5825,1.5825,1.5825,1.5825,1.5825,1.5825,1.5825,1.5825,1.5825,1.2461,1.2832,1.2363,1.2039,1.1823,1.1814,1.1408,1.1065,1.1733,1.2344,1.2344,1.1972,1.1742,1.1724,1.1531,1.1091,1.1849,1.0863,0.9961,1.0364,0.9361,0.9413,0.9614,0.9762,0.9629,1.0072,1.0064,0.9844,0.9582,1.0138,1.0058,0.9573,0.9099,0.9589,1.0142,1.0415,1.0611,1.0363,1.0547,1.0802,1.1293,1.171,1.2135,1.2573,1.294,1.3321,1.3734,1.4094,1.4392,1.4864,1.5274,1.5478,1.5762,1.5889,1.6074,1.6357,1.6369,1.6478,1.6439,1.5851,1.5912,1.6331,1.6865,1.6991,1.701,1.6769,1.5974,1.5207,1.4977,1.4096,1.303,1.2976,1.2953,1.2973,1.2693,1.2816,1.2569,1.1899,1.1366,1.1242,1.1059,1.0514,1.0082,1.0605,1.1068,1.1832,1.2595,1.3433,1.4269,1.4563,1.4838,1.4845,1.4865,1.504,1.511,1.5281,1.5398,1.5549,1.5637,1.5658,1.5724,1.5717,1.5724,1.5818,1.5805,1.5798,1.5818,1.5825,1.5812,1.5812,1.5825,1.5825,1.5825,1.5825,1.5825,1.1692,1.2618,1.1434,1.1266,1.1765,1.1814,1.1466,1.1023,1.2304,1.2452,1.1814,1.1823,1.1344,1.0647,1.1187,1.1107,1.0517,1.0509,1.0312,0.9858,0.9211,0.9159,0.9061,0.9061,0.9113,0.8956,0.8956,0.9211,0.891,0.9465,0.9666,0.951,0.9063,0.9085,0.9262,0.95,0.9816,0.9873,1.0047,1.0343,1.0746,1.1203,1.1534,1.1858,1.2205,1.2581,1.3061,1.3485,1.3906,1.4442,1.4883,1.5177,1.5371,1.5362,1.5634,1.5725,1.5508,1.5386,1.5094,1.4405,1.3967,1.4197,1.4364,1.4771,1.5404,1.5668,1.5163,1.445,1.4111,1.336,1.26,1.2526,1.2443,1.2151,1.1717,1.1636,1.1426,1.0913,1.0393,1.0075,1.004,0.962,0.9104,0.9314,0.9927,1.0794,1.174,1.2948,1.3749,1.4188,1.4421,1.4527,1.4554,1.4695,1.4771,1.4939,1.5127,1.5259,1.5364,1.5429,1.5458,1.5464,1.5545,1.5524,1.5691,1.567,1.5697,1.5697,1.5778,1.5792,1.5812,1.5825,1.5825,1.5825,1.5825,1.2089,1.2774,1.1882,1.1616,1.1814,1.1814,1.1981,1.2353,1.2774,1.2501,1.1765,1.1266,1.0797,1.021,0.9834,0.9944,0.9893,0.9805,1.0049,0.9762,0.9263,0.9263,0.9166,0.9008,0.8857,0.8804,0.8804,0.8804,0.8804,0.9106,0.9113,0.9015,0.891,0.8804,0.8864,0.8978,0.9259,0.9499,0.9699,0.9967,1.0167,1.054,1.0814,1.1064,1.1246,1.1688,1.2205,1.2443,1.2984,1.4085,1.4332,1.4569,1.4569,1.451,1.4561,1.3908,1.3691,1.3566,1.3171,1.2371,1.184,1.1491,1.1229,1.2606,1.377,1.4598,1.4308,1.3678,1.3361,1.2872,1.2439,1.2257,1.1919,1.1458,1.1,1.0467,1.0226,0.9518,0.9004,0.885,0.8734,0.8692,0.8166,0.8197,0.8899,0.9859,1.089,1.2157,1.3105,1.3639,1.4095,1.4291,1.4331,1.444,1.4515,1.4669,1.4865,1.4993,1.504,1.5073,1.514,1.5214,1.5221,1.5302,1.5344,1.5465,1.5481,1.5523,1.5551,1.5745,1.5798,1.5812,1.5825,1.5812,1.5818,1.2097,1.2706,1.1832,1.1416,1.1466,1.1665,1.1981,1.2157,1.2666,1.2363,1.1416,1.1015,1.0503,1.0035,0.9563,0.9429,0.957,0.9526,0.9614,0.9413,0.9211,0.9159,0.9113,0.9061,0.8857,0.8804,0.8804,0.8804,0.8804,0.8804,0.8804,0.8857,0.8804,0.8804,0.8824,0.8858,0.8918,0.9138,0.9359,0.9646,0.9826,0.9953,1.0134,1.0321,1.0388,1.0795,1.1253,1.1502,1.2358,1.3226,1.3416,1.3528,1.3262,1.2874,1.2567,1.1966,1.1584,1.1341,1.0968,1.0283,0.9764,0.9365,0.8901,0.9955,1.1235,1.2157,1.2329,1.2308,1.2629,1.2712,1.2358,1.1922,1.1422,1.0923,1.0176,0.9433,0.8726,0.793,0.7707,0.756,0.7546,0.7571,0.7468,0.7596,0.8113,0.9396,1.0331,1.1177,1.2304,1.3118,1.3737,1.4186,1.4206,1.4168,1.4335,1.4349,1.4482,1.4657,1.4744,1.4764,1.4825,1.4906,1.5041,1.5095,1.5053,1.5164,1.5239,1.5232,1.5264,1.5444,1.5591,1.5625,1.5665,1.5772,1.5785,1.1826,1.2725,1.1516,1.1065,1.0965,1.1566,1.1416,1.0922,1.2049,1.1999,1.0872,1.0712,1.0289,0.9703,0.9444,0.9204,0.9228,0.9256,0.9159,0.8857,0.891,0.891,0.891,0.8804,0.8804,0.8804,0.8804,0.8804,0.8804,0.8804,0.8804,0.8804,0.8804,0.8804,0.8804,0.8804,0.8844,0.8911,0.9105,0.9339,0.9559,0.9679,0.9773,1.0027,1.0114,1.0296,1.0616,1.1133,1.1697,1.1989,1.2127,1.2202,1.1559,1.0802,1.0423,1.0148,0.9787,0.9373,0.9064,0.8538,0.8042,0.7941,0.8011,0.8115,0.8848,1.0202,1.0617,1.09,1.1118,1.1365,1.1051,1.0864,1.0513,1.0148,0.963,0.8951,0.8205,0.7488,0.7003,0.6911,0.6965,0.7073,0.7513,0.764,0.8442,0.9402,1.0389,1.1048,1.1861,1.2936,1.3209,1.3913,1.4102,1.4115,1.4142,1.4215,1.4168,1.4229,1.4369,1.4429,1.4529,1.471,1.4906,1.4805,1.469,1.4832,1.494,1.4919,1.5006,1.517,1.5325,1.5324,1.5464,1.5598,1.5745,1.1707,1.2365,1.2377,1.2089,1.1616,1.1715,1.1107,1.0115,1.0931,1.083,1.0167,1.0012,0.9703,0.9197,0.9099,0.8956,0.8956,0.9008,0.8903,0.8857,0.8804,0.8804,0.8804,0.8804,0.8804,0.8804,0.8804,0.8804,0.8804,0.8804,0.8804,0.8804,0.8804,0.8804,0.8804,0.8804,0.8811,0.8818,0.8905,0.9085,0.9299,0.9385,0.9479,0.9693,0.9813,0.9833,1.0066,1.0112,1.0653,1.1039,1.0728,1.0404,0.985,0.8995,0.8623,0.8548,0.8345,0.796,0.7593,0.7251,0.6819,0.635,0.6254,0.6129,0.6734,0.8187,0.9118,0.9278,0.9569,0.981,0.9969,0.9857,0.9728,0.9432,0.9241,0.8551,0.7936,0.7289,0.656,0.6506,0.6606,0.6987,0.7518,0.8162,0.8883,0.9897,1.1056,1.1917,1.2632,1.3457,1.2942,1.347,1.3913,1.4004,1.4088,1.4088,1.4088,1.4088,1.4202,1.4235,1.4249,1.4394,1.4554,1.4361,1.4327,1.4428,1.4615,1.4596,1.4677,1.4811,1.5007,1.5064,1.5204,1.5331,1.5558,1.0978,1.1769,1.1322,1.0985,1.0763,1.073,1.0364,0.9953,1.0218,0.9969,0.9465,0.9614,0.9413,0.8857,0.8804,0.8804,0.8804,0.8804,0.8804,0.8804,0.8804,0.8804,0.8804,0.8804,0.8804,0.8804,0.8804,0.8804,0.8804,0.8804,0.8804,0.8804,0.8804,0.8804,0.8804,0.8804,0.8804,0.8804,0.8804,0.8905,0.9065,0.9092,0.9205,0.9399,0.9492,0.9532,0.9673,0.9686,0.9969,0.984,0.9387,0.8543,0.7887,0.7135,0.7081,0.714,0.7102,0.6789,0.6593,0.6408,0.6036,0.5693,0.5495,0.5774,0.5645,0.6984,0.7554,0.778,0.87,0.905,0.9327,0.9295,0.9359,0.9206,0.921,0.8922,0.8699,0.8345,0.7679,0.7223,0.7418,0.7886,0.8546,0.9346,0.9989,1.0038,1.1249,1.1688,1.2631,1.3756,1.3256,1.3118,1.373,1.3997,1.4088,1.4088,1.4088,1.4088,1.4088,1.4122,1.4162,1.4128,1.4095,1.4108,1.4115,1.4213,1.43,1.4302,1.4302,1.4428,1.4576,1.4754,1.486,1.505,1.5284,1.0354,1.1022,0.9814,0.9235,0.9351,0.9426,0.9485,0.957,0.9644,0.9361,0.8962,0.9413,0.9256,0.8956,0.8804,0.8804,0.8804,0.8804,0.8804,0.8804,0.8804,0.8804,0.8804,0.8804,0.8804,0.8804,0.8804,0.8804,0.8804,0.8804,0.8804,0.8804,0.8804,0.8804,0.8804,0.8804,0.8804,0.8804,0.8804,0.8804,0.8818,0.8804,0.8985,0.9064,0.915,0.9325,0.9492,0.9674,0.966,0.9042,0.8329,0.7435,0.6766,0.6162,0.6472,0.6604,0.6672,0.6538,0.6408,0.6367,0.6001,0.5683,0.562,0.5686,0.5686,0.5933,0.6412,0.6966,0.785,0.8117,0.8377,0.8732,0.8784,0.9295,0.9342,0.9513,0.9533,0.9316,0.8708,0.8021,0.8227,0.8676,0.9344,1.0202,1.0539,1.0693,1.1025,1.1282,1.1902,1.3098,1.3503,1.3412,1.3737,1.3997,1.4088,1.4088,1.4088,1.4088,1.4088,1.4088,1.4088,1.4088,1.4088,1.4088,1.4088,1.4173,1.4088,1.4155,1.4135,1.4142,1.4302,1.4442,1.4563,1.4696,1.4977,1.1105,1.0352,1.0374,0.9881,0.915,0.9249,0.9133,0.8737,0.8899,0.8903,0.883,0.885,0.8857,0.8804,0.8804,0.8804,0.8804,0.8804,0.8804,0.8804,0.8804,0.8804,0.8804,0.8804,0.8804,0.8804,0.8804,0.8804,0.8804,0.8804,0.8804,0.8804,0.8804,0.8804,0.8804,0.8804,0.8804,0.8804,0.8804,0.8804,0.8804,0.8811,0.8818,0.8878,0.8891,0.8925,0.9072,0.9539,0.9379,0.8741,0.7846,0.6958,0.6442,0.6103,0.6393,0.6865,0.6885,0.6667,0.6604,0.683,0.666,0.6254,0.6392,0.682,0.6711,0.6502,0.6809,0.6721,0.7211,0.6814,0.7038,0.7633,0.7971,0.9325,0.9906,1.033,1.0484,0.997,0.9377,0.8937,0.8746,0.899,0.9214,0.9953,1.0438,1.0847,1.1853,1.2161,1.25,1.3155,1.3649,1.3761,1.3866,1.3997,1.4088,1.4088,1.4088,1.4088,1.4088,1.4088,1.4088,1.4088,1.4088,1.4088,1.4088,1.4088,1.4088,1.4088,1.4095,1.4108,1.4108,1.4195,1.4235,1.4415,1.4683]},{"header":{"parameterUnit":"m.s-1","parameterCategory":1,"la1":31.0,"la2":29.5877,"lo1":-88.7671,"lo2":-86.6584,"dy":0.0162,"dx":0.0185,"nx":115,"ny":88,"refTime":"2024-08-20T12:00:00:Z","depth":0,"parameterNumber":3,"parameterNumberName":"V-component_of_WINDS"},"data":[0.0,0.0,0.0,0.0,0.0,0.0,0.0,0.0,0.0,0.0,0.0,0.0,0.0,0.0,0.0,0.0,0.0,0.0,0.0,0.0,0.0,0.0,0.0,0.0,0.0,0.0,0.0,0.0,0.0,0.0,0.0,0.0,0.0,0.0,0.0,0.0,0.0,0.0,0.0,0.0,0.0,0.0,0.0,0.0,0.0,0.0,0.0,0.0,0.0,0.0,0.0,0.0,0.0,0.0,0.0,0.0,0.0,0.0,0.0,0.0,0.0,0.0,0.0,0.0,0.0,0.0,0.0,0.0,0.0,0.0,0.0,0.0,0.0,0.0,0.0,0.0,0.0,0.0,0.0,0.0,0.0,0.0,0.0,0.0,0.0,0.0,0.0,0.0,0.0,0.0,0.0,0.0,0.0,0.0,0.0,0.0,0.0,0.0,0.0,0.0,0.0,0.0,0.0,0.0,0.0,0.0,0.0,0.0,0.0,0.0,0.0,0.0,0.0,0.0,0.0,0.0,0.0,0.0,0.0,0.0,0.0,0.0,0.0,0.0,0.0,0.0,0.0,0.0,0.0,0.0,0.0,0.0,0.0,0.0,0.0,0.0,0.0,0.0,0.0,0.0,0.0,0.0,0.0,0.0,0.0,0.0,0.0,0.0,0.0,0.0,0.0,0.0,0.0,0.0,0.0,0.0,0.0,0.0,0.0,0.0,0.0,0.0,0.0,0.0,0.0,0.0,0.0,0.0,0.0,0.0,0.0,0.0,0.0,0.0,0.0,0.0,0.0,0.0,0.0,0.0,0.0,0.0,0.0,0.0,0.0,0.0,0.0,0.0,0.0,0.0,0.0,0.0,0.0,0.0,0.0,0.0,0.0,0.0,0.0,0.0,0.0,0.0,0.0,0.0,0.0,0.0,0.0,0.0,0.0,0.0,0.0,0.0,0.0,0.0,0.0,0.0,0.0,0.0,0.0,0.0,0.0,0.0,0.0,0.0,0.0,0.0,0.0,0.0,0.0,0.0,0.0,0.0,0.0,0.0,0.0,0.0,0.0,0.0,0.0,0.0,0.0,0.0,0.0,0.0,0.0,0.0,0.0,0.0,0.0,0.0,0.0,0.0,0.0,0.0,0.0,0.0,0.0,0.0,0.0,0.0,0.0,0.0,0.0,0.0,0.0,0.0,0.0,0.0,0.0,0.0,0.0,0.0,0.0,0.0,0.0,0.0,0.0,0.0,0.0,0.0,0.0,0.0,0.0,0.0,0.0,0.0,0.0,0.0,0.0,0.0,0.0,0.0,0.0,0.0,0.0,0.0,0.0,0.0,0.0,0.0,0.0,0.0,0.0,0.0,0.0,0.0,0.0,0.0,0.0,0.0,0.0,0.0,0.0,0.0,0.0,0.0,0.0,0.0,0.0,0.0,0.0,0.0,0.0,0.0,0.0,0.0,0.0,0.0,0.0,0.0,0.0,0.0,0.0,0.0,0.0,0.0,0.0,0.0,0.0,0.0,0.0,0.0,0.0,0.0,0.0,0.0,0.0,0.0,0.0,0.0,0.0,0.0,0.0,0.0,0.0,0.0,0.0,0.0,0.0,0.0,0.0,0.0,0.0,0.0,0.0,0.0,0.0,0.0,0.0,0.0,0.0,0.0,0.0,0.0,0.0,0.0,0.0,0.0,0.0,0.0,0.0,0.0,0.0,0.0,0.0,0.0,0.0,0.0,0.0,0.0,0.0,0.0,0.0,0.0,0.0,0.0,0.0,0.0,0.0,0.0,0.0,0.0,0.0,0.0,0.0,0.0,0.0,0.0,0.0,0.0,0.0,0.0,0.0,0.0,0.0,0.0,0.0,0.0,0.0,0.0,0.0,0.0,0.0,0.0,0.0,0.0,0.0,0.0,0.0,0.0,0.0,0.0,0.0,0.0,0.0,0.0,0.0,0.0,0.0,0.0,0.0,0.0,0.0,0.0,0.0,0.0,0.0,0.0,0.0,0.0,0.0,0.0,0.0,0.0,0.0,0.0,0.0,0.0,0.0,0.0,0.0,0.0,0.0,0.0,0.0,0.0,0.0,0.0,0.0,0.0,0.0,0.0,0.0,0.0,0.0,0.0,0.0,0.0,0.0,0.0,0.0,0.0,0.0,0.0,0.0,0.0,0.0,0.0,0.0,0.0,0.0,0.0,0.0,0.0,0.0,0.0,0.0,0.0,0.0,0.0,0.0,0.0,0.0,0.0,0.0,0.0,0.0,0.0,0.0,0.0,0.0,0.0,0.0,0.0,0.0,0.0,0.0,0.0,0.0,0.0,0.0,0.0,0.0,0.0,0.0,0.0,0.0,0.0,0.0,0.0,0.0,0.0,0.0,0.0,0.0,0.0,0.0,0.0,0.0,0.0,0.0,0.0,0.0,0.0,0.0,0.0,0.0,0.0,0.0,0.0,0.0,0.0,0.0,0.0,0.0,0.0,0.0,0.0,0.0,0.0,0.0,0.0,0.0,0.0,0.0,0.0,0.0,0.0,0.0,0.0,0.0,0.0,0.0,0.0,0.0,0.0,0.0,0.0,0.0,0.0,0.0,0.0,0.0,0.0,0.0,0.0,0.0,0.0,0.0,0.0,0.0,0.0,0.0,0.0,0.0,0.0,0.0,0.0,0.0,0.0,0.0,0.0,0.0,0.0,0.0,0.0,0.0,0.0,0.0,0.0,0.0,0.0,0.0,0.0,0.0,0.0,0.0,0.0,0.0,0.0,0.0,0.0,0.0,0.0,0.0,0.0,0.0,0.0,0.0,0.0,0.0,0.0,0.0,0.0,0.0,0.0,0.0,0.0,0.0,0.0,0.0,0.0,0.0,0.0,0.0,0.0,0.0,0.0,0.0,0.0,0.0,0.0,0.0,0.0,0.0,0.0,0.0,0.0,0.0,0.0,0.0,0.0,0.0,0.0,0.0,0.0,0.0,0.0,0.0,0.0,0.0,0.0,0.0,0.0,0.0,0.0,0.0,0.0,0.0,0.0,0.0,0.0,0.0,0.0,0.0,0.0,0.0,0.0,0.0,0.0,0.0,0.0,0.0,0.0,0.0,0.0,0.0,0.0,0.0,0.0,0.0,0.0,0.0,0.0,0.0,0.0,0.0,0.0,0.0,0.0,0.0,0.0,0.0,0.0,0.0,0.0,0.0,0.0,0.0,0.0,0.0,0.0,0.0,0.0,0.0,0.0,0.0,0.0,0.0,0.0,0.0,0.0,0.0,0.0,0.0,0.0,0.0,0.0,0.0,0.0,0.0,0.0,0.0,0.0,0.0,0.0,0.0,0.0,0.0,0.0,0.0,0.0,0.0,0.0,0.0,0.0,0.0,0.0,0.0,0.0,0.0,0.0,0.0,0.0,0.0,0.0,0.0,0.0,0.0,0.0,0.0,0.0,0.0,0.0,0.0,0.0,0.0,0.0,0.0,0.0,0.0,0.0,0.0,0.0,0.0,0.0,0.0,0.0,0.0,0.0,0.0,0.0,0.0,0.0,0.0,0.0,0.0,0.0,0.0,0.0,0.0,0.0,0.0,0.0,0.0,0.0,0.0,0.0,0.0,0.0,0.0,0.0,0.0,0.0,0.0,0.0,0.0,0.0,0.0,0.0,0.0,0.0,0.0,0.0,0.0,0.0,0.0,0.0,0.0,0.0,0.0,0.0,0.0,0.0,0.0,0.0,0.0,0.0,0.0,0.0,0.0,0.0,0.0,0.0,0.0,0.0,0.0,0.0,0.0,0.0,0.0,0.0,0.0,0.0,0.0,0.0,0.0,0.0,0.0,0.0,0.0,0.0,0.0,0.0,0.0,0.0,0.0,0.0,0.0,0.0,0.0,0.0,0.0,0.0,0.0,0.0,0.0,0.0,0.0,0.0,0.0,0.0,0.0,0.0,0.0,0.0,0.0,0.0,0.0,0.0,0.0,0.0,0.0,0.0,0.0,0.0,0.0,0.0,0.0,0.0,0.0,0.0,0.0,0.0,0.0,0.0,0.0,0.0,0.0,0.0,0.0,0.0,0.0,0.0,0.0,0.0,0.0,0.0,0.0,0.0,0.0,0.0,0.0,0.0,0.0,0.0,0.0,0.0,0.0,0.0,0.0,0.0,0.0,0.0,0.0,0.0,0.0,0.0,0.0,0.0,0.0,0.0,0.0,0.0,0.0,0.0,0.0,0.0,0.0,0.0,0.0,0.0,0.0,0.0,0.0,0.0,0.0,0.0,0.0,0.0,0.0,0.0,0.0,0.0,0.0,0.0,-0.0437,0.0,0.0,0.0,0.0,0.0,0.0,0.0,0.0,0.0,0.0,0.0,0.0,0.0,0.0,0.0,0.0,0.0,0.0,0.0,0.0,0.0,0.0,0.0,0.0,0.0,0.0,0.0,0.0,0.0,0.0,0.0,0.0,0.0,0.0,0.0,0.0,0.0,0.0,0.0,0.0,0.0,0.0,0.0,0.0,0.0,0.0,0.0,0.0,0.0,0.0,0.0,0.0,0.0,0.0,0.0,0.0,0.0,0.0,0.0,0.0,0.0,0.0,0.0,0.0,0.0,0.0,0.0,0.0,0.0,0.0,0.0,0.0,0.0,0.0,0.0,0.0,0.0,0.0,0.0,0.0,0.0,0.0,0.0,0.0,0.0,0.0,0.0,0.0,0.0,0.0,0.0,0.0,0.0,0.0,0.0,0.0,0.0,0.0,0.0,0.0,0.0,0.0,0.0,0.0,0.0,0.0,0.0,0.0,0.0,0.0,0.0,0.0,-0.0808,-0.0841,0.0,0.0,0.0,0.0,0.0,0.0,0.0,0.0,0.0,0.0,0.0,0.0,0.0,0.0,0.0,0.0,0.0,0.0,0.0,0.0,0.0,0.0,0.0,0.0,0.0,0.0,0.0,0.0,0.0,0.0,0.0,0.0,0.0,0.0,0.0,0.0,0.0,0.0,0.0,0.0,0.0,0.0,0.0,0.0,0.0,0.0,0.0,0.0,0.0,0.0,0.0,0.0,0.0,0.0,0.0,0.0,0.0,0.0,0.0,0.0,0.0,0.0,0.0,0.0,0.0,0.0,0.0,0.0,0.0,0.0,0.0,0.0,0.0,0.0,0.0,0.0,0.0,0.0,0.0,0.0,0.0,0.0,0.0,0.0,0.0,0.0,0.0,0.0,0.0,0.0,0.0,0.0,0.0,0.0,0.0,0.0,0.0,0.0,0.0,0.0,0.0,0.0,0.0,0.0,0.0,0.0,0.0,0.0,0.0,0.0,0.0,0.0,0.0,0.0,0.0,0.0,0.0,0.0,0.0,0.0,0.0,0.0,0.0,0.0,0.0,0.0,0.0,0.0,0.0,0.0,0.0,0.0,0.0,0.0,0.0,0.0,0.0,0.0,0.0,0.0,0.0,0.0,0.0,0.0,0.0,0.0,0.0,0.0,0.0,0.0,0.0,0.0,0.0,0.0,0.0,0.0,0.0,0.0,0.0,0.0,0.0,0.0,0.0,0.0,0.0,0.0,0.0,0.0,0.0,0.0,0.0,0.0,0.0,0.0,0.0,0.0,0.0,0.0,0.0,0.0,0.0,0.0,0.0,0.0,0.0,0.0,0.0,0.0,0.0,0.0,0.0,0.0,0.0,0.0,0.0,0.0,0.0,0.0,0.0,0.0,0.0,0.0,0.0,0.0,0.0,0.0,0.0,0.0,0.0,0.0,0.0,0.0,0.0,0.0,0.0,0.0,0.0,0.0,0.0,0.0,0.0,0.0,0.0,0.0,0.0,0.0,0.0,0.0,0.0,0.0,0.0,0.0,0.0,0.0,0.0,0.0,0.0,0.0,0.0,0.0,0.0,0.0,0.0,0.0,0.0,0.0,0.0,0.0,0.0,0.0,0.0,0.0,0.0,0.0,0.0,0.0,0.0,0.0,0.0,0.0,0.0,0.0,0.0,0.0,0.0,0.0,0.0,0.0,0.0,0.0,0.0,0.0,0.0,0.0,0.0,0.0,0.0,0.0,0.0,0.0,0.0,0.0,0.0,0.0,0.0,0.0,0.0,0.0,0.0,0.0,0.0,0.0,0.0,0.0,0.0,0.0,0.0,0.0,0.0,0.0,0.0,0.0,0.0,0.0,0.0,0.0,0.0,0.0,0.0,0.0,0.0,0.0,0.0,0.0,0.0,0.0,0.0,0.0,0.0,0.0,0.0,0.0,0.0,0.0,0.0,0.0,0.0,0.0,0.0,0.0,0.0,0.0,0.0,0.0,0.0,0.0,0.0,0.0,0.0,0.0,0.0,0.0,0.0,0.0,0.0,0.0,0.0,0.0,0.0,0.0,0.0,0.0,0.0,0.0,0.0,0.0,0.0,0.0,0.0,0.0,0.0,0.0,0.0,0.0,0.0,0.0,0.0,0.0,0.0,0.0,0.0,0.0,0.0,0.0,0.0,0.0,0.0,0.0,0.0,0.0,0.0,0.0,0.0,0.0,0.0,0.0,0.0,0.0,0.0,0.0,0.0,0.0,0.0,0.0,0.0,0.0,0.0,0.0,0.0,0.0,0.0,0.0,0.0,0.0,0.0,0.0,0.0,0.0,0.0,0.0,0.0,0.0,0.0,0.0,0.0,0.0,0.0,0.0,0.0,0.0,0.0,0.0,0.0,0.0,0.0,0.0,0.0,0.0,0.0,0.0,0.0,0.0,0.0,0.0,0.0,0.0,0.0,0.0,0.0,0.0,0.0,0.0,0.0,0.0,0.0,0.0,0.0,0.0,0.0,0.0,0.0,0.0,0.0,0.0,0.0,0.0,0.0,0.0,0.0,0.0,0.0,0.0,0.0,0.0,0.0,0.0,0.0,0.0,0.0,0.0,0.0,0.0,0.0,0.0,0.0,0.0,0.0,0.0,0.0,0.0,0.0,0.0,0.0,0.0,0.0,0.0,0.0,0.0,0.0,0.0,0.0,0.0,0.0,0.0,0.0,0.0,0.0,0.0,0.0,0.0,0.0,0.0,0.0,0.0,0.0,0.0,0.0,0.0,0.0,0.0,0.0,0.0,0.0,0.0,0.0,0.0,0.0,0.0,0.0,0.0,0.0,0.0,0.0,0.0,0.0,0.0,0.0,0.0,0.0,0.0,0.0,0.0,0.0,0.0,0.0,0.0,0.0,0.0,0.0,0.0,0.0,0.0,0.0,0.0,0.0,0.0,0.0,0.0,0.0,0.0,0.0,0.0,0.0,0.0,0.0,0.0,0.0,0.0,0.0,0.0,0.0,0.0,0.0,0.0,0.0,0.0,0.0,0.0,0.0,0.0,0.0,0.0,0.0,0.0,0.0,0.0,0.0,0.0,0.0,0.0,0.0,0.0,0.0,0.0,0.0,0.0,0.0,0.0,0.0,0.0,0.0,0.0,0.0,0.0,0.0,0.0,0.0,0.0,0.0,0.0,0.0,0.0,0.0,0.0,0.0,0.0,0.0,0.0,0.0,0.0,0.0,0.0,0.0,0.0,0.0,0.0,0.0,0.0,0.0,0.0,0.0,0.0,0.0,0.0,0.0,0.0,0.0,0.0,0.0,0.0,0.0,0.0,0.0,0.0,0.0,0.0,0.0,0.0,0.0,0.0,0.0,0.0,0.0,0.0,0.0,0.0,0.0,0.0,0.0,0.0,0.0,0.0,0.0,0.0,0.0,0.0,0.0,0.0,0.0,0.0,0.0,0.0,0.0,0.0,0.0,0.0,0.0,0.0,0.0,0.0,0.0,0.0,0.0,0.0,0.0,0.0,0.0,0.0,0.0,0.0,0.0,0.0,0.0,0.0,0.0,0.0,0.0,0.0,0.0,0.0,0.0,0.0,0.0,0.0,0.0,0.0,0.0,0.0,0.0,0.0,0.0,0.0,0.0,0.0,0.0,0.0,0.0,0.0,0.0,0.0,0.0,0.0,0.0,0.0,0.0,0.0,0.0,0.0,0.0,0.0,0.0,0.0,0.0,0.0,0.0,0.0,0.0,0.0,0.0,0.0,0.0,0.0,0.0,0.0,0.0,0.0,0.0,0.0,0.0,0.0,0.0,0.0,0.0,0.0,0.0,0.0,0.0,0.0,0.0,0.0,0.0,0.0,0.0,0.0,0.0,0.0,0.0,0.0,0.0,0.0,0.0,0.0,0.0,0.0,0.0,0.0,0.0,0.0,0.0,0.0,0.0,0.0,0.0,0.0,0.0,0.0,0.0,0.0,0.0,0.0,0.0,0.0,0.0,0.0,0.0,0.0,0.0,0.0,0.0,0.0,0.0,0.0,0.0,0.0,0.0,0.0,0.0,0.0,0.0,0.0,0.0,0.0,0.0,0.0,0.0,0.0,0.0,0.0,0.0,0.0,0.0,0.0,0.0,0.0,0.0,0.0,0.0,0.0,0.0,0.0,0.0,0.0,0.0,0.0,0.0,0.0,0.0,0.0,0.0,0.0,0.0,0.0,0.0,0.0,0.0,0.0,0.0,0.0,0.0,0.0,0.0,0.0,0.0,0.0,0.0,0.0,0.0,0.0,0.0,0.0,0.0,0.0,0.0,0.0,0.0,0.0,0.0,0.0,0.0,0.0,0.0,0.0,0.0,0.0,0.0,0.0,0.0,0.0,0.0,0.0,0.0,0.0,0.0,0.0,0.0,0.0,0.0,0.0,0.0,0.0,0.0,0.0,0.0,0.0,0.0,0.0,0.0,0.0,0.0,0.0,0.0,0.0,0.0,0.0,0.0,0.0,0.0,0.0,0.0,0.0,0.0,0.0,0.0,0.0,0.0,0.0,0.0,0.0,0.0,0.0,0.0,0.0,0.0,-0.1839,-0.0099,0.0,0.0,0.0,0.0,0.0,0.0,0.0,0.0,0.0,0.0,0.0,0.0,0.0,0.0,0.0,0.0,0.0,0.0,0.0,0.0,0.0,0.0,0.0,0.0,0.0,0.0,0.0,0.0,0.0,0.0,0.0,0.0,0.0,0.0,0.0,0.0,0.0,0.0,0.0,0.0,0.0,0.0,0.0,0.0,0.0,0.0,0.0,0.0,0.0,0.0,0.0,0.0,0.0,0.0,0.0,0.0,0.0,0.0,0.0,0.0,0.0,0.0,0.0,0.0,0.0,0.0,0.0,0.0,0.0,0.0,0.0,0.0,0.0,0.0,0.0,0.0,0.0,0.0,0.0,0.0,0.0,0.0,0.0,0.0,0.0,0.0,0.0,0.0,0.0,0.0,0.0,0.0,0.0,0.0,0.0,0.0,0.0,0.0,0.0,0.0,0.0,0.0,0.0,0.0,0.0,0.0,0.0,0.0,0.0,0.0,0.0,0.0,0.0,0.0,-0.0928,-0.0297,0.0,0.0,0.1202,0.1848,0.0,0.0,0.0,0.0,0.0,0.0,0.0,0.0,0.0,0.0,0.0,0.0,0.0,0.0,0.0,0.0,0.0,0.0,0.0,0.0,0.0,0.0,0.0,0.0,0.0,0.0,0.0,0.0,0.0,0.0,0.0,0.0,0.0,0.0,0.0,0.0,0.0,0.0,0.0,0.0,0.0,0.0,0.0,0.0,0.0,0.0,0.0,0.0,0.0,0.0,0.0,0.0,0.0,0.0,0.0,0.0,0.0,0.0,0.0,0.0,0.0,0.0,0.0,0.0,0.0,0.0,0.0,0.0,0.0,0.0,0.0,0.0,0.0,0.0,0.0,0.0,0.0,0.0,0.0,0.0,0.0,0.0,0.0,0.0,0.0,0.0,0.0,0.0,0.0,0.0,0.0,0.0,0.0,0.0,0.0,0.0,0.0,0.0,0.0,0.0,0.0,0.0,0.0,0.0,0.0,0.0,0.0,0.0,0.0,-0.2097,-0.0761,0.0,0.0,0.1117,0.2045,0.2625,0.0,0.0,0.0,0.0,0.0,0.0,0.0,0.0,0.0,0.0,0.0,0.0,0.0,0.0,0.0,0.0,0.0,0.0,0.0,0.0,0.0,0.0,0.0,0.0,0.0,0.0,0.0,0.0,0.0,0.0,0.0,0.0,0.0,0.0,0.0,0.0,0.0,0.0,0.0,0.0,0.0,0.0,0.0,0.0,0.0,0.0,0.0,0.0,0.0,0.0,0.0,0.0,0.0,0.0,0.0,0.0,0.0,0.0,0.0,0.0,0.0,0.0,0.0,0.0,0.0,0.0,0.0,0.0,0.0,0.0,0.0,0.0,0.0,0.0,0.0,0.0,0.0,0.0,0.0,0.0,0.0,0.0,0.0,0.0,0.0,0.0,0.0,0.0,0.0,0.0,0.0,0.0,0.0,0.0,0.0,0.0,0.0,0.0,0.0,0.0,0.0,0.0,0.0,0.0,0.0,0.0,0.0,0.0,-0.3549,-0.1219,0.0,0.0,0.0,0.0855,0.0,0.0,0.0,0.0,0.0,0.0,0.0,0.0,0.0,0.0,0.0,0.0,0.0,0.0,0.0,0.0,0.0,0.0,0.0,0.0,0.0,0.0,0.0,0.0,0.0,0.0,0.0,0.0,0.0,0.0,0.0,0.0,0.0,0.0,0.0,0.0,0.0,0.0,0.0,0.0,0.0,0.0,0.0,0.0,0.0,0.0,0.0,0.0,0.0,0.0,0.0,0.0,0.0,0.0,0.0,0.0,0.0,0.0,0.0,0.0,0.0,0.0,0.0,0.0,0.0,0.0,0.0,0.0,0.0,0.0,0.0,0.0,0.0,0.0,0.0,0.0,0.0,0.0,0.0,0.0,0.0,0.0,0.0,0.0,0.0,0.0,0.0,0.0,0.0,0.0,0.0,0.0,0.0,0.0,0.0,0.0,0.0,0.0,0.0,0.0,0.0,0.0,0.0,0.0,0.0,0.0,0.0,0.0,0.0,-0.3402,-0.1249,0.0,0.0,0.0,0.0653,0.0,0.0,0.0,0.0,0.0,0.0,0.0,0.0,0.0,0.0,0.0,0.0,0.0,0.0,0.0,0.0,0.0,0.0,0.0,0.0,0.0,0.0,0.0,0.0,0.0,0.0,0.0,0.0,0.0,0.0,0.0,0.0,0.0,0.0,0.0,0.0,0.0,0.0,0.0,0.0,0.0,0.0,0.0,0.0,0.0,0.0,0.0,0.0,0.0,0.0,0.0,0.0,0.0,0.0,0.0,0.0,0.0,0.0,0.0,0.0,0.0,0.0,0.0,0.0,0.0,0.0,0.0,0.0,0.0,0.0,0.0,0.0,0.0,0.0,0.0,0.0,0.0,0.0,0.0,0.0,0.0,0.0,0.0,0.0,0.0,0.0,0.0,0.0,0.0,0.0,0.0,0.0,0.0,0.0,0.0,0.0,0.0,0.0,0.0,0.0,0.0,0.0,0.0,0.0,0.0,0.0,0.0,0.0,-0.1703,-0.2065,-0.0691,0.0,0.0,0.0,0.0786,0.0,0.0,0.0,0.0,0.0,0.0,0.0,0.0,0.0,0.0,0.0,0.0,0.0,0.0,0.0,0.0,0.0,0.0,0.0,0.0,0.0,0.0,0.0,0.0,0.0,0.0,0.0,0.0,0.0,0.0,0.0,0.0,0.0,0.0,0.0,0.0,0.0,0.0,0.0,0.0,0.0,0.0,0.0,0.0,0.0,0.0,0.0,0.0,0.0,0.0,0.0,0.0,0.0,0.0,0.0,0.0,0.0,0.0,0.0,0.0,0.0,0.0,0.0,0.0,0.0,0.0,0.0,0.0,0.0,0.0,0.0,0.0,0.0,0.0,0.0,0.0,0.0,0.0,0.0,0.0,0.0,0.0,0.0,0.0,0.0,0.0,0.0,0.0,0.0,0.0,0.0,0.0,0.0,0.0,0.0,0.0,0.0,0.0,0.0,0.0,0.0,0.0,0.0,0.0,0.0,0.0,0.0,0.0,-0.147,0.0,0.0,0.0,0.0,0.0,0.1072,0.0,0.0,0.0,0.0,0.0,0.0,0.0,0.0,0.0,0.0,0.0,0.0,0.0,0.0,0.0,0.0,0.0,0.0,0.0,0.0,0.0,0.0,0.0,0.0,0.0,0.0,0.0,0.0,0.0,0.0,0.0,0.0,0.0,0.0,0.0,0.0,0.0,0.0,0.0,0.0,0.0,0.0,0.0,0.0,0.0,0.0,0.0,0.0,0.0,0.0,0.0,0.0,0.0,0.0,0.0,0.0,0.0,0.0,0.0,0.0,0.0,0.0,0.0,0.0,0.0,0.0,0.0,0.0,0.0,0.0,0.0,0.0,0.0,0.0,0.0,0.0,0.0,0.0,0.0,0.0,0.0,0.0,0.0,0.0,0.0,0.0,0.0,0.0,0.0,0.0,0.0,0.0,0.0,0.0,0.0,0.0,0.0,0.0,0.0,0.0,0.0,0.0,0.0,0.0,0.0,0.0,0.0,0.0,-0.3113,0.0,0.0,0.0,0.0,0.0,0.0756,0.0,0.0,0.0,0.0,0.0,0.0,0.0,0.0,0.0,0.0,0.0,0.0,0.0,0.0,0.0,0.0,0.0,0.0,0.0,0.0,0.0,0.0,0.0,0.0,0.0,0.0,0.0,0.0,0.0,0.0,0.0,0.0,0.0,0.0,0.0,0.0,0.0,0.0,0.0,0.0,0.0,0.0,0.0,0.0,0.0,0.0,0.0,0.0,-1.1663,0.0,0.0,0.0,0.0,0.0,0.0,0.0,0.0,0.0,0.0,0.0,0.0,0.0,0.0,0.0,0.0,0.0,0.0,0.0,0.0,0.0,0.0,0.0,0.0,0.0,0.0,0.0,0.0,0.0,0.0,0.0,0.0,0.0,0.0,0.0,0.0,0.0,0.0,0.0,0.0,0.0,0.0,0.0,0.0,0.0,0.0,0.0,0.0,0.0,0.0,0.0,0.0,0.0,0.0,0.0,0.0,0.0,0.0,0.0,-0.6643,-0.3219,-0.1085,0.0,0.0,0.0,0.0355,0.0,0.0,0.0,0.0,0.0,0.0,0.0,0.0,0.0,0.0,0.0,0.0,0.0,0.0,0.0,0.0,0.0,0.0,0.0,0.0,0.0,0.0,0.0,0.0,0.0,0.0,0.0,0.0,0.0,0.0,0.0,0.0,0.0,0.0,0.0,0.0,0.0,0.0,0.0,0.0,0.0,0.0,0.0,0.0,0.0,0.0,0.0,0.0,0.0,0.0,0.0,0.0,0.0,0.0,0.0,0.0,0.0,0.0,0.0,0.0,0.0,0.0,0.0,0.0,0.0,0.0,0.0,0.0,0.0,0.0,0.0,0.0,0.0,0.0,0.0,0.0,0.0,0.0,0.0,0.0,0.0,0.0,0.0,0.0,0.0,0.0,0.0,0.0,0.0,0.0,0.0,0.0,0.0,0.0,0.0,0.0,0.0,0.0,0.0,0.0,0.0,0.0,0.0,0.0,0.0,0.0,0.0,-1.0628,-1.0064,-0.7323,-0.3168,-0.0677,0.0,0.0,0.0146,0.0558,0.0,0.0,0.0,0.0,0.0,0.0,0.0,0.0,0.0,0.0,0.0,0.0,0.0,0.0,0.0,0.0,0.0,0.0,0.0,0.0,0.0,0.0,0.0,0.0,0.0,0.0,0.0,0.0,0.0,0.0,0.0,0.0,0.0,0.0,0.0,0.0,0.0,0.0,-0.9581,-1.1645,0.0,0.0,0.0,0.0,0.0,0.0,0.0,0.0,-1.2847,0.0,0.0,0.0,0.0,0.0,0.0,0.0,0.0,0.0,0.0,0.0,0.0,0.0,0.0,0.0,0.0,0.0,0.0,0.0,0.0,0.0,0.0,0.0,0.0,0.0,0.0,0.0,0.0,0.0,0.0,0.0,0.0,0.0,0.0,0.0,0.0,0.0,0.0,0.0,0.0,0.0,0.0,0.0,0.0,0.0,0.0,0.0,0.0,0.0,0.0,0.0,0.0,0.0,0.0,0.0,0.0,-1.2981,-1.0996,-1.0055,-1.0391,-0.7375,-0.3835,0.0,0.0,0.0929,0.2859,0.0,0.0,0.0,0.0,0.0,0.0,0.0,0.0,0.0,0.0,0.0,0.0,0.0,0.0,0.0,0.0,0.0,0.0,0.0,0.0,0.0,0.0,0.0,0.0,0.0,0.0,0.0,0.0,0.0,0.0,0.0,0.0,0.0,0.0,0.0,0.0,0.0,0.0,0.0,-1.3357,-1.473,0.0,0.0,0.0,0.0,0.0,0.0,0.0,0.0,-1.3252,0.0,0.0,0.0,0.0,0.0,0.0,0.0,0.0,0.0,0.0,0.0,0.0,0.0,0.0,0.0,0.0,0.0,0.0,0.0,0.0,0.0,0.0,0.0,0.0,0.0,0.0,0.0,0.0,0.0,0.0,0.0,0.0,0.0,0.0,0.0,0.0,0.0,0.0,0.0,0.0,0.0,0.0,0.0,0.0,0.0,0.0,0.0,0.0,0.0,0.0,0.0,0.0,0.0,0.0,0.0,-1.3103,-1.2071,-1.1519,-1.1737,-0.9365,-0.6522,-0.3515,-0.1817,-0.0276,0.0,0.0,0.0,0.0,0.0,0.0,0.0,0.0,0.0,0.0,0.0,0.0,0.0,0.0,0.0,0.0,0.0,0.0,0.0,0.0,0.0,0.0,0.0,0.0,0.0,0.0,0.0,0.0,0.0,0.0,0.0,0.0,0.0,0.0,0.0,0.0,0.0,0.0,0.0,0.0,-1.5164,-1.5741,-1.4869,0.0,0.0,0.0,0.0,0.0,0.0,-1.4468,-1.4119,0.0,0.0,0.0,0.0,0.0,0.0,0.0,0.0,0.0,0.0,0.0,0.0,0.0,0.0,0.0,0.0,0.0,0.0,0.0,0.0,0.0,0.0,0.0,0.0,0.0,0.0,0.0,0.0,0.0,0.0,0.0,0.0,0.0,0.0,0.0,0.0,0.0,0.0,0.0,0.0,0.0,0.0,0.0,0.0,0.0,0.0,0.0,0.0,0.0,0.0,0.0,0.0,0.0,0.0,0.0,-1.2905,-1.2996,-1.2919,-1.2599,-1.0656,-0.8702,-0.6987,-0.432,-0.2533,0.0,0.0,0.0,0.0,0.0,0.0,0.0,0.0,0.0,0.0,0.0,0.0,0.0,0.0,0.0,0.0,0.0,0.0,0.0,0.0,0.0,0.0,0.0,0.0,0.0,0.0,0.0,0.0,0.0,0.0,0.0,0.0,0.0,0.0,0.0,0.0,0.0,0.0,0.0,0.0,0.0,-1.6716,-1.6028,-1.5129,0.0,0.0,0.0,0.0,-1.4964,-1.5256,0.0,0.0,0.0,0.0,0.0,0.0,0.0,0.0,0.0,0.0,0.0,0.0,0.0,0.0,0.0,0.0,0.0,0.0,0.0,0.0,0.0,0.0,0.0,0.0,0.0,0.0,0.0,0.0,0.0,0.0,0.0,0.0,0.0,0.0,0.0,0.0,0.0,0.0,0.0,0.0,0.0,0.0,0.0,0.0,0.0,0.0,0.0,0.0,0.0,0.0,0.0,0.0,0.0,0.0,0.0,0.0,-1.3786,-1.311,-1.2986,-1.3585,-1.1696,-0.9887,-0.8409,-0.7149,-0.5575,0.0,0.0,0.0,0.0,0.0,0.0,0.0,0.0,0.0,0.0,0.0,0.0,0.0,0.0,0.0,0.0,0.0,0.0,0.0,0.0,0.0,0.0,0.0,0.0,0.0,0.0,0.0,0.0,0.0,0.0,0.0,0.0,0.0,0.0,0.0,0.0,0.0,0.0,0.0,0.0,0.0,-1.7829,-1.7712,-1.6663,-1.584,0.0,0.0,-1.4569,-1.621,-1.7119,0.0,0.0,0.0,0.0,0.0,0.0,0.0,0.0,0.0,0.0,0.0,0.0,0.0,0.0,0.0,0.0,0.0,0.0,0.0,0.0,0.0,0.0,0.0,0.0,0.0,0.0,0.0,0.0,0.0,0.0,0.0,0.0,0.0,0.0,0.0,0.0,0.0,0.0,0.0,0.0,0.0,0.0,0.0,0.0,0.0,0.0,0.0,0.0,0.0,0.0,0.0,0.0,0.0,0.0,0.0,-1.1608,-1.3975,-1.3588,-1.379,-1.4504,-1.2157,-1.0461,-0.96,-0.8225,-0.6855,0.0,0.0,0.0,0.0,0.0,0.0,0.0,0.0,0.0,0.0,0.0,0.0,0.0,0.0,0.0,0.0,0.0,0.0,0.0,0.0,0.0,0.0,0.0,0.0,0.0,0.0,0.0,0.0,0.0,0.0,0.0,0.0,0.0,0.0,0.0,0.0,0.0,0.0,0.0,0.0,0.0,0.0,-1.7947,-1.7352,0.0,0.0,0.0,-1.5442,-1.7147,0.0,0.0,0.0,0.0,0.0,0.0,0.0,0.0,0.0,0.0,0.0,0.0,0.0,0.0,0.0,0.0,0.0,0.0,0.0,0.0,0.0,0.0,0.0,0.0,0.0,0.0,0.0,0.0,0.0,0.0,0.0,0.0,0.0,0.0,0.0,0.0,0.0,0.0,0.0,0.0,0.0,0.0,0.0,0.0,0.0,0.0,0.0,0.0,0.0,0.0,0.0,0.0,0.0,0.0,0.0,0.0,0.0,-1.4261,-1.4452,-1.4757,-1.513,-1.2764,-1.1254,-1.0761,-0.9259,0.0,0.0,0.0,0.0,0.0,0.0,0.0,0.0,0.0,0.0,0.0,0.0,0.0,0.0,0.0,0.0,0.0,0.0,0.0,0.0,0.0,0.0,0.0,0.0,0.0,0.0,0.0,-0.5019,0.0,0.0,0.0,0.0,0.0,0.0,0.0,0.0,0.0,0.0,0.0,0.0,0.0,0.0,-1.7302,-1.8092,-1.8012,-1.7978,0.0,0.0,-1.6686,-1.7949,-1.7745,-1.6977,0.0,0.0,0.0,0.0,0.0,0.0,0.0,0.0,0.0,0.0,0.0,0.0,0.0,0.0,0.0,0.0,0.0,0.0,0.0,0.0,0.0,0.0,0.0,0.0,0.0,0.0,0.0,0.0,0.0,0.0,0.0,0.0,0.0,0.0,0.0,0.0,0.0,0.0,0.0,0.0,0.0,0.0,0.0,0.0,0.0,0.0,0.0,0.0,0.0,0.0,0.0,0.0,0.0,0.0,0.0,-1.4778,-1.5771,-1.586,-1.5201,-1.4099,-1.2942,-1.1857,-1.0863,-0.9907,0.0,0.0,0.0,0.0,0.0,0.0,0.0,0.0,0.0,0.0,0.0,0.0,0.0,0.0,0.0,0.0,0.0,0.0,0.0,0.0,0.0,0.0,0.0,0.0,0.0,0.0,0.0,0.0,0.0,0.0,0.0,0.0,0.0,0.0,0.0,0.0,0.0,0.0,0.0,0.0,0.0,-1.8112,-1.8785,-1.9043,-1.917,0.0,0.0,-1.8639,-1.8572,-1.9107,-1.856,-1.5819,0.0,0.0,0.0,0.0,0.0,0.0,0.0,0.0,0.0,0.0,0.0,0.0,0.0,0.0,0.0,0.0,0.0,0.0,0.0,0.0,0.0,0.0,0.0,0.0,0.0,0.0,0.0,0.0,0.0,0.0,0.0,0.0,0.0,0.0,0.0,0.0,0.0,0.0,0.0,0.0,0.0,0.0,0.0,0.0,0.0,0.0,0.0,0.0,0.0,0.0,0.0,0.0,0.0,-1.2978,-1.5636,-1.6167,-1.6235,-1.5896,-1.4681,-1.3243,-1.1603,-1.1838,-1.1165,0.0,0.0,0.0,0.0,0.0,0.0,0.0,0.0,0.0,0.0,0.0,0.0,0.0,0.0,0.0,0.0,0.0,0.0,0.0,0.0,0.0,0.0,0.0,0.0,0.0,0.0,0.0,0.0,-0.6703,-0.6702,-0.6598,0.0,0.0,0.0,0.0,0.0,0.0,0.0,0.0,0.0,0.0,-1.9571,-1.9443,-1.9787,0.0,0.0,-1.9551,-1.9088,-1.8872,-1.8283,-1.732,-1.5808,-1.5662,0.0,0.0,0.0,0.0,0.0,0.0,0.0,0.0,0.0,0.0,0.0,0.0,0.0,0.0,0.0,0.0,0.0,0.0,0.0,0.0,0.0,0.0,0.0,0.0,0.0,0.0,0.0,0.0,0.0,0.0,0.0,0.0,0.0,0.0,0.0,0.0,0.0,0.0,0.0,0.0,0.0,0.0,0.0,0.0,0.0,0.0,0.0,0.0,0.0,0.0,0.0,0.0,-1.3579,-1.6355,-1.7079,-1.7229,-1.6853,-1.5587,-1.4018,-1.2316,-1.2737,-1.2245,0.0,0.0,0.0,0.0,0.0,0.0,0.0,0.0,0.0,0.0,0.0,0.0,0.0,0.0,0.0,0.0,0.0,0.0,0.0,0.0,0.0,0.0,0.0,0.0,0.0,0.0,0.0,0.0,-0.71,-0.7371,-0.7356,0.0,0.0,0.0,0.0,0.0,0.0,0.0,0.0,0.0,0.0,-1.9479,-1.9335,-1.9484,-1.9756,-2.0079,-1.9523,-1.901,-1.9062,-1.8175,-1.7232,-1.63,0.0,0.0,0.0,0.0,0.0,0.0,0.0,0.0,0.0,0.0,0.0,0.0,0.0,0.0,0.0,0.0,0.0,0.0,0.0,0.0,0.0,0.0,0.0,0.0,0.0,0.0,0.0,0.0,0.0,0.0,-0.4361,0.0,0.0,0.0,0.0,0.0,0.0,0.0,0.0,0.0,0.0,0.0,0.0,0.0,0.0,0.0,0.0,0.0,0.0,0.0,0.0,0.0,0.0,-1.4971,-1.6912,-1.8783,-1.9155,-1.788,-1.7014,-1.5711,-1.4107,-1.3735,-1.316,-1.2254,0.0,0.0,0.0,0.0,0.0,0.0,0.0,0.0,0.0,0.0,0.0,0.0,0.0,0.0,0.0,0.0,0.0,0.0,0.0,0.0,0.0,0.0,0.0,0.0,0.0,0.0,-0.7082,-0.7839,-0.8211,0.0,0.0,0.0,0.0,0.0,0.0,0.0,0.0,0.0,0.0,-1.6123,-1.7423,-1.829,-1.7837,-1.7934,-1.8984,-1.8735,-1.8683,-1.9206,-1.9278,-1.8817,0.0,0.0,0.0,0.0,0.0,0.0,0.0,0.0,0.0,0.0,0.0,0.0,0.0,0.0,0.0,0.0,0.0,0.0,0.0,0.0,0.0,0.0,0.0,0.0,0.0,0.0,0.0,-0.4756,-0.4873,0.0,0.0,0.0,0.0,0.0,0.0,0.0,0.0,0.0,0.0,0.0,-1.4739,-1.6411,0.0,0.0,0.0,0.0,0.0,0.0,0.0,0.0,0.0,0.0,0.0,0.0,-1.504,-1.8191,-1.949,-1.9674,-1.8792,-1.7929,-1.6422,-1.4164,-1.4962,-1.4543,-1.2755,0.0,0.0,0.0,0.0,0.0,0.0,0.0,0.0,0.0,0.0,0.0,0.0,0.0,0.0,0.0,0.0,0.0,0.0,0.0,0.0,0.0,0.0,0.0,0.0,0.0,-0.6345,0.0,0.0,0.0,0.0,0.0,0.0,0.0,0.0,0.0,0.0,0.0,-1.5851,-1.6044,-1.8341,-1.9575,-1.8674,-1.8885,-1.9579,0.0,0.0,0.0,0.0,0.0,0.0,0.0,0.0,0.0,0.0,0.0,0.0,0.0,0.0,-2.3194,-2.0815,-2.1106,-2.1255,-1.983,0.0,0.0,0.0,0.0,0.0,0.0,0.0,0.0,0.0,0.0,0.0,0.0,0.0,0.0,-0.5855,0.0,-0.6418,0.0,0.0,0.0,0.0,0.0,0.0,0.0,0.0,-1.608,-1.7237,-1.6914,-1.8387,-1.8319,0.0,-1.608,-1.415,0.0,0.0,0.0,0.0,0.0,0.0,0.0,0.0,-1.5954,-1.892,-2.0049,-2.0428,-2.0103,-1.9017,-1.749,-1.5523,-1.5645,-1.5109,-1.3594,-1.2568,-1.1743,0.0,0.0,0.0,0.0,0.0,0.0,0.0,0.0,0.0,0.0,0.0,0.0,0.0,0.0,0.0,0.0,0.0,0.0,0.0,0.0,0.0,0.0,0.0,-0.6486,0.0,0.0,0.0,0.0,0.0,0.0,0.0,0.0,0.0,-1.667,-1.7298,-1.8067,-1.8031,-1.9179,-1.9916,-1.9758,0.0,0.0,0.0,0.0,0.0,0.0,0.0,-1.9743,-1.9767,-1.9529,-2.0292,-2.3086,-2.5888,-2.7321,-2.5764,0.0,0.0,-2.3796,-2.3813,-2.393,-2.2837,-2.1604,-2.1285,-2.3093,-2.6868,-2.9197,0.0,0.0,0.0,0.0,0.0,0.0,0.0,0.0,-0.6188,-0.6699,0.0,-0.7872,0.0,0.0,0.0,0.0,0.0,-1.2666,0.0,0.0,-1.7956,-1.9015,-1.9002,-1.9087,-1.91,-1.9048,-1.8376,-1.7579,-1.6546,-1.3305,0.0,0.0,0.0,0.0,0.0,0.0,-1.7626,-1.9083,-2.0519,-2.144,-2.183,-2.0268,-1.8922,-1.7945,-1.5944,-1.4814,-1.4727,-1.3594,-1.2725,-1.2256,-1.0585,0.0,0.0,0.0,0.0,0.0,0.0,0.0,0.0,0.0,0.0,0.0,0.0,0.0,0.0,0.0,0.0,0.0,0.0,0.0,0.0,-0.6927,0.0,0.0,0.0,0.0,0.0,0.0,0.0,0.0,0.0,0.0,-1.857,-1.9226,-2.0216,-2.0585,0.0,0.0,0.0,0.0,-2.0261,-2.0313,-1.9388,-1.9388,-2.1015,-2.229,-2.2631,-2.1445,0.0,0.0,-2.6251,-2.8462,-2.9063,-2.6992,-2.7848,-2.845,-2.6899,-2.6547,-2.6508,-2.6402,-2.5802,-2.5715,-2.6496,-2.8221,-2.9581,-0.5923,0.0,0.0,0.0,0.0,-0.4721,-0.5341,-0.6216,-0.6411,-0.6946,-0.7722,-0.8379,0.0,0.0,0.0,0.0,0.0,0.0,-1.5314,-1.6455,-1.8655,-1.97,-1.976,-2.0556,-2.0927,-2.0814,-2.0668,-2.0181,-1.9506,-1.9027,-1.6716,-1.277,0.0,0.0,0.0,0.0,-1.8348,-2.0162,-2.1362,-2.1975,-2.1939,-2.1428,-2.012,-1.8068,-1.6216,-1.5088,-1.4795,-1.4434,-1.376,-1.2744,-1.1924,0.0,0.0,0.0,0.0,0.0,0.0,0.0,0.0,0.0,0.0,0.0,0.0,0.0,0.0,0.0,0.0,0.0,0.0,0.0,-0.6346,-0.6986,-0.8566,0.0,0.0,0.0,0.0,0.0,0.0,0.0,0.0,0.0,-2.1819,-2.147,-2.1369,0.0,0.0,-1.9806,-2.0172,-2.133,-2.2198,-2.2294,0.0,0.0,0.0,-2.2864,-2.2972,-2.2644,-2.4106,-2.6105,-2.8494,-2.9363,-2.9591,-2.8913,-2.9227,-2.9401,-2.8959,-2.8164,-2.7682,-2.7645,-2.7686,-2.7873,-2.8197,-2.9074,-2.9732,-0.6224,-0.5466,-0.6834,-0.6946,-0.6086,-0.6002,-0.5999,-0.6132,-0.6625,-0.7438,-0.8427,-0.9249,-0.9787,-1.0122,-1.1113,0.0,0.0,0.0,-1.6803,-1.7603,-1.9175,-1.9928,-1.9979,-2.0898,-2.131,-2.1263,-2.1443,-2.1399,-2.1046,-2.1746,-2.0328,-1.697,0.0,0.0,-1.7553,-1.8678,-1.9978,-2.1427,-2.2027,-2.2325,-2.2372,-2.1656,-2.0277,-1.8057,-1.6563,-1.5501,-1.4861,-1.4609,-1.4092,-1.3164,-1.2549,-1.181,0.0,0.0,0.0,0.0,0.0,0.0,0.0,0.0,0.0,0.0,0.0,-0.8544,-0.6704,0.0,0.0,0.0,-0.7399,-0.7234,-0.6594,-0.771,0.0,0.0,0.0,0.0,0.0,0.0,0.0,-2.0035,-2.2548,-2.3886,-2.3217,-2.2692,-2.2366,-2.2418,-2.1968,-2.1516,-2.1002,0.0,-2.3114,-2.3125,-2.3144,-2.3144,-2.3135,-2.3835,-2.4127,-2.3227,-2.537,-2.7706,-2.9456,-2.9779,-2.9779,-2.9779,-2.9779,-2.9779,-2.9779,-2.9227,-2.8775,-2.8787,-2.8938,-2.9138,-2.9264,-2.9553,-2.9779,-0.6038,-0.6211,-0.7638,-0.7849,-0.7116,-0.6362,-0.6013,-0.6073,-0.6962,-0.8075,-0.9421,-1.0394,-1.1446,-1.2586,-1.4053,0.0,-1.6797,-1.7724,-1.8484,-1.9108,-1.9623,-1.9913,-2.0002,-2.0557,-2.0901,-2.1006,-2.1513,-2.1724,-2.1787,-2.2452,-2.2525,-2.2056,-2.2339,-2.2025,-2.124,-2.1641,-2.2154,-2.2536,-2.2413,-2.2564,-2.304,-2.1338,-1.9703,-1.823,-1.7106,-1.6017,-1.5008,-1.4474,-1.3988,-1.3557,-1.2754,-1.2193,-1.1939,0.0,0.0,0.0,0.0,0.0,0.0,0.0,0.0,0.0,0.0,0.0,0.0,0.0,0.0,0.0,-0.9692,0.0,-0.7351,-0.9003,0.0,0.0,0.0,-1.334,-1.5144,-1.7844,-1.9592,-1.9554,0.0,0.0,-2.3172,0.0,-2.3125,-2.3133,-2.3092,-2.3102,-2.3102,-2.3073,-2.3113,-2.3242,-2.3193,-2.3183,-2.3551,-2.5072,-2.5692,-2.397,-2.5984,-2.8402,-2.9534,-2.9779,-2.9779,-2.9779,-2.9779,-2.9779,-2.9779,-2.9741,-2.9779,-2.9729,-2.9754,-2.9767,-2.9754,-2.9767,-2.9779,-0.6523,-0.6587,-0.6967,-0.68,-0.6302,-0.6195,-0.6191,-0.6382,-0.7121,-0.8032,-0.9047,-1.081,-1.2706,-1.4542,-1.5445,-1.65,-1.7759,-1.8486,-1.907,-1.9635,-2.02,-2.0756,-2.1173,-2.1732,-2.255,-2.3487,-2.3636,-2.3672,-2.3686,-2.4363,-2.4422,-2.3861,-2.4888,-2.4165,-2.174,-2.2552,-2.2776,-2.2382,-2.2707,-2.294,-2.3027,-2.1338,-2.0192,-1.9831,-1.7779,-1.6601,-1.631,-1.5363,-1.4656,-1.4183,-1.3541,-1.3034,-1.2759,-1.1204,0.0,0.0,0.0,0.0,0.0,0.0,0.0,0.0,0.0,-1.3011,-1.0102,0.0,-1.3339,0.0,-1.1971,-1.0992,-0.9232,-1.0288,0.0,0.0,-1.4133,-1.5357,-1.8416,-1.9453,-2.0301,-2.1457,-2.2595,-2.3219,-2.3103,-2.3134,-2.3144,-2.312,-2.3144,-2.3135,-2.3135,-2.3135,-2.3456,-2.4114,-2.3675,-2.3764,-2.5357,-2.6113,-2.6322,-2.5755,-2.7069,-2.8426,-2.9611,-2.9779,-2.9779,-2.9779,-2.9779,-2.9779,-2.9779,-2.9779,-2.9779,-2.9779,-2.9779,-2.9779,-2.9779,-2.9779,-2.9779,-0.633,-0.6719,-0.6719,-0.6792,-0.68,-0.6145,-0.6121,-0.6566,-0.7394,-0.8395,-0.9748,-1.229,-1.4258,-1.5817,-1.6856,-1.7859,-1.8865,-1.9207,-1.9673,-2.02,-2.058,-2.1194,-2.2062,-2.2589,-2.3229,-2.3974,-2.4572,-2.4667,-2.4323,-2.5077,-2.5397,-2.5317,-2.5776,-2.5171,-2.3526,-2.4,-2.3947,-2.3187,-2.3153,-2.3125,-2.304,-2.1642,-2.0613,-2.0064,-1.8491,-1.7167,-1.6165,-1.5485,-1.4839,-1.4188,-1.3551,-1.3292,-1.3319,-1.2172,-1.158,0.0,0.0,0.0,0.0,0.0,0.0,0.0,0.0,0.0,0.0,0.0,-1.5312,-1.361,-1.3433,-1.2653,-1.0616,-1.1883,-1.3502,-1.514,-1.5602,-1.676,-1.935,-2.019,-2.108,-2.2476,-2.3391,-2.4013,-2.4492,-2.4657,-2.4449,-2.4158,-2.4366,-2.4522,-2.4183,-2.4405,-2.4777,-2.4987,-2.4819,-2.5373,-2.765,-2.7557,-2.7383,-2.787,-2.8452,-2.9106,-2.9702,-2.9779,-2.9779,-2.9779,-2.9779,-2.9779,-2.9779,-2.9779,-2.9779,-2.9779,-2.9779,-2.9779,-2.9779,-2.9779,-2.9946,-0.6009,-0.6719,-0.6846,-0.7307,-0.7892,-0.6338,-0.6207,-0.7111,-0.7832,-0.9163,-1.0982,-1.3978,-1.5753,-1.6658,-1.8035,-1.9097,-1.9798,-1.9886,-2.0188,-2.0718,-2.0964,-2.1648,-2.2697,-2.3389,-2.3723,-2.3848,-2.4957,-2.5175,-2.461,-2.5231,-2.5851,-2.6283,-2.5742,-2.5342,-2.5231,-2.5342,-2.5021,-2.4292,-2.3603,-2.3198,-2.3113,-2.2121,-2.1039,-1.9865,-1.915,-1.7788,-1.5788,-1.5454,-1.4982,-1.42,-1.3611,-1.3514,-1.3994,-1.332,-1.3095,0.0,-1.2954,0.0,0.0,0.0,0.0,0.0,0.0,0.0,0.0,-1.7505,-1.6958,-1.4169,-1.4657,-1.4276,-1.2005,-1.3521,-1.498,-1.5763,-1.6624,-1.7763,-1.9043,-2.0544,-2.1906,-2.2979,-2.4276,-2.5518,-2.6734,-2.6741,-2.6218,-2.5656,-2.6129,-2.6487,-2.6155,-2.6184,-2.6157,-2.5678,-2.6408,-2.7615,-2.912,-2.8882,-2.8609,-2.9521,-2.9689,-2.9779,-2.9779,-2.9779,-2.9779,-2.9779,-2.9779,-2.9779,-2.9779,-2.9779,-2.9779,-2.9779,-2.9934,-2.9998,-2.9856,-3.0023,-3.033,-0.6527,-0.678,-0.7437,-0.7832,-0.7962,-0.7637,-0.8032,-0.8812,-0.9005,-1.0382,-1.2618,-1.4486,-1.6048,-1.7446,-1.8328,-1.9097,-1.9823,-2.0288,-2.0618,-2.0756,-2.2208,-2.3007,-2.3305,-2.4489,-2.5328,-2.5884,-2.6172,-2.6229,-2.6068,-2.6229,-2.6068,-2.5618,-2.5453,-2.5119,-2.4567,0.0,0.0,0.0,-2.4176,-2.3767,-2.3113,-2.2498,-2.1838,-2.1151,-1.9716,0.0,-1.7675,-1.6693,-1.6091,-1.5916,-1.5793,0.0,0.0,0.0,0.0,0.0,0.0,0.0,0.0,0.0,0.0,0.0,-1.9768,-1.956,-1.8178,-1.9168,-1.8774,-1.6022,-1.6652,-1.6397,-1.4276,-1.4801,-1.5402,-1.5783,-1.685,-1.8141,-1.9298,-2.138,-2.2843,-2.3087,-2.4882,-2.6967,-2.8728,-2.7647,-2.6513,-2.6497,-2.714,-2.8084,-2.8876,-2.7591,-2.6733,-2.7105,-2.8207,-2.9234,-2.9711,-2.9584,-2.9456,-2.9792,-2.9779,-2.9779,-2.9779,-2.9779,-2.9779,-2.9779,-2.9779,-2.9779,-2.9779,-2.9779,-2.9792,-2.9792,-3.0432,-3.0696,-3.0011,-3.0674,-3.1097,-0.6334,0.0,-0.7177,-0.7832,0.0,-0.8613,-0.9378,-1.0528,-1.0072,-1.148,-1.4209,-1.5773,-1.7092,-1.8178,-1.9282,-1.9914,-2.0321,-2.1249,-2.1877,-2.2207,-2.3407,-2.43,-2.4928,-2.526,-2.5797,-2.651,-2.6496,-2.6496,-2.6496,-2.6496,-2.6283,-2.596,-2.5245,-2.4681,-2.4337,-2.5021,-2.5021,-2.4279,-2.4279,-2.3884,-2.3113,-2.2598,-2.1907,-2.1104,0.0,0.0,0.0,0.0,0.0,0.0,0.0,0.0,0.0,0.0,0.0,-1.6636,-1.7195,-1.8767,-2.1412,-2.0105,-1.9654,-2.0911,-2.1463,-2.114,-1.9878,-2.0619,-1.9915,-1.7003,-1.7606,-1.7391,-1.5286,-1.5378,-1.6019,-1.6951,-1.7925,-1.9214,-2.1069,-2.2824,-2.4088,-2.4902,-2.6701,-2.879,-3.0905,-3.0327,-2.9098,-2.8373,-2.9416,-3.0441,-3.0895,-2.9447,-2.8347,-2.8615,-2.9225,-2.9779,-2.9779,-2.9779,-2.9779,-2.9779,-2.9779,-2.9779,-2.9779,-2.9779,-2.9779,-2.9779,-2.9779,-2.9779,-2.9779,-2.9779,-2.9867,-3.0184,-3.0984,-3.157,-3.1216,-3.1691,-3.23,-0.6654,-0.7177,-0.7307,-0.8215,-0.953,-0.9652,-1.0759,-1.2358,0.0,0.0,0.0,-1.7047,-1.8078,-1.8725,-2.0143,-2.0957,-2.1304,-2.2498,-2.3264,-2.3742,-2.4647,-2.553,-2.6443,-2.6,-2.6108,-2.6669,-2.6669,-2.6721,-2.6721,-2.6669,-2.6616,-2.6404,-2.5175,-2.4394,-2.4337,-2.5175,-2.5175,-2.435,-2.4394,-2.4047,-2.3125,-2.2686,-2.197,-2.0978,-2.0865,-2.0177,-1.8706,-1.8596,-1.8343,-1.7932,-1.749,-1.7473,-1.7816,-1.8374,-1.8778,-1.9057,-2.017,-2.1239,-2.2089,-2.1832,-2.1901,-2.2449,-2.2236,-2.1807,-2.125,-2.1554,-2.0635,-1.7843,-1.8304,-1.7987,-1.6162,-1.604,-1.6777,-1.8311,-1.9521,-2.0891,-2.2814,-2.448,-2.5732,-2.6619,-2.8367,-3.0636,-3.2782,-3.2722,-3.2061,-3.0851,-3.1442,-3.2593,-3.2379,-3.1127,-2.9948,-2.9758,-3.0087,-3.047,-3.0777,-3.0712,-3.0381,-2.9885,-2.9923,-2.9973,-2.9845,-2.9806,-2.9779,-2.9779,-2.9779,-2.9779,-2.9792,-2.9777,-3.0043,-3.0745,-3.1785,-3.2657,-3.2871,-3.3225,-3.3903,-0.9424,-0.9005,-0.9716,-1.0168,-1.0491,-1.1156,-1.2708,-1.477,-1.4644,-1.4877,-1.5418,-1.7577,-1.8495,-1.8521,-2.0078,-2.1595,-2.3088,-2.3889,-2.4218,0.0,-2.6132,-2.6806,-2.6563,-2.7034,-2.7357,-2.7458,-2.7458,-2.7458,-2.7458,-2.7458,-2.7137,-2.6457,-2.5687,-2.4894,-2.4465,-2.5673,-2.5673,-2.435,-2.4894,-2.4553,-2.3125,-2.3002,-2.2723,-2.2108,-2.1619,-2.1054,-2.0363,-2.0323,-2.0282,-2.022,-2.0603,-2.0623,-2.025,-2.069,-2.0894,-2.0607,-2.1062,-2.1875,-2.2853,-2.2495,-2.2466,-2.309,-2.2811,-2.2215,-2.1333,-2.1262,-2.0857,-1.9671,-1.9124,-1.8897,-1.8819,-1.8018,-1.7956,-1.9322,-2.1239,-2.263,-2.3238,-2.5793,-2.7334,-2.6792,-2.9164,-3.2065,-3.4281,-3.369,-3.2693,-3.2357,-3.261,-3.2664,-3.2636,-3.1946,-3.1021,-3.0283,-3.12,-3.2739,-3.3796,-3.3642,-3.216,-3.0105,-3.0524,-3.0677,-2.9881,-2.9796,-2.9793,-2.9779,-2.9779,-2.9792,-2.9869,-2.9795,-3.0466,-3.1603,-3.3006,-3.3875,-3.4339,-3.5496,-3.6384,-1.0266,-0.9964,-1.0349,-1.0795,-1.1308,-1.2995,-1.4526,-1.5971,-1.677,-1.7125,-1.728,-1.8655,-1.9193,-1.9328,-2.1313,-2.2819,-2.3886,-2.5563,-2.6287,-2.6368,-2.8007,-2.8561,-2.8048,-2.7655,-2.767,-2.8042,-2.7187,-2.7078,-2.756,-2.756,-2.724,-2.651,-2.5783,-2.5231,-2.5021,-2.596,-2.5783,-2.435,-2.5007,-2.4667,-2.3125,-2.3125,-2.2862,-2.2322,-2.2046,-2.1681,-2.1129,-2.1117,-2.1104,-2.1117,-2.1355,-2.1506,-2.1568,-2.1794,-2.197,-2.2103,-2.2259,-2.2594,-2.3065,-2.3271,-2.3254,-2.304,-2.2793,-2.219,-2.0984,-2.1313,-2.1139,-2.0129,-2.0053,-1.9937,-1.9571,-1.8956,-1.9389,-2.1239,-2.2378,-2.3745,-2.5616,-2.7485,-2.8635,-2.8637,-3.091,-3.3438,-3.5259,-3.4723,-3.4192,-3.4192,-3.4177,-3.4124,-3.4124,-3.3941,-3.3166,-3.1787,-3.2047,-3.3338,-3.5053,-3.4072,-3.2635,-3.1463,-3.1397,-3.103,-3.0073,-2.9819,-2.9783,-2.9806,-2.9779,-2.9998,-3.0432,-3.0088,-3.0894,-3.2943,-3.4408,-3.5268,-3.6068,-3.7396,-3.8054,-1.1676,-1.1485,-1.1485,-1.2034,-1.3118,-1.5128,-1.6462,-1.7433,-1.8631,-1.9206,-1.9414,-1.9774,-2.007,-2.0468,-2.2615,-2.4126,-2.5239,-2.7243,-2.8231,-2.8339,-2.9606,-3.0002,-2.9416,-2.8231,-2.8005,-2.8512,-2.7305,-2.7083,-2.7745,-2.781,-2.7342,-2.6549,-2.6108,-2.5728,-2.5412,-2.6269,-2.5946,-2.4452,-2.5021,-2.4667,-2.3198,-2.3125,-2.2924,-2.2535,-2.2498,-2.2297,-2.1895,-2.1857,-2.1857,-2.187,-2.1857,-2.2058,-2.246,-2.2498,-2.2698,-2.3015,-2.3125,-2.3201,-2.3364,-2.4279,-2.421,-2.279,-2.2816,-2.2239,-2.0876,-2.1367,-2.1534,-2.0642,-2.092,-2.1016,-2.0576,-2.0378,-2.1159,-2.3162,-2.4142,-2.5633,-2.8012,-2.9476,-3.0222,-3.0699,-3.2528,-3.4336,-3.5184,-3.5466,-3.5439,-3.5359,-3.5489,-3.5489,-3.5489,-3.5489,-3.4787,-3.3837,-3.3255,-3.3858,-3.5189,-3.438,-3.3437,-3.3241,-3.2597,-3.1938,-3.1015,-3.054,-3.0377,-3.053,-3.0495,-3.0846,-3.1328,-3.1022,-3.1757,-3.4126,-3.5946,-3.7212,-3.8018,-3.9103,-3.9751,-1.5434,-1.483,-1.4802,-1.5602,-1.6885,-1.7725,-1.8873,-2.0126,-2.0414,-2.0811,-2.1301,-2.0917,-2.1029,-2.1705,-2.3284,-2.5249,-2.7454,-2.8732,-2.9179,-2.9248,-3.0374,-3.058,-2.9887,-2.9054,-2.8881,-2.9223,-2.876,-2.8483,-2.8415,-2.8367,-2.775,-2.6707,-2.7086,-2.6692,-2.5728,-2.6811,-2.6414,-2.4394,-2.5021,-2.4667,-2.3185,-2.3125,-2.3053,-2.3015,-2.305,-2.2977,-2.2912,-2.2975,-2.2975,-2.2975,-2.2949,-2.2927,-2.2977,-2.299,-2.3075,-2.3125,-2.3078,-2.3364,-2.3929,-2.5408,-2.5271,-2.3044,-2.3189,-2.2648,-2.0984,-2.1438,-2.1875,-2.1762,-2.1565,-2.1817,-2.2589,-2.2678,-2.3248,-2.4809,-2.7048,-2.9052,-2.9528,-3.1135,-3.2329,-3.2359,-3.3303,-3.4341,-3.5302,-3.5484,-3.5504,-3.5489,-3.5679,-3.5729,-3.5683,-3.5733,-3.5574,-3.5249,-3.5198,-3.5228,-3.5487,-3.5398,-3.4986,-3.4986,-3.4211,-3.336,-3.2793,-3.215,-3.168,-3.1734,-3.2119,-3.2177,-3.2427,-3.2426,-3.3159,-3.5378,-3.7507,-3.9299,-4.0176,-4.1006,-4.1259,-1.8542,-1.8275,-1.8551,-1.9295,-2.0219,-2.0494,-2.1203,-2.2152,-2.2212,-2.2238,-2.2264,-2.2611,-2.2761,-2.2822,-2.4621,-2.6471,-2.8089,-2.9083,-2.9491,-2.9609,-3.0903,-3.115,-3.0387,-3.0299,-3.0119,-2.9984,-3.0134,-2.9804,-2.9106,-2.8701,-2.8027,-2.724,-2.7473,-2.7291,-2.6797,-2.7291,-2.6707,-2.5021,-2.5231,-2.4667,-2.3305,-2.3125,-2.3125,-2.3125,-2.3125,-2.3125,-2.3125,-2.3125,-2.3125,-2.3125,-2.3125,-2.3125,-2.3125,-2.3125,-2.3125,-2.309,-2.3083,-2.3629,-2.487,-2.5917,-2.5772,-2.4154,-2.408,-2.3717,-2.2853,-2.1835,-2.187,-2.378,-2.3716,-2.3345,-2.3302,-2.4312,-2.5721,-2.7313,-2.8819,-2.9973,-3.1282,-3.2552,-3.3265,-3.2854,-3.3955,-3.5001,-3.5359,-3.5489,-3.5489,-3.5664,-3.6171,-3.669,-3.649,-3.6646,-3.6415,-3.5859,-3.6215,-3.6368,-3.5733,-3.5489,-3.5489,-3.5424,-3.5103,-3.4603,-3.369,-3.3277,-3.2793,-3.2707,-3.2735,-3.3185,-3.3917,-3.41,-3.4693,-3.6978,-3.8752,-4.0384,-4.1311,-4.2013,-4.225,-2.1109,-2.1189,-2.173,-2.225,-2.2745,-2.2961,-2.3333,-2.3788,-2.383,-2.361,-2.3327,-2.4112,-2.4351,-2.4413,-2.5929,-2.722,-2.8255,-2.9296,-2.9743,-2.9952,-3.1317,-3.1569,-3.0872,-3.1048,-3.096,-3.0684,-3.0971,-3.0653,-2.9677,-2.9042,-2.8415,-2.7944,-2.7993,-2.7894,-2.766,-2.771,-2.7108,-2.5837,-2.5508,-2.4781,-2.359,-2.3198,-2.3125,-2.3125,-2.3125,-2.3125,-2.3125,-2.3125,-2.3125,-2.3125,-2.3125,-2.3125,-2.3125,-2.3125,-2.3201,-2.3353,-2.3617,-2.4236,-2.5536,-2.6181,-2.604,-2.511,-2.4779,-2.4536,-2.3999,-2.2478,-2.2799,-2.5212,-2.5962,-2.5557,-2.4179,-2.5913,-2.7941,-2.9365,-3.0271,-3.164,-3.2848,-3.3984,-3.4405,-3.3729,-3.4648,-3.5489,-3.5474,-3.5484,-3.5477,-3.5649,-3.6786,-3.8002,-3.7783,-3.78,-3.7329,-3.6347,-3.6971,-3.6783,-3.5782,-3.5782,-3.5733,-3.5489,-3.5424,-3.5103,-3.4263,-3.4182,-3.41,-3.3959,-3.3533,-3.373,-3.4845,-3.531,-3.6788,-3.8941,-4.0531,-4.143,-4.2077,-4.2757,-4.3337,-2.3165,-2.3251,-2.3814,-2.4051,-2.4147,-2.4737,-2.5019,-2.5057,-2.5096,-2.5073,-2.4996,-2.5073,-2.5395,-2.5806,-2.6571,-2.7465,-2.8294,-2.9486,-3.0027,-3.0149,-3.132,-3.1721,-3.127,-3.122,-3.1179,-3.1078,-3.1156,-3.0857,-3.0208,-2.9673,-2.9058,-2.8511,-2.895,-2.8717,-2.7894,-2.814,-2.7765,-2.6534,-2.5783,-2.5007,-2.4221,-2.3484,-2.3125,-2.3125,-2.3125,-2.3125,-2.3125,-2.3125,-2.3125,-2.3125,-2.3125,-2.3125,-2.3125,-2.315,-2.3414,-2.3979,-2.4793,-2.5315,-2.5661,-2.6181,-2.6139,-2.5217,-2.5063,-2.4858,-2.4716,-2.4105,-2.4459,-2.5836,-2.8053,-2.8132,-2.638,-2.8011,-2.9517,-3.0181,-3.2845,-3.4243,-3.4052,-3.5488,-3.6024,-3.5439,-3.534,-3.5608,-3.5589,-3.5485,-3.5599,-3.5891,-3.6939,-3.829,-3.925,-3.8656,-3.7969,-3.7626,-3.7231,-3.6461,-3.5797,-3.5782,-3.5943,-3.5831,-3.5668,-3.5439,-3.5504,-3.5424,-3.5279,-3.5329,-3.5169,-3.5338,-3.5949,-3.7369,-3.9542,-4.123,-4.1947,-4.2729,-4.2928,-4.3831,-4.4202,-2.5191,-2.5452,-2.5405,-2.5347,-2.5384,-2.5635,-2.5689,-2.5742,-2.6052,-2.598,-2.5726,-2.5689,-2.5652,-2.554,-2.606,-2.6914,-2.7996,-2.8737,-2.9186,-2.9478,-3.015,-3.0485,-3.0649,-3.134,-3.1558,-3.1235,-3.119,-3.0878,-3.0335,-3.0081,-2.9451,-2.8748,-2.9104,-2.895,-2.8367,-2.8383,-2.7981,-2.71,-2.6026,-2.5063,-2.435,-2.3543,-2.3125,-2.3125,-2.3125,-2.3125,-2.3125,-2.3125,-2.3125,-2.3125,-2.3125,-2.3125,-2.3163,-2.3489,-2.4092,-2.4933,-2.5269,-2.5632,-2.6101,-2.6339,-2.6383,-2.6025,-2.5955,-2.6254,-2.6736,-2.7174,-2.8038,-2.9202,-3.0545,-3.0944,-3.0937,-3.1216,-3.228,-3.407,-3.4809,-3.5589,-3.6276,-3.6993,-3.688,-3.5813,-3.5492,-3.5829,-3.6491,-3.6151,-3.5921,-3.6936,-3.831,-3.9329,-3.9836,-3.9566,-3.9049,-3.869,-3.869,-3.8414,-3.7115,-3.618,-3.5831,-3.5991,-3.5943,-3.5589,-3.5474,-3.5574,-3.5544,-3.6102,-3.6243,-3.6708,-3.7173,-3.8091,-4.0478,-4.1829,-4.2706,-4.3123,-4.3805,-4.4136,-4.4423,-2.6418,-2.659,-2.6175,-2.6013,-2.6013,-2.6013,-2.6013,-2.6033,-2.6505,-2.6505,-2.6227,-2.5888,-2.5508,-2.5141,-2.5093,-2.5713,-2.6905,-2.7624,-2.821,-2.8656,-2.9179,-2.9614,-3.012,-3.1408,-3.1789,-3.1291,-3.119,-3.0975,-3.0658,-3.0559,-2.9951,-2.8919,-2.9406,-2.9164,-2.8415,-2.8367,-2.8143,-2.7354,-2.6347,-2.5398,-2.4667,-2.3884,-2.3466,-2.3389,-2.3414,-2.3253,-2.315,-2.3125,-2.3125,-2.3125,-2.3125,-2.3213,-2.3439,-2.3941,-2.4644,-2.5382,-2.567,-2.592,-2.6377,-2.6521,-2.6589,-2.6837,-2.6943,-2.7447,-2.877,-2.9626,-3.0525,-3.1594,-3.2877,-3.372,-3.3998,-3.3936,-3.4721,-3.6639,-3.6585,-3.6718,-3.7674,-3.7962,-3.7543,-3.6643,-3.6554,-3.7014,-3.7446,-3.6805,-3.6965,-3.7906,-3.9254,-4.0041,-4.0113,-4.0068,-3.9952,-3.9437,-3.9335,-3.9176,-3.8463,-3.7685,-3.6585,-3.6507,-3.5921,-3.5637,-3.5849,-3.5897,-3.6212,-3.6829,-3.7361,-3.7868,-3.8515,-3.92,-4.0317,-4.1799,-4.2415,-4.2864,-4.3495,-4.4126,-4.3834,-2.6657,-2.6624,-2.6175,-2.6013,-2.6013,-2.6013,-2.6013,-2.5997,-2.647,-2.6607,-2.6368,-2.5672,-2.5233,-2.4869,-2.4225,-2.4163,-2.5163,-2.6419,-2.736,-2.7961,-2.8663,-2.9167,-2.9554,-3.1011,-3.1595,-3.123,-3.119,-3.119,-3.1095,-3.1055,-3.0518,-2.9717,-2.9935,-2.9435,-2.771,-2.8271,-2.8222,-2.758,-2.6811,-2.6068,-2.5398,-2.4567,-2.4046,-2.3939,-2.3916,-2.3703,-2.3201,-2.3213,-2.3263,-2.3153,-2.3165,-2.3452,-2.4042,-2.4544,-2.4981,-2.5507,-2.6101,-2.6483,-2.6589,-2.6589,-2.6985,-2.7537,-2.7723,-2.8545,-3.0079,-3.0664,-3.1227,-3.2555,-3.4237,-3.5377,-3.531,-3.5919,-3.6615,-3.7107,-3.7879,-3.827,-3.8189,-3.8525,-3.8619,-3.8028,-3.8171,-3.8316,-3.7978,-3.7625,-3.7845,-3.8623,-3.9489,-4.007,-4.0087,-4.0121,-4.0087,-3.9885,-3.9612,-3.9318,-3.9325,-3.9204,-3.8008,-3.6995,-3.609,-3.5615,-3.6445,-3.6767,-3.7405,-3.7966,-3.8165,-3.869,-3.9149,-3.9742,-4.0089,-4.123,-4.1782,-4.2483,-4.3206,-4.3501,-4.2472,-2.6401,-2.6624,-2.6175,-2.6013,-2.6013,-2.6013,-2.5815,-2.5561,-2.6315,-2.6437,-2.6023,-2.5839,-2.5427,-2.4821,-2.4306,-2.4246,-2.4602,-2.5431,-2.6354,-2.7278,-2.7727,-2.8209,-2.8831,-2.9591,-3.0421,-3.1077,-3.119,-3.119,-3.119,-3.119,-3.0797,-3.0208,-3.0208,-2.9805,-2.881,-2.8638,-2.8383,-2.8125,-2.7071,-2.6122,-2.5398,-2.4681,-2.4047,-2.3475,-2.3778,-2.3904,-2.3753,-2.4092,-2.4092,-2.374,-2.4104,-2.4544,-2.4996,-2.5169,-2.5494,-2.6088,-2.6339,-2.6888,-2.7455,-2.7456,-2.767,-2.8363,-2.8607,-2.9272,-3.0632,-3.152,-3.2337,-3.3557,-3.5303,-3.6254,-3.5844,-3.699,-3.7874,-3.8109,-3.8586,-3.9086,-3.9226,-3.9489,-3.961,-3.9451,-3.9532,-3.9544,-3.9222,-3.8709,-3.8381,-3.9323,-3.9885,-4.007,-4.0087,-4.0087,-4.0087,-4.0003,-3.9732,-3.9595,-3.9694,-3.9671,-3.9007,-3.7841,-3.6811,-3.624,-3.6959,-3.7911,-3.8545,-3.8825,-3.904,-3.9309,-3.9773,-4.0081,-4.0335,-4.0606,-4.1182,-4.1965,-4.2819,-4.2581,-4.1694,-2.6262,-2.6624,-2.6175,-2.6013,-2.6013,-2.6013,-2.5799,-2.5635,-2.635,-2.6454,-2.611,-2.5999,-2.5538,-2.4844,-2.4451,-2.4327,-2.4368,-2.487,-2.5704,-2.6622,-2.6967,-2.7463,-2.8253,-2.9068,-2.9803,-3.0666,-3.1072,-3.119,-3.119,-3.119,-3.0878,-3.0393,-3.0081,-2.9629,-2.9042,-2.8496,-2.8189,-2.8027,-2.7327,-2.6549,-2.5837,-2.5063,-2.4429,-2.3923,-2.3927,-2.4092,-2.4293,-2.4644,-2.4569,-2.4117,-2.4167,-2.4619,-2.5435,-2.5228,-2.5428,-2.6264,-2.6521,-2.6956,-2.7894,-2.7802,-2.8247,-2.9178,-2.9504,-3.0114,-3.1319,-3.2521,-3.3711,-3.4634,-3.6194,-3.714,-3.7096,-3.7762,-3.871,-3.9129,-3.9265,-3.9542,-4.002,-4.0087,-4.007,-4.002,-4.0033,-4.0085,-3.9799,-3.9512,-3.9018,-3.9902,-4.0087,-4.0087,-4.0087,-4.0087,-4.0087,-4.0087,-4.0003,-3.9952,-4.0037,-3.9985,-3.9843,-3.8863,-3.7725,-3.7415,-3.7641,-3.8827,-3.9644,-3.9601,-3.9694,-3.9696,-4.0053,-4.007,-4.024,-4.0476,-4.0662,-4.1035,-4.1613,-4.1886,-4.129,-2.6297,-2.6624,-2.6245,-2.612,-2.6085,-2.6068,-2.6033,-2.6049,-2.647,-2.6641,-2.6488,-2.6227,-2.5697,-2.5061,-2.4674,-2.4507,-2.438,-2.4923,-2.548,-2.609,-2.6538,-2.7148,-2.7961,-2.9025,-2.9753,-3.0243,-3.0784,-3.1106,-3.119,-3.119,-3.0918,-3.0435,-2.9892,-2.918,-2.8732,-2.7993,-2.7775,-2.766,-2.756,-2.7137,-2.6443,-2.577,-2.5181,-2.4872,-2.4262,-2.4092,-2.4544,-2.4657,-2.4519,-2.4054,-2.3665,-2.4117,-2.5159,-2.4813,-2.5306,-2.6463,-2.6577,-2.7268,-2.7908,-2.8222,-2.8748,-3.0133,-3.0418,-3.0921,-3.2198,-3.3426,-3.4511,-3.5383,-3.6794,-3.8012,-3.8449,-3.8793,-3.9199,-3.9868,-3.9952,-4.002,-4.007,-4.0087,-4.0087,-4.0087,-4.0087,-4.0087,-4.0087,-3.9969,-3.9986,-4.007,-4.0087,-4.0087,-4.0087,-4.0087,-4.0087,-4.0087,-4.0087,-4.0087,-4.0087,-4.0054,-3.995,-3.961,-3.8725,-3.855,-3.8405,-3.9418,-4.0085,-4.0121,-4.0088,-4.0104,-4.0138,-4.0121,-4.0138,-4.024,-4.0257,-4.0104,-4.0341,-4.0866,-4.1019,-2.6179,-2.6691,-2.6889,-2.6791,-2.6539,-2.6505,-2.6297,-2.6085,-2.6505,-2.6454,-2.6145,-2.6368,-2.6144,-2.5562,-2.5533,-2.5341,-2.5217,-2.5496,-2.5766,-2.6033,-2.6487,-2.7131,-2.7688,-2.8178,-2.9042,-2.9939,-3.0311,-3.0666,-3.1157,-3.1173,-3.1112,-3.0975,-3.0293,-2.9761,-2.9164,-2.8543,-2.8042,-2.766,-2.761,-2.724,-2.6592,-2.6129,-2.5408,-2.4516,-2.3761,-2.3679,-2.4117,-2.4217,-2.4393,-2.4569,-2.4067,-2.4305,-2.5464,-2.5775,-2.6021,-2.6499,-2.7642,-2.8408,-2.8768,-2.924,-3.0058,-3.1014,-3.1102,-3.156,-3.2378,-3.3291,-3.4357,-3.5502,-3.6942,-3.8063,-3.8661,-3.9285,-3.98,-4.0003,-4.0087,-4.0087,-4.0087,-4.0087,-4.0087,-4.0087,-4.0087,-4.0087,-4.0087,-4.0087,-4.0087,-4.0087,-4.0087,-4.0087,-4.0087,-4.0087,-4.0087,-4.0087,-4.0087,-4.0087,-4.0087,-4.0087,-4.0087,-4.0054,-3.9732,-3.958,-3.9528,-3.985,-4.0104,-4.0087,-4.0104,-4.0087,-4.0121,-4.0121,-4.0121,-4.0355,-4.0118,-4.0148,-4.0103,-4.0408,-4.0493,-2.5986,-2.6725,-2.6971,-2.6906,-2.6691,-2.6708,-2.6556,-2.6367,-2.6556,-2.6505,-2.6283,-2.6505,-2.659,-2.6387,-2.6317,-2.6351,-2.6353,-2.6471,-2.6623,-2.6805,-2.6937,-2.7129,-2.7368,-2.7587,-2.8262,-2.9127,-2.982,-3.0311,-3.0734,-3.1021,-3.1173,-3.1055,-3.0601,-3.0123,-2.9761,-2.9196,-2.8606,-2.8091,-2.7944,-2.763,-2.6997,-2.6403,-2.5661,-2.4704,-2.3782,-2.3318,-2.3566,-2.364,-2.3891,-2.428,-2.4302,-2.4602,-2.5666,-2.6347,-2.667,-2.6698,-2.8336,-2.9287,-2.9435,-2.9961,-3.0629,-3.1278,-3.1467,-3.1862,-3.254,-3.3377,-3.4581,-3.6046,-3.7465,-3.8498,-3.917,-3.98,-4.007,-4.0087,-4.0087,-4.0087,-4.0087,-4.0087,-4.0087,-4.0087,-4.0087,-4.0087,-4.0087,-4.0087,-4.0087,-4.0087,-4.0087,-4.0087,-4.0087,-4.0087,-4.0087,-4.0087,-4.0087,-4.0087,-4.0087,-4.0087,-4.0087,-4.007,-4.007,-4.0087,-4.012,-4.012,-4.0138,-4.0138,-4.0138,-4.0171,-4.032,-4.0534,-4.0892,-4.0901,-4.0483,-4.0168,-4.0175,-4.0568,-4.0551,-2.5609,-2.6471,-2.6521,-2.6538,-2.6404,-2.6454,-2.6302,-2.642,-2.6319,-2.6336,-2.6303,-2.6505,-2.6635,-2.7151,-2.6787,-2.7129,-2.7765,-2.7391,-2.753,-2.756,-2.7457,-2.7169,-2.7011,-2.7454,-2.7792,-2.8215,-2.9313,-2.979,-3.0078,-3.0598,-3.0937,-3.0842,-3.0459,-3.0327,-3.0133,-2.9733,-2.918,-2.8701,-2.8431,-2.8189,-2.7604,-2.6886,-2.6049,-2.5174,-2.3826,-2.3308,-2.3321,-2.3381,-2.3583,-2.4002,-2.4229,-2.4807,-2.573,-2.6519,-2.7037,-2.7428,-2.8802,-2.9851,-3.0004,-3.0363,-3.0718,-3.1394,-3.1582,-3.1838,-3.2702,-3.3735,-3.5049,-3.628,-3.7986,-3.8958,-3.9834,-4.007,-4.007,-4.0087,-4.0087,-4.0087,-4.0087,-4.0087,-4.0087,-4.0087,-4.0087,-4.0087,-4.0087,-4.0087,-4.0087,-4.0087,-4.0087,-4.0087,-4.0087,-4.0087,-4.0087,-4.0087,-4.0087,-4.0087,-4.0087,-4.0087,-4.0087,-4.007,-4.007,-4.0104,-4.0199,-4.0167,-4.0187,-4.0204,-4.0331,-4.0542,-4.0836,-4.114,-4.1611,-4.1498,-4.1111,-4.0697,-4.044,-4.1192,-4.1453,-2.4673,-2.4997,-2.5313,-2.527,-2.5028,-2.498,-2.4997,-2.5031,-2.5031,-2.5116,-2.515,-2.5575,-2.6051,-2.6472,-2.6895,-2.7457,-2.7816,-2.7747,-2.784,-2.7794,-2.747,-2.7303,-2.7195,-2.7388,-2.7536,-2.7879,-2.8425,-2.8938,-2.9253,-2.9499,-2.977,-3.0239,-3.0191,-3.0206,-3.0236,-3.0126,-2.9805,-2.9225,-2.8779,-2.8511,-2.8201,-2.7536,-2.6612,-2.5453,-2.3989,-2.359,-2.3943,-2.406,-2.4125,-2.4236,-2.4366,-2.4681,-2.5342,-2.6081,-2.7023,-2.8189,-2.9314,-3.0337,-3.0925,-3.1087,-3.1278,-3.1509,-3.2007,-3.2422,-3.2641,-3.3864,-3.4955,-3.6009,-3.7267,-3.865,-3.9884,-4.0121,-4.0054,-4.0037,-4.0087,-4.0087,-4.0087,-4.0087,-4.0087,-4.0087,-4.0104,-4.0121,-4.0121,-4.0121,-4.0121,-4.007,-4.007,-4.0087,-4.0087,-4.0087,-4.0087,-4.0087,-4.0087,-4.0087,-4.0087,-4.0087,-4.0087,-4.0103,-4.0119,-4.0286,-4.0346,-4.0676,-4.0797,-4.0775,-4.0649,-4.0937,-4.1293,-4.1701,-4.2129,-4.1941,-4.1789,-4.152,-4.1513,-4.2051,-4.2131,-2.4029,-2.4506,-2.4731,-2.4701,-2.4506,-2.4523,-2.4523,-2.4523,-2.4523,-2.4523,-2.4605,-2.5088,-2.545,-2.5768,-2.658,-2.7151,-2.7427,-2.7784,-2.8093,-2.8201,-2.788,-2.7589,-2.7607,-2.7517,-2.7546,-2.7454,-2.7862,-2.8236,-2.8471,-2.8789,-2.9245,-2.9533,-2.9583,-2.9804,-3.0139,-3.0232,-3.0079,-2.9843,-2.9496,-2.9088,-2.851,-2.7911,-2.7041,-2.5868,-2.4734,-2.4439,-2.4794,-2.4452,-2.4509,-2.4738,-2.4851,-2.4916,-2.5469,-2.6526,-2.7636,-2.8248,-2.9398,-3.0416,-3.1147,-3.1237,-3.1279,-3.1977,-3.2422,-3.2933,-3.3375,-3.4268,-3.51,-3.6035,-3.7057,-3.8106,-3.9781,-3.9697,-3.9748,-4.002,-4.007,-4.007,-4.0121,-4.0087,-4.0102,-4.0116,-4.0118,-4.0116,-4.0116,-4.0234,-4.0154,-4.0137,-4.0121,-4.0121,-4.0087,-4.0087,-4.0087,-4.0087,-4.0087,-4.0087,-4.0087,-4.0087,-4.0087,-4.0085,-4.0112,-4.0443,-4.0716,-4.1178,-4.1656,-4.1438,-4.1253,-4.1454,-4.1803,-4.2258,-4.2656,-4.2729,-4.2641,-4.2483,-4.2472,-4.2665,-4.2588,-2.3358,-2.4184,-2.4154,-2.4167,-2.4184,-2.4133,-2.4069,-2.4103,-2.4137,-2.3998,-2.4248,-2.4562,-2.4764,-2.5147,-2.6026,-2.6552,-2.6943,-2.7368,-2.7897,-2.8257,-2.8157,-2.7833,-2.7765,-2.7725,-2.7474,-2.6859,-2.7419,-2.7691,-2.7842,-2.8264,-2.8484,-2.8738,-2.8805,-2.9175,-2.9715,-3.0087,-3.0107,-3.0129,-3.0126,-2.9821,-2.8919,-2.8189,-2.7262,-2.6224,-2.555,-2.5342,-2.5398,-2.5175,-2.5007,-2.5522,-2.5687,-2.5673,-2.6018,-2.7142,-2.8263,-2.7682,-2.8797,-2.9798,-3.0734,-3.093,-3.1348,-3.2509,-3.2917,-3.3443,-3.4284,-3.4704,-3.5318,-3.6051,-3.6857,-3.7614,-3.9421,-3.9205,-3.9325,-3.9816,-4.0036,-4.0019,-4.0204,-4.0271,-4.0329,-4.0182,-4.0793,-4.1202,-4.075,-4.0573,-4.0329,-4.0203,-4.0187,-4.0171,-4.0171,-4.0121,-4.0121,-4.007,-4.0087,-4.0087,-4.0087,-4.0417,-4.0368,-4.0412,-4.0332,-4.0874,-4.1276,-4.1666,-4.2048,-4.2012,-4.1917,-4.2115,-4.2306,-4.2652,-4.3049,-4.341,-4.3356,-4.3032,-4.3066,-4.3228,-4.3027,-2.2159,-2.2682,-2.2665,-2.2665,-2.2699,-2.2682,-2.2767,-2.2665,-2.2801,-2.2682,-2.2801,-2.3379,-2.3893,-2.4344,-2.5235,-2.6,-2.6543,-2.6869,-2.7201,-2.77,-2.7895,-2.7913,-2.7619,-2.7725,-2.7409,-2.7004,-2.7161,-2.7229,-2.7029,-2.7029,-2.7571,-2.7909,-2.801,-2.8399,-2.9144,-2.9736,-2.9952,-2.999,-3.0118,-2.992,-2.9491,-2.8638,-2.7635,-2.6553,-2.5974,-2.5892,-2.6229,-2.6229,-2.6162,-2.6336,-2.6916,-2.6811,-2.663,-2.7299,-2.769,-2.7795,-2.8286,-2.9139,-2.9863,-3.0898,-3.1644,-3.2593,-3.3464,-3.417,-3.4688,-3.5052,-3.548,-3.5819,-3.6451,-3.7225,-3.8122,-3.8108,-3.8764,-3.944,-3.9593,-3.9589,-4.035,-4.0802,-4.0758,-4.0509,-4.1487,-4.2358,-4.1761,-4.1191,-4.0954,-4.081,-4.078,-4.0563,-4.0387,-4.0271,-4.0171,-4.0121,-4.0087,-4.0087,-4.0087,-4.0594,-4.0827,-4.0932,-4.1084,-4.1679,-4.2044,-4.2274,-4.243,-4.244,-4.2552,-4.2788,-4.2976,-4.3142,-4.325,-4.3479,-4.3479,-4.3444,-4.3481,-4.3448,-4.3499,-2.1675,-2.2282,-2.2327,-2.2327,-2.2327,-2.2327,-2.2327,-2.2327,-2.2327,-2.2327,-2.2451,-2.2811,-2.3065,-2.3446,-2.4409,-2.5416,-2.6069,-2.5949,-2.6498,-2.7296,-2.7518,-2.7672,-2.749,-2.7619,-2.7224,-2.6873,-2.6873,-2.6939,-2.6725,-2.6725,-2.6911,-2.7114,-2.7249,-2.7621,-2.8264,-2.8687,-2.9178,-2.9424,-2.9587,-2.9497,-2.9206,-2.836,-2.7583,-2.7151,-2.6759,-2.6745,-2.6864,-2.6616,-2.6721,-2.6982,-2.7034,-2.7034,-2.7152,-2.7321,-2.7569,-2.7631,-2.7927,-2.852,-2.9337,-3.0525,-3.1561,-3.2935,-3.4021,-3.475,-3.5052,-3.5407,-3.5577,-3.5723,-3.5825,-3.632,-3.6683,-3.7064,-3.7469,-3.7711,-3.8128,-3.8849,-3.9779,-4.0983,-4.1165,-4.1014,-4.1788,-4.2438,-4.2656,-4.2121,-4.17,-4.1473,-4.1367,-4.103,-4.071,-4.0597,-4.0497,-4.0266,-4.0349,-4.0783,-4.0796,-4.1146,-4.1323,-4.1385,-4.1722,-4.2306,-4.2634,-4.2739,-4.2856,-4.2938,-4.3124,-4.3178,-4.3286,-4.3321,-4.3444,-4.3479,-4.3479,-4.3495,-4.3605,-4.3698,-4.3735,-2.1584,-2.2327,-2.2327,-2.2327,-2.2327,-2.2327,-2.2349,-2.236,-2.2321,-2.2349,-2.2415,-2.2527,-2.2525,-2.2661,-2.3502,-2.4562,-2.547,-2.5015,-2.5836,-2.6591,-2.7007,-2.7218,-2.7395,-2.7465,-2.721,-2.7147,-2.6741,-2.6708,-2.6708,-2.6708,-2.6708,-2.6793,-2.6742,-2.6945,-2.7537,-2.7874,-2.823,-2.8569,-2.8958,-2.8716,-2.8305,-2.7846,-2.7626,-2.7735,-2.7675,-2.7509,-2.7458,-2.71,-2.7086,-2.7255,-2.7188,-2.7034,-2.7458,-2.756,-2.758,-2.762,-2.77,-2.84,-2.9277,-3.0368,-3.1646,-3.3218,-3.4121,-3.4831,-3.5362,-3.5532,-3.5639,-3.5639,-3.5673,-3.5718,-3.5921,-3.622,-3.639,-3.6571,-3.7217,-3.8105,-3.9312,-4.0559,-4.1739,-4.1877,-4.2271,-4.2498,-4.2768,-4.2912,-4.2462,-4.2139,-4.1979,-4.1682,-4.1338,-4.1185,-4.0978,-4.0573,-4.0659,-4.1464,-4.1743,-4.1894,-4.1913,-4.1766,-4.2221,-4.2829,-4.2996,-4.3105,-4.3213,-4.3232,-4.316,-4.3214,-4.3375,-4.3479,-4.3479,-4.3479,-4.3479,-4.3579,-4.3735,-4.3943,-4.4109,-2.1823,-2.2327,-2.2327,-2.2327,-2.2327,-2.2327,-2.2436,-2.2573,-2.2388,-2.2436,-2.2563,-2.2453,-2.2349,-2.2466,-2.2729,-2.3217,-2.3744,-2.4474,-2.4921,-2.538,-2.6301,-2.6782,-2.6922,-2.7208,-2.7252,-2.7213,-2.6855,-2.6725,-2.6708,-2.6708,-2.6708,-2.6708,-2.6708,-2.6776,-2.6996,-2.7418,-2.7806,-2.8061,-2.8586,-2.8921,-2.881,-2.8313,-2.8147,-2.8153,-2.7917,-2.7665,-2.768,-2.7509,-2.756,-2.7509,-2.7509,-2.7509,-2.756,-2.756,-2.7614,-2.7753,-2.8105,-2.8716,-2.9569,-3.0595,-3.1708,-3.3088,-3.4061,-3.4806,-3.5357,-3.5639,-3.5639,-3.5639,-3.5622,-3.5623,-3.5642,-3.5761,-3.6177,-3.6602,-3.705,-3.8156,-3.934,-3.9765,-4.0977,-4.1724,-4.176,-4.2432,-4.2938,-4.3104,-4.3178,-4.2882,-4.2555,-4.2239,-4.1931,-4.1717,-4.142,-4.0979,-4.12,-4.199,-4.2441,-4.2606,-4.2534,-4.225,-4.2665,-4.3195,-4.3231,-4.332,-4.3373,-4.341,-4.3321,-4.3286,-4.341,-4.3479,-4.3479,-4.3479,-4.3479,-4.3679,-4.3943,-4.4151,-4.4314,-2.2106,-2.2327,-2.2327,-2.2327,-2.2327,-2.2327,-2.236,-2.2426,-2.2377,-2.236,-2.2453,-2.2377,-2.2327,-2.2349,-2.259,-2.2789,-2.3091,-2.3853,-2.4419,-2.4563,-2.5464,-2.5929,-2.6109,-2.6394,-2.6723,-2.6726,-2.6717,-2.6725,-2.6708,-2.6708,-2.6708,-2.6708,-2.6708,-2.6708,-2.6708,-2.7012,-2.7131,-2.7283,-2.7519,-2.7724,-2.7773,-2.7736,-2.7821,-2.8334,-2.8077,-2.8014,-2.8082,-2.8091,-2.791,-2.771,-2.756,-2.781,-2.7993,-2.8064,-2.8011,-2.7711,-2.8869,-2.9761,-3.0448,-3.1044,-3.1867,-3.2807,-3.3795,-3.4827,-3.5419,-3.5605,-3.5912,-3.6483,-3.6234,-3.599,-3.5901,-3.6199,-3.7031,-3.7468,-3.7388,-3.7772,-3.8744,-3.9229,-3.9913,-4.0641,-4.1309,-4.1754,-4.2341,-4.2839,-4.299,-4.3013,-4.2941,-4.2862,-4.2454,-4.2121,-4.1757,-4.1339,-4.1848,-4.2557,-4.294,-4.3208,-4.3123,-4.296,-4.296,-4.3373,-4.3426,-4.3479,-4.3479,-4.3479,-4.3444,-4.3444,-4.3479,-4.3479,-4.3479,-4.3479,-4.3479,-4.3712,-4.3949,-4.414,-4.436,-2.2327,-2.2327,-2.2327,-2.2327,-2.2327,-2.2327,-2.2349,-2.2398,-2.2338,-2.2349,-2.236,-2.2349,-2.2327,-2.2377,-2.2563,-2.2721,-2.2746,-2.3323,-2.3929,-2.4406,-2.4692,-2.4986,-2.5374,-2.5694,-2.5919,-2.586,-2.6213,-2.6554,-2.6774,-2.6758,-2.6708,-2.6708,-2.6708,-2.6708,-2.6708,-2.6759,-2.681,-2.6826,-2.6843,-2.7024,-2.7201,-2.7076,-2.7508,-2.792,-2.8158,-2.8167,-2.8404,-2.8232,-2.7898,-2.8255,-2.7944,-2.8174,-2.8606,-2.8701,-2.8681,-2.8645,-2.9577,-3.0375,-3.0842,-3.1283,-3.1692,-3.247,-3.3389,-3.4506,-3.544,-3.562,-3.5941,-3.6797,-3.6795,-3.6396,-3.6317,-3.6841,-3.7559,-3.7972,-3.8043,-3.8021,-3.8088,-3.8751,-3.9179,-3.9666,-4.0194,-4.0437,-4.1134,-4.2139,-4.2653,-4.2983,-4.3171,-4.3304,-4.3031,-4.2552,-4.2422,-4.2131,-4.2433,-4.301,-4.3195,-4.3469,-4.3499,-4.3479,-4.3479,-4.3479,-4.3479,-4.3479,-4.3479,-4.3479,-4.3479,-4.3479,-4.3479,-4.3479,-4.3479,-4.3479,-4.3548,-4.3767,-4.3992,-4.4116,-4.4158,-2.2327,-2.2327,-2.2327,-2.2327,-2.231,-2.2327,-2.2453,-2.2625,-2.2398,-2.2453,-2.2537,-2.2426,-2.2327,-2.2377,-2.2563,-2.2695,-2.2721,-2.3052,-2.3522,-2.3898,-2.4135,-2.4522,-2.4828,-2.5103,-2.5529,-2.6092,-2.597,-2.6256,-2.6794,-2.6417,-2.6538,-2.6691,-2.6673,-2.6691,-2.6725,-2.6741,-2.6841,-2.6873,-2.6873,-2.7131,-2.7295,-2.7278,-2.7361,-2.7774,-2.7687,-2.7567,-2.822,-2.7944,-2.7951,-2.8681,-2.8327,-2.8545,-2.8958,-2.9125,-2.9162,-2.9763,-3.0054,-3.0725,-3.1086,-3.1251,-3.1624,-3.2273,-3.3034,-3.3956,-3.4924,-3.5246,-3.5769,-3.6452,-3.6562,-3.7055,-3.7095,-3.7482,-3.8086,-3.8295,-3.8416,-3.8427,-3.8401,-3.8519,-3.8889,-3.8933,-3.9203,-3.9593,-3.9795,-4.073,-4.1754,-4.2121,-4.2999,-4.3188,-4.3263,-4.2978,-4.3196,-4.3123,-4.3177,-4.3393,-4.3393,-4.3479,-4.3479,-4.3479,-4.3479,-4.3479,-4.3479,-4.3479,-4.3479,-4.3479,-4.3479,-4.3479,-4.3479,-4.3479,-4.3479,-4.3479,-4.3548,-4.3734,-4.3878,-4.4017,-4.3899,-2.2327,-2.2327,-2.2327,-2.2327,-2.231,-2.2473,-2.2599,-2.2669,-2.2599,-2.249,-2.2463,-2.2349,-2.2327,-2.236,-2.2563,-2.2695,-2.2772,-2.33,-2.3522,-2.3786,-2.4078,-2.4078,-2.4164,-2.4335,-2.4644,-2.4867,-2.4846,-2.5166,-2.5695,-2.5709,-2.5756,-2.5911,-2.6377,-2.6657,-2.6725,-2.6952,-2.7161,-2.7348,-2.7378,-2.7542,-2.731,-2.7333,-2.7384,-2.7785,-2.7777,-2.7761,-2.8095,-2.7946,-2.7987,-2.8008,-2.7886,-2.8414,-2.9091,-2.9209,-2.9716,-3.0425,-3.0657,-3.0868,-3.1095,-3.1224,-3.1529,-3.2161,-3.2594,-3.3068,-3.3939,-3.4031,-3.4552,-3.5252,-3.6143,-3.672,-3.8022,-3.8214,-3.8465,-3.8627,-3.867,-3.8615,-3.8707,-3.8707,-3.8726,-3.8817,-3.8854,-3.9038,-3.9116,-3.93,-4.0308,-4.1225,-4.2209,-4.2978,-4.2944,-4.3094,-4.3185,-4.3332,-4.3351,-4.3442,-4.3461,-4.3461,-4.3479,-4.3479,-4.3479,-4.3479,-4.3479,-4.3479,-4.3479,-4.3479,-4.3479,-4.3479,-4.3479,-4.3479,-4.3479,-4.3479,-4.3513,-4.3566,-4.373,-4.3936,-4.3743,-2.236,-2.231,-2.2388,-2.236,-2.2338,-2.25,-2.2573,-2.2599,-2.266,-2.2599,-2.2398,-2.2349,-2.2327,-2.2377,-2.2463,-2.2642,-2.2773,-2.3122,-2.3455,-2.3707,-2.3852,-2.3735,-2.3697,-2.3785,-2.4091,-2.3805,-2.4133,-2.4717,-2.5303,-2.4837,-2.5115,-2.5588,-2.5932,-2.6216,-2.6837,-2.723,-2.7619,-2.7823,-2.7869,-2.7811,-2.7504,-2.7386,-2.7333,-2.7607,-2.7452,-2.7629,-2.7798,-2.7744,-2.7807,-2.785,-2.7859,-2.8127,-2.8711,-2.9287,-2.9817,-3.0448,-3.0886,-3.0937,-3.1123,-3.1241,-3.141,-3.1799,-3.1901,-3.2198,-3.2587,-3.3056,-3.3848,-3.4746,-3.551,-3.6494,-3.8033,-3.7881,-3.7839,-3.7826,-3.8102,-3.8157,-3.856,-3.8707,-3.8707,-3.8744,-3.8762,-3.8781,-3.8836,-3.9013,-3.9601,-4.0253,-4.0445,-4.1372,-4.2029,-4.2304,-4.2797,-4.2999,-4.3201,-4.333,-4.3424,-4.3424,-4.3424,-4.3479,-4.3479,-4.3479,-4.3479,-4.3479,-4.3479,-4.3479,-4.3479,-4.3479,-4.3479,-4.3479,-4.3479,-4.3479,-4.3513,-4.3532,-4.3548,-4.3697,-4.3631,-2.251,-2.2349,-2.2546,-2.2527,-2.2338,-2.231,-2.2332,-2.248,-2.2625,-2.266,-2.2573,-2.2415,-2.231,-2.2321,-2.2426,-2.2593,-2.2706,-2.285,-2.3141,-2.3566,-2.3816,-2.3714,-2.3667,-2.3737,-2.3862,-2.4191,-2.4251,-2.4498,-2.5244,-2.4756,-2.4943,-2.5235,-2.5411,-2.5771,-2.67,-2.7469,-2.7844,-2.789,-2.7911,-2.7982,-2.7823,-2.7601,-2.7526,-2.7397,-2.7274,-2.7436,-2.7552,-2.7417,-2.7561,-2.7981,-2.7816,-2.8097,-2.8686,-2.8864,-2.9327,-3.0023,-3.0125,-3.0463,-3.1055,-3.1123,-3.123,-3.1365,-3.1478,-3.1664,-3.2224,-3.2745,-3.3306,-3.4076,-3.5005,-3.591,-3.6534,-3.6857,-3.6964,-3.7147,-3.7404,-3.7734,-3.8138,-3.8527,-3.8501,-3.8726,-3.8755,-3.8719,-3.8768,-3.8879,-3.924,-3.9417,-3.9031,-3.9648,-4.0822,-4.157,-4.2154,-4.232,-4.2558,-4.3036,-4.3164,-4.3314,-4.3387,-4.3442,-4.3479,-4.3479,-4.3479,-4.3479,-4.3479,-4.3479,-4.3479,-4.3479,-4.3479,-4.3479,-4.3479,-4.3479,-4.3479,-4.3479,-4.3479,-4.3479,-4.3479,-2.2388,-2.231,-2.2398,-2.249,-2.2563,-2.2546,-2.2695,-2.2857,-2.2764,-2.2599,-2.2473,-2.249,-2.2436,-2.2453,-2.2677,-2.279,-2.2774,-2.3259,-2.3548,-2.3392,-2.3795,-2.3671,-2.3606,-2.3646,-2.3683,-2.3596,-2.3649,-2.3898,-2.4252,-2.4138,-2.4266,-2.4491,-2.5039,-2.5601,-2.6283,-2.7,-2.7507,-2.7894,-2.8245,-2.8533,-2.8246,-2.8084,-2.789,-2.7725,-2.7547,-2.749,-2.7513,-2.7216,-2.742,-2.7674,-2.7391,-2.7614,-2.8076,-2.8213,-2.8586,-2.9161,-2.9381,-2.9719,-3.0323,-3.064,-3.0919,-3.1079,-3.1269,-3.1409,-3.1625,-3.1703,-3.2377,-3.3213,-3.4082,-3.4888,-3.5378,-3.6146,-3.645,-3.6541,-3.6798,-3.7147,-3.7537,-3.7933,-3.8201,-3.8699,-3.8914,-3.9133,-3.9223,-3.9127,-3.937,-3.9293,-3.9006,-3.9177,-4.0157,-4.0873,-4.1442,-4.1479,-4.1717,-4.2411,-4.2815,-4.2671,-4.3128,-4.3458,-4.3495,-4.3479,-4.3479,-4.3479,-4.3479,-4.3479,-4.3479,-4.3479,-4.3479,-4.3479,-4.3479,-4.3479,-4.3479,-4.3479,-4.3479,-4.3479,-4.3479,-2.248,-2.2338,-2.2535,-2.2643,-2.2712,-2.2695,-2.288,-2.3069,-2.2781,-2.25,-2.25,-2.2634,-2.2556,-2.2522,-2.2753,-2.3122,-2.3007,-2.3295,-2.361,-2.3414,-2.3917,-2.3896,-2.3795,-2.3714,-2.3831,-2.3584,-2.3566,-2.3765,-2.4018,-2.3598,-2.3696,-2.4148,-2.4664,-2.4981,-2.5583,-2.6272,-2.7287,-2.7716,-2.821,-2.8511,-2.8488,-2.8446,-2.8246,-2.8075,-2.7908,-2.7771,-2.7547,-2.7365,-2.721,-2.6954,-2.6859,-2.6945,-2.73,-2.752,-2.7841,-2.8332,-2.8932,-2.9274,-2.9811,-3.0128,-3.0404,-3.0713,-3.1225,-3.1623,-3.1657,-3.1873,-3.2214,-3.2798,-3.3247,-3.3821,-3.4621,-3.5412,-3.5587,-3.5642,-3.6095,-3.6445,-3.7026,-3.7452,-3.8066,-3.8571,-3.8888,-3.9241,-3.9697,-3.958,-3.9575,-3.9313,-3.9054,-3.929,-3.9473,-4.001,-4.0492,-4.051,-4.0565,-4.1042,-4.1515,-4.1702,-4.2304,-4.3309,-4.3256,-4.302,-4.3495,-4.3477,-4.3495,-4.3461,-4.3424,-4.3406,-4.3461,-4.3479,-4.3442,-4.3442,-4.3479,-4.3479,-4.3479,-4.3479,-4.3479,-2.2824,-2.2415,-2.2933,-2.2972,-2.2721,-2.2695,-2.2873,-2.3111,-2.2544,-2.2463,-2.2695,-2.2712,-2.2628,-2.2447,-2.2685,-2.3028,-2.3346,-2.3328,-2.3437,-2.3653,-2.3996,-2.4016,-2.4074,-2.4074,-2.4054,-2.4113,-2.4113,-2.3996,-2.4151,-2.3876,-2.3774,-2.3837,-2.424,-2.4461,-2.4937,-2.5578,-2.6606,-2.7126,-2.7603,-2.8036,-2.8364,-2.8439,-2.837,-2.8278,-2.8237,-2.8093,-2.7851,-2.7648,-2.7439,-2.7161,-2.6989,-2.6825,-2.6759,-2.6742,-2.7216,-2.7794,-2.8561,-2.8937,-2.9464,-2.9699,-3.0123,-3.0619,-3.1702,-3.2225,-3.2296,-3.2125,-3.2517,-3.284,-3.3242,-3.3488,-3.3927,-3.4183,-3.4421,-3.4795,-3.5273,-3.5813,-3.6516,-3.7141,-3.7796,-3.8266,-3.8477,-3.8947,-3.9832,-3.9944,-3.9816,-3.959,-3.932,-3.898,-3.9098,-3.8982,-3.9355,-3.9378,-3.9452,-3.9566,-4.0038,-4.0767,-4.128,-4.2209,-4.2213,-4.2106,-4.276,-4.307,-4.2708,-4.2653,-4.3112,-4.3348,-4.3422,-4.3422,-4.3351,-4.3387,-4.3442,-4.3479,-4.3479,-4.3479,-4.3479,-2.2616,-2.2349,-2.2704,-2.2797,-2.2695,-2.2695,-2.2652,-2.2517,-2.2349,-2.2436,-2.2721,-2.2972,-2.2894,-2.2799,-2.3451,-2.3426,-2.3448,-2.3527,-2.353,-2.3714,-2.3976,-2.3976,-2.4034,-2.4094,-2.417,-2.419,-2.419,-2.419,-2.419,-2.4036,-2.4054,-2.4112,-2.4151,-2.419,-2.4355,-2.4667,-2.5438,-2.6098,-2.6649,-2.7383,-2.7934,-2.8004,-2.8171,-2.8452,-2.8548,-2.8391,-2.8237,-2.8112,-2.7844,-2.7348,-2.7241,-2.7115,-2.7115,-2.7147,-2.7385,-2.7744,-2.807,-2.8282,-2.9069,-2.9143,-2.9489,-3.0734,-3.1931,-3.2001,-3.205,-3.2218,-3.2711,-3.3021,-3.3277,-3.3532,-3.3716,-3.3907,-3.4131,-3.4494,-3.4889,-3.5338,-3.5957,-3.6474,-3.7147,-3.7585,-3.7833,-3.8804,-3.9696,-4.0288,-4.0139,-3.9914,-3.9604,-3.9152,-3.8886,-3.8785,-3.8726,-3.8737,-3.8847,-3.914,-3.9612,-4.0304,-4.0565,-4.0914,-4.1042,-4.1134,-4.1317,-4.1519,-4.1537,-4.1757,-4.2158,-4.2779,-4.3416,-4.3235,-4.2727,-4.3259,-4.3406,-4.3442,-4.3479,-4.3442,-4.3461,-2.2279,-2.2343,-2.273,-2.2898,-2.2873,-2.2772,-2.2652,-2.2624,-2.2388,-2.2535,-2.2898,-2.3093,-2.3181,-2.3217,-2.3668,-2.3785,-2.3539,-2.3726,-2.3795,-2.3896,-2.3996,-2.4016,-2.4054,-2.4074,-2.417,-2.419,-2.419,-2.419,-2.419,-2.419,-2.419,-2.417,-2.419,-2.419,-2.4245,-2.4337,-2.4502,-2.5107,-2.5713,-2.6502,-2.6998,-2.7346,-2.7842,-2.8356,-2.8539,-2.8492,-2.8567,-2.8467,-2.8085,-2.773,-2.766,-2.7584,-2.7648,-2.7766,-2.7735,-2.8021,-2.8139,-2.8427,-2.8949,-2.9241,-2.9829,-3.0632,-3.1562,-3.1573,-3.1949,-3.23,-3.2757,-3.314,-3.3332,-3.3552,-3.3725,-3.3902,-3.4136,-3.4381,-3.463,-3.49,-3.5325,-3.5772,-3.626,-3.675,-3.751,-3.8501,-3.9336,-4.0008,-4.0325,-3.9905,-3.9592,-3.9301,-3.9024,-3.8923,-3.8792,-3.8713,-3.8768,-3.8927,-3.9386,-3.9693,-3.979,-3.9997,-4.0235,-4.029,-4.0185,-4.0404,-4.0771,-4.0918,-4.1079,-4.1662,-4.2154,-4.2136,-4.1937,-4.2433,-4.2837,-4.2928,-4.3039,-4.3332,-4.3369,-2.1782,-2.2265,-2.2848,-2.3069,-2.3117,-2.2822,-2.2898,-2.3159,-2.266,-2.2686,-2.3183,-2.3236,-2.3383,-2.3569,-2.3821,-2.3978,-2.3885,-2.3958,-2.4016,-2.417,-2.4151,-2.4151,-2.4151,-2.419,-2.419,-2.419,-2.419,-2.419,-2.419,-2.419,-2.419,-2.419,-2.419,-2.419,-2.419,-2.419,-2.43,-2.4483,-2.5016,-2.5658,-2.6264,-2.6594,-2.6851,-2.7548,-2.7787,-2.7907,-2.8393,-2.8446,-2.824,-2.8074,-2.8058,-2.7897,-2.8254,-2.8511,-2.8443,-2.846,-2.8627,-2.8847,-2.9191,-2.9533,-2.9753,-3.0163,-3.0428,-3.0825,-3.1374,-3.2356,-3.292,-3.3054,-3.3228,-3.3722,-3.4011,-3.4195,-3.4386,-3.4536,-3.4724,-3.4926,-3.5189,-3.5608,-3.6025,-3.64,-3.6688,-3.7702,-3.8651,-3.9303,-3.9718,-3.9542,-3.9112,-3.885,-3.91,-3.8943,-3.8913,-3.875,-3.8744,-3.8781,-3.8854,-3.9056,-3.8927,-3.9093,-3.9478,-3.9643,-3.9648,-3.9873,-4.0134,-4.013,-4.0088,-4.0203,-4.0496,-4.0712,-4.095,-4.1119,-4.1541,-4.2103,-4.2488,-4.2855,-4.3259,-2.0798,-2.1525,-2.2214,-2.2616,-2.2797,-2.2746,-2.3028,-2.3544,-2.3177,-2.3224,-2.3522,-2.3588,-2.3717,-2.3959,-2.4018,-2.4113,-2.4113,-2.4094,-2.4133,-2.417,-2.419,-2.419,-2.419,-2.419,-2.419,-2.419,-2.419,-2.419,-2.419,-2.419,-2.419,-2.419,-2.419,-2.419,-2.419,-2.419,-2.4208,-2.4226,-2.4465,-2.4961,-2.5548,-2.5786,-2.6043,-2.6631,-2.6961,-2.7016,-2.7284,-2.7226,-2.6872,-2.6652,-2.7409,-2.8013,-2.8812,-2.9193,-2.9345,-2.9326,-2.9344,-2.9451,-2.9628,-2.9915,-3.0136,-3.0199,-3.0398,-3.0464,-3.1016,-3.2238,-3.288,-3.2896,-3.3098,-3.3658,-3.4202,-3.4376,-3.4494,-3.4597,-3.479,-3.4945,-3.507,-3.543,-3.583,-3.5979,-3.608,-3.6803,-3.7795,-3.84,-3.8861,-3.8615,-3.7933,-3.7795,-3.8591,-3.8807,-3.8961,-3.8844,-3.875,-3.8738,-3.8707,-3.8707,-3.8707,-3.8707,-3.9019,-3.9111,-3.9148,-3.9282,-3.9452,-3.919,-3.9098,-3.9373,-3.9617,-3.9832,-4.0052,-4.0148,-4.0679,-4.1387,-4.1772,-4.2121,-4.2745,-1.9908,-2.0696,-2.152,-2.2153,-2.2565,-2.2623,-2.3008,-2.3592,-2.35,-2.3628,-2.3876,-2.3795,-2.3896,-2.417,-2.419,-2.419,-2.419,-2.419,-2.419,-2.419,-2.419,-2.419,-2.419,-2.419,-2.419,-2.419,-2.419,-2.419,-2.419,-2.419,-2.419,-2.419,-2.419,-2.419,-2.419,-2.419,-2.419,-2.419,-2.419,-2.4465,-2.4905,-2.4979,-2.5291,-2.5823,-2.608,-2.619,-2.6576,-2.6612,-2.6487,-2.6493,-2.7071,-2.7942,-2.8681,-2.9159,-2.9494,-2.9741,-2.987,-3.0003,-3.0047,-3.0147,-3.0343,-3.0349,-3.0386,-3.0414,-3.0458,-3.1501,-3.177,-3.1796,-3.1638,-3.2088,-3.3349,-3.3804,-3.3746,-3.3767,-3.4373,-3.4812,-3.4889,-3.5096,-3.5367,-3.5503,-3.5662,-3.5942,-3.6653,-3.68,-3.7279,-3.7791,-3.7081,-3.7641,-3.8303,-3.8578,-3.8773,-3.8923,-3.8773,-3.8719,-3.8707,-3.8707,-3.8707,-3.8707,-3.8707,-3.8799,-3.8909,-3.8817,-3.8726,-3.8762,-3.8781,-3.8786,-3.9025,-3.9294,-3.9294,-3.9373,-4.0047,-4.0813,-4.1107,-4.135,-4.1992,-1.907,-1.9884,-2.0809,-2.1626,-2.2298,-2.2479,-2.2898,-2.3539,-2.372,-2.3917,-2.4132,-2.3896,-2.3958,-2.4113,-2.419,-2.419,-2.419,-2.419,-2.419,-2.419,-2.419,-2.419,-2.419,-2.419,-2.419,-2.419,-2.419,-2.419,-2.419,-2.419,-2.419,-2.419,-2.419,-2.419,-2.419,-2.419,-2.419,-2.419,-2.419,-2.419,-2.4226,-2.419,-2.4685,-2.5072,-2.5311,-2.5621,-2.608,-2.6222,-2.6185,-2.6446,-2.6618,-2.7509,-2.8183,-2.8681,-2.8893,-2.9184,-2.9789,-2.9799,-2.9827,-2.9956,-3.0171,-3.0292,-3.0323,-3.0311,-3.0311,-3.0522,-3.0825,-3.0784,-3.0631,-3.1107,-3.2391,-3.3167,-3.3072,-3.3236,-3.3973,-3.4595,-3.467,-3.4769,-3.4927,-3.5091,-3.5284,-3.5458,-3.549,-3.5578,-3.5866,-3.6391,-3.6924,-3.7785,-3.8331,-3.8311,-3.8398,-3.8678,-3.8792,-3.8719,-3.8707,-3.8707,-3.8707,-3.8707,-3.8707,-3.8707,-3.8707,-3.8707,-3.8707,-3.8707,-3.8707,-3.8676,-3.8707,-3.8891,-3.8836,-3.8854,-3.9294,-3.995,-4.001,-4.0377,-4.1148,-1.83,-1.947,-2.0251,-2.0951,-2.1556,-2.2193,-2.2747,-2.3215,-2.3801,-2.4133,-2.4097,-2.4152,-2.417,-2.419,-2.419,-2.419,-2.419,-2.419,-2.419,-2.419,-2.419,-2.419,-2.419,-2.419,-2.419,-2.419,-2.419,-2.419,-2.419,-2.419,-2.419,-2.419,-2.419,-2.419,-2.419,-2.419,-2.419,-2.419,-2.419,-2.419,-2.419,-2.4208,-2.4226,-2.4392,-2.4428,-2.452,-2.4591,-2.4372,-2.4433,-2.4855,-2.5663,-2.6666,-2.7357,-2.7815,-2.797,-2.832,-2.8958,-2.917,-2.9184,-2.9292,-2.9432,-2.974,-2.9751,-2.9836,-2.9961,-3.0266,-3.0399,-3.0318,-3.0326,-3.0738,-3.1749,-3.2414,-3.2574,-3.3066,-3.3711,-3.4054,-3.4292,-3.4486,-3.4693,-3.4869,-3.5078,-3.5077,-3.4999,-3.4999,-3.4959,-3.5203,-3.4918,-3.5824,-3.7359,-3.7671,-3.8015,-3.8327,-3.8621,-3.8719,-3.8707,-3.8707,-3.8707,-3.8707,-3.8707,-3.8707,-3.8707,-3.8707,-3.8707,-3.8707,-3.8707,-3.8707,-3.8707,-3.8707,-3.8726,-3.8762,-3.8762,-3.9001,-3.9111,-3.9337,-4.007]}]]